﻿<?xml version="1.0" encoding="utf-8"?><gpx creator="Garmin Desktop App" version="1.1" xsi:schemaLocation="http://www.topografix.com/GPX/1/1 http://www.topografix.com/GPX/1/1/gpx.xsd http://www.garmin.com/xmlschemas/WaypointExtension/v1 http://www8.garmin.com/xmlschemas/WaypointExtensionv1.xsd http://www.garmin.com/xmlschemas/TrackPointExtension/v1 http://www.garmin.com/xmlschemas/TrackPointExtensionv1.xsd http://www.garmin.com/xmlschemas/GpxExtensions/v3 http://www8.garmin.com/xmlschemas/GpxExtensionsv3.xsd http://www.garmin.com/xmlschemas/ActivityExtension/v1 http://www8.garmin.com/xmlschemas/ActivityExtensionv1.xsd http://www.garmin.com/xmlschemas/AdventuresExtensions/v1 http://www8.garmin.com/xmlschemas/AdventuresExtensionv1.xsd http://www.garmin.com/xmlschemas/PressureExtension/v1 http://www.garmin.com/xmlschemas/PressureExtensionv1.xsd http://www.garmin.com/xmlschemas/TripExtensions/v1 http://www.garmin.com/xmlschemas/TripExtensionsv1.xsd http://www.garmin.com/xmlschemas/TripMetaDataExtensions/v1 http://www.garmin.com/xmlschemas/TripMetaDataExtensionsv1.xsd http://www.garmin.com/xmlschemas/ViaPointTransportationModeExtensions/v1 http://www.garmin.com/xmlschemas/ViaPointTransportationModeExtensionsv1.xsd http://www.garmin.com/xmlschemas/CreationTimeExtension/v1 http://www.garmin.com/xmlschemas/CreationTimeExtensionsv1.xsd http://www.garmin.com/xmlschemas/AccelerationExtension/v1 http://www.garmin.com/xmlschemas/AccelerationExtensionv1.xsd http://www.garmin.com/xmlschemas/PowerExtension/v1 http://www.garmin.com/xmlschemas/PowerExtensionv1.xsd http://www.garmin.com/xmlschemas/VideoExtension/v1 http://www.garmin.com/xmlschemas/VideoExtensionv1.xsd" xmlns="http://www.topografix.com/GPX/1/1" xmlns:xsi="http://www.w3.org/2001/XMLSchema-instance" xmlns:wptx1="http://www.garmin.com/xmlschemas/WaypointExtension/v1" xmlns:gpxtrx="http://www.garmin.com/xmlschemas/GpxExtensions/v3" xmlns:gpxtpx="http://www.garmin.com/xmlschemas/TrackPointExtension/v1" xmlns:gpxx="http://www.garmin.com/xmlschemas/GpxExtensions/v3" xmlns:trp="http://www.garmin.com/xmlschemas/TripExtensions/v1" xmlns:adv="http://www.garmin.com/xmlschemas/AdventuresExtensions/v1" xmlns:prs="http://www.garmin.com/xmlschemas/PressureExtension/v1" xmlns:tmd="http://www.garmin.com/xmlschemas/TripMetaDataExtensions/v1" xmlns:vptm="http://www.garmin.com/xmlschemas/ViaPointTransportationModeExtensions/v1" xmlns:ctx="http://www.garmin.com/xmlschemas/CreationTimeExtension/v1" xmlns:gpxacc="http://www.garmin.com/xmlschemas/AccelerationExtension/v1" xmlns:gpxpx="http://www.garmin.com/xmlschemas/PowerExtension/v1" xmlns:vidx1="http://www.garmin.com/xmlschemas/VideoExtension/v1">

  <metadata>
    <link href="http://www.garmin.com">
      <text>Garmin International</text>
    </link>
    <time>2014-09-02T11:11:09Z</time>
    <bounds maxlat="46.578148752450943" maxlon="8.615229120478034" minlat="46.553523894399405" minlon="8.569123037159443" />
  </metadata>

  <trk>
    <name>pizzo-centrale2014-08-31</name>
    <extensions>
      <gpxx:TrackExtension>
        <gpxx:DisplayColor>Yellow</gpxx:DisplayColor>
      </gpxx:TrackExtension>
      <gpxtrkx:TrackStatsExtension xmlns:gpxtrkx="http://www.garmin.com/xmlschemas/TrackStatsExtension/v1">
        <gpxtrkx:Distance>14710</gpxtrkx:Distance>
        <gpxtrkx:TotalElapsedTime>23135</gpxtrkx:TotalElapsedTime>
        <gpxtrkx:MovingTime>15287</gpxtrkx:MovingTime>
        <gpxtrkx:StoppedTime>7800</gpxtrkx:StoppedTime>
        <gpxtrkx:MovingSpeed>1</gpxtrkx:MovingSpeed>
        <gpxtrkx:MaxSpeed>3</gpxtrkx:MaxSpeed>
        <gpxtrkx:MaxElevation>3002</gpxtrkx:MaxElevation>
        <gpxtrkx:MinElevation>2065</gpxtrkx:MinElevation>
        <gpxtrkx:Ascent>981</gpxtrkx:Ascent>
        <gpxtrkx:Descent>943</gpxtrkx:Descent>
        <gpxtrkx:AvgAscentRate>0</gpxtrkx:AvgAscentRate>
        <gpxtrkx:MaxAscentRate>0</gpxtrkx:MaxAscentRate>
        <gpxtrkx:AvgDescentRate>0</gpxtrkx:AvgDescentRate>
        <gpxtrkx:MaxDescentRate>-1</gpxtrkx:MaxDescentRate>
      </gpxtrkx:TrackStatsExtension>
    </extensions>
    <trkseg>
      <trkpt lat="46.556207193061709" lon="8.569136448204517">
        <ele>2067.9299999999998</ele>
        <time>2014-08-31T06:51:15Z</time>
      </trkpt>
      <trkpt lat="46.556208115071058" lon="8.569137034937739">
        <ele>2067.9299999999998</ele>
        <time>2014-08-31T06:51:16Z</time>
      </trkpt>
      <trkpt lat="46.556248851120472" lon="8.569123791530728">
        <ele>2066.4899999999998</ele>
        <time>2014-08-31T06:51:22Z</time>
      </trkpt>
      <trkpt lat="46.556232506409287" lon="8.569193445146084">
        <ele>2066.9699999999998</ele>
        <time>2014-08-31T06:51:51Z</time>
      </trkpt>
      <trkpt lat="46.556238709017634" lon="8.569193193688989">
        <ele>2066.9699999999998</ele>
        <time>2014-08-31T06:52:08Z</time>
      </trkpt>
      <trkpt lat="46.556230159476399" lon="8.56920350342989">
        <ele>2067.9299999999998</ele>
        <time>2014-08-31T06:52:24Z</time>
      </trkpt>
      <trkpt lat="46.556220101192594" lon="8.56919813901186">
        <ele>2067.9299999999998</ele>
        <time>2014-08-31T06:52:39Z</time>
      </trkpt>
      <trkpt lat="46.556218089535832" lon="8.569182129576802">
        <ele>2068.4099999999999</ele>
        <time>2014-08-31T06:53:04Z</time>
      </trkpt>
      <trkpt lat="46.556218089535832" lon="8.569187326356769">
        <ele>2068.8899999999999</ele>
        <time>2014-08-31T06:53:17Z</time>
      </trkpt>
      <trkpt lat="46.556213982403278" lon="8.569196294993162">
        <ele>2068.8899999999999</ele>
        <time>2014-08-31T06:53:30Z</time>
      </trkpt>
      <trkpt lat="46.55621062964201" lon="8.569197719916701">
        <ele>2069.3800000000001</ele>
        <time>2014-08-31T06:53:43Z</time>
      </trkpt>
      <trkpt lat="46.556233260780573" lon="8.569176848977804">
        <ele>2069.3800000000001</ele>
        <time>2014-08-31T06:53:54Z</time>
      </trkpt>
      <trkpt lat="46.556310122832656" lon="8.569160923361778">
        <ele>2069.3800000000001</ele>
        <time>2014-08-31T06:54:00Z</time>
      </trkpt>
      <trkpt lat="46.556338286027312" lon="8.56918447650969">
        <ele>2069.8600000000001</ele>
        <time>2014-08-31T06:54:09Z</time>
      </trkpt>
      <trkpt lat="46.556279193609953" lon="8.569179950281978">
        <ele>2069.8600000000001</ele>
        <time>2014-08-31T06:54:15Z</time>
      </trkpt>
      <trkpt lat="46.556195039302111" lon="8.569142902269959">
        <ele>2069.3800000000001</ele>
        <time>2014-08-31T06:54:32Z</time>
      </trkpt>
      <trkpt lat="46.556206522509456" lon="8.569123037159443">
        <ele>2069.3800000000001</ele>
        <time>2014-08-31T06:54:53Z</time>
      </trkpt>
      <trkpt lat="46.556237284094095" lon="8.569144327193499">
        <ele>2070.3400000000001</ele>
        <time>2014-08-31T06:55:05Z</time>
      </trkpt>
      <trkpt lat="46.556265614926815" lon="8.569138376042247">
        <ele>2070.3400000000001</ele>
        <time>2014-08-31T06:55:27Z</time>
      </trkpt>
      <trkpt lat="46.556251784786582" lon="8.569165449589491">
        <ele>2070.8200000000002</ele>
        <time>2014-08-31T06:55:47Z</time>
      </trkpt>
      <trkpt lat="46.556239379569888" lon="8.569180620834231">
        <ele>2070.8200000000002</ele>
        <time>2014-08-31T06:56:07Z</time>
      </trkpt>
      <trkpt lat="46.556263016536832" lon="8.569220518693328">
        <ele>2071.3000000000002</ele>
        <time>2014-08-31T06:56:20Z</time>
      </trkpt>
      <trkpt lat="46.556287575513124" lon="8.569259159266949">
        <ele>2071.7800000000002</ele>
        <time>2014-08-31T06:56:25Z</time>
      </trkpt>
      <trkpt lat="46.55636896379292" lon="8.569400897249579">
        <ele>2072.2600000000002</ele>
        <time>2014-08-31T06:56:37Z</time>
      </trkpt>
      <trkpt lat="46.556460661813617" lon="8.5695915017277">
        <ele>2073.6999999999998</ele>
        <time>2014-08-31T06:56:51Z</time>
      </trkpt>
      <trkpt lat="46.556463846936822" lon="8.569775149226189">
        <ele>2074.6599999999999</ele>
        <time>2014-08-31T06:57:04Z</time>
      </trkpt>
      <trkpt lat="46.556470803916454" lon="8.569800714030862">
        <ele>2074.6599999999999</ele>
        <time>2014-08-31T06:57:06Z</time>
      </trkpt>
      <trkpt lat="46.556470384821296" lon="8.569828206673265">
        <ele>2074.6599999999999</ele>
        <time>2014-08-31T06:57:08Z</time>
      </trkpt>
      <trkpt lat="46.556472228839993" lon="8.56985536403954">
        <ele>2075.1399999999999</ele>
        <time>2014-08-31T06:57:10Z</time>
      </trkpt>
      <trkpt lat="46.556479269638658" lon="8.569957120344043">
        <ele>2075.1399999999999</ele>
        <time>2014-08-31T06:57:17Z</time>
      </trkpt>
      <trkpt lat="46.556465104222298" lon="8.570229867473245">
        <ele>2076.5900000000001</ele>
        <time>2014-08-31T06:57:35Z</time>
      </trkpt>
      <trkpt lat="46.556454878300428" lon="8.570441175252199">
        <ele>2078.0300000000002</ele>
        <time>2014-08-31T06:57:50Z</time>
      </trkpt>
      <trkpt lat="46.55639193020761" lon="8.570662457495928">
        <ele>2078.9899999999998</ele>
        <time>2014-08-31T06:58:06Z</time>
      </trkpt>
      <trkpt lat="46.556293945759535" lon="8.570865048095584">
        <ele>2080.4299999999998</ele>
        <time>2014-08-31T06:58:22Z</time>
      </trkpt>
      <trkpt lat="46.556289922446012" lon="8.570877620950341">
        <ele>2080.4299999999998</ele>
        <time>2014-08-31T06:58:23Z</time>
      </trkpt>
      <trkpt lat="46.556211551651359" lon="8.571110554039478">
        <ele>2081.8699999999999</ele>
        <time>2014-08-31T06:58:39Z</time>
      </trkpt>
      <trkpt lat="46.556206354871392" lon="8.571147434413433">
        <ele>2081.8699999999999</ele>
        <time>2014-08-31T06:58:41Z</time>
      </trkpt>
      <trkpt lat="46.556149944663048" lon="8.57134516350925">
        <ele>2082.3499999999999</ele>
        <time>2014-08-31T06:58:54Z</time>
      </trkpt>
      <trkpt lat="46.556115495041013" lon="8.57156409882009">
        <ele>2084.2800000000002</ele>
        <time>2014-08-31T06:59:08Z</time>
      </trkpt>
      <trkpt lat="46.556150279939175" lon="8.571849754080176">
        <ele>2086.1999999999998</ele>
        <time>2014-08-31T06:59:25Z</time>
      </trkpt>
      <trkpt lat="46.556143155321479" lon="8.572032479569316">
        <ele>2087.1599999999999</ele>
        <time>2014-08-31T06:59:38Z</time>
      </trkpt>
      <trkpt lat="46.55611683614552" lon="8.572108503431082">
        <ele>2087.1599999999999</ele>
        <time>2014-08-31T06:59:43Z</time>
      </trkpt>
      <trkpt lat="46.556035196408629" lon="8.572273124009371">
        <ele>2088.5999999999999</ele>
        <time>2014-08-31T06:59:58Z</time>
      </trkpt>
      <trkpt lat="46.555964620783925" lon="8.572458112612367">
        <ele>2089.5599999999999</ele>
        <time>2014-08-31T07:00:10Z</time>
      </trkpt>
      <trkpt lat="46.555874347686768" lon="8.572638826444745">
        <ele>2090.52</ele>
        <time>2014-08-31T07:00:24Z</time>
      </trkpt>
      <trkpt lat="46.555852303281426" lon="8.572698002681136">
        <ele>2091</ele>
        <time>2014-08-31T07:00:28Z</time>
      </trkpt>
      <trkpt lat="46.555750295519829" lon="8.572901766747236">
        <ele>2092.4499999999998</ele>
        <time>2014-08-31T07:00:43Z</time>
      </trkpt>
      <trkpt lat="46.555720372125506" lon="8.572977036237717">
        <ele>2092.4499999999998</ele>
        <time>2014-08-31T07:00:48Z</time>
      </trkpt>
      <trkpt lat="46.555692963302135" lon="8.573078541085124">
        <ele>2092.9299999999998</ele>
        <time>2014-08-31T07:00:55Z</time>
      </trkpt>
      <trkpt lat="46.555644432082772" lon="8.57318876311183">
        <ele>2093.8899999999999</ele>
        <time>2014-08-31T07:01:03Z</time>
      </trkpt>
      <trkpt lat="46.555522726848722" lon="8.573393868282437">
        <ele>2095.3299999999999</ele>
        <time>2014-08-31T07:01:19Z</time>
      </trkpt>
      <trkpt lat="46.55540781095624" lon="8.573597297072411">
        <ele>2096.29</ele>
        <time>2014-08-31T07:01:33Z</time>
      </trkpt>
      <trkpt lat="46.555353244766593" lon="8.573669465258718">
        <ele>2096.77</ele>
        <time>2014-08-31T07:01:39Z</time>
      </trkpt>
      <trkpt lat="46.555259367451072" lon="8.573792511597276">
        <ele>2097.73</ele>
        <time>2014-08-31T07:01:49Z</time>
      </trkpt>
      <trkpt lat="46.555110840126872" lon="8.573937602341175">
        <ele>2099.1799999999998</ele>
        <time>2014-08-31T07:02:03Z</time>
      </trkpt>
      <trkpt lat="46.555076725780964" lon="8.57397791929543">
        <ele>2099.6599999999999</ele>
        <time>2014-08-31T07:02:07Z</time>
      </trkpt>
      <trkpt lat="46.555005395784974" lon="8.574036676436663">
        <ele>2100.1399999999999</ele>
        <time>2014-08-31T07:02:14Z</time>
      </trkpt>
      <trkpt lat="46.554854940623045" lon="8.57414941303432">
        <ele>2101.5799999999999</ele>
        <time>2014-08-31T07:02:29Z</time>
      </trkpt>
      <trkpt lat="46.554728457704186" lon="8.574263490736485">
        <ele>2102.0599999999999</ele>
        <time>2014-08-31T07:02:41Z</time>
      </trkpt>
      <trkpt lat="46.554581858217716" lon="8.574426686391234">
        <ele>2103.5</ele>
        <time>2014-08-31T07:02:57Z</time>
      </trkpt>
      <trkpt lat="46.554470295086503" lon="8.574622487649322">
        <ele>2104.9400000000001</ele>
        <time>2014-08-31T07:03:12Z</time>
      </trkpt>
      <trkpt lat="46.554311793297529" lon="8.574808901175857">
        <ele>2106.3899999999999</ele>
        <time>2014-08-31T07:03:29Z</time>
      </trkpt>
      <trkpt lat="46.554248761385679" lon="8.57488576322794">
        <ele>2106.8699999999999</ele>
        <time>2014-08-31T07:03:36Z</time>
      </trkpt>
      <trkpt lat="46.554218586534262" lon="8.57494636438787">
        <ele>2107.8299999999999</ele>
        <time>2014-08-31T07:03:40Z</time>
      </trkpt>
      <trkpt lat="46.554171899333596" lon="8.575209807604551">
        <ele>2108.79</ele>
        <time>2014-08-31T07:03:56Z</time>
      </trkpt>
      <trkpt lat="46.554107023403049" lon="8.575424635782838">
        <ele>2110.23</ele>
        <time>2014-08-31T07:04:10Z</time>
      </trkpt>
      <trkpt lat="46.554015409201384" lon="8.575548268854618">
        <ele>2110.71</ele>
        <time>2014-08-31T07:04:20Z</time>
      </trkpt>
      <trkpt lat="46.553920861333609" lon="8.575739124789834">
        <ele>2111.6700000000001</ele>
        <time>2014-08-31T07:04:33Z</time>
      </trkpt>
      <trkpt lat="46.553890770301223" lon="8.575784889981151">
        <ele>2112.1500000000001</ele>
        <time>2014-08-31T07:04:37Z</time>
      </trkpt>
      <trkpt lat="46.55384810641408" lon="8.575863176956773">
        <ele>2112.6300000000001</ele>
        <time>2014-08-31T07:04:42Z</time>
      </trkpt>
      <trkpt lat="46.553765377029777" lon="8.576154615730047">
        <ele>2114.5599999999999</ele>
        <time>2014-08-31T07:05:00Z</time>
      </trkpt>
      <trkpt lat="46.553756492212415" lon="8.576340107247233">
        <ele>2115.52</ele>
        <time>2014-08-31T07:05:12Z</time>
      </trkpt>
      <trkpt lat="46.553737046197057" lon="8.576581422239542">
        <ele>2116.48</ele>
        <time>2014-08-31T07:05:26Z</time>
      </trkpt>
      <trkpt lat="46.553698489442468" lon="8.576817540451884">
        <ele>2117.4400000000001</ele>
        <time>2014-08-31T07:05:40Z</time>
      </trkpt>
      <trkpt lat="46.553621208295226" lon="8.577025244012475">
        <ele>2118.8800000000001</ele>
        <time>2014-08-31T07:05:54Z</time>
      </trkpt>
      <trkpt lat="46.553536131978035" lon="8.577239234000444">
        <ele>2119.8400000000001</ele>
        <time>2014-08-31T07:06:08Z</time>
      </trkpt>
      <trkpt lat="46.553523894399405" lon="8.577312994748354">
        <ele>2120.3200000000002</ele>
        <time>2014-08-31T07:06:12Z</time>
      </trkpt>
      <trkpt lat="46.553571838885546" lon="8.577589513733983">
        <ele>2121.77</ele>
        <time>2014-08-31T07:06:28Z</time>
      </trkpt>
      <trkpt lat="46.553559768944979" lon="8.577840803191066">
        <ele>2122.73</ele>
        <time>2014-08-31T07:06:43Z</time>
      </trkpt>
      <trkpt lat="46.553548285737634" lon="8.578179599717259">
        <ele>2123.6900000000001</ele>
        <time>2014-08-31T07:07:02Z</time>
      </trkpt>
      <trkpt lat="46.553533617407084" lon="8.578515043482184">
        <ele>2125.1300000000001</ele>
        <time>2014-08-31T07:07:21Z</time>
      </trkpt>
      <trkpt lat="46.553580556064844" lon="8.578750658780336">
        <ele>2126.0900000000001</ele>
        <time>2014-08-31T07:07:35Z</time>
      </trkpt>
      <trkpt lat="46.553656663745642" lon="8.578988369554281">
        <ele>2127.0500000000002</ele>
        <time>2014-08-31T07:07:51Z</time>
      </trkpt>
      <trkpt lat="46.553716342896223" lon="8.57918618246913">
        <ele>2127.5300000000002</ele>
        <time>2014-08-31T07:08:03Z</time>
      </trkpt>
      <trkpt lat="46.553787505254149" lon="8.579471586272121">
        <ele>2127.5300000000002</ele>
        <time>2014-08-31T07:08:19Z</time>
      </trkpt>
      <trkpt lat="46.553847687318921" lon="8.57970803976059">
        <ele>2128.5</ele>
        <time>2014-08-31T07:08:34Z</time>
      </trkpt>
      <trkpt lat="46.55393703840673" lon="8.579945247620344">
        <ele>2128.98</ele>
        <time>2014-08-31T07:08:49Z</time>
      </trkpt>
      <trkpt lat="46.553997891023755" lon="8.580224951729178">
        <ele>2128.98</ele>
        <time>2014-08-31T07:09:05Z</time>
      </trkpt>
      <trkpt lat="46.553954724222422" lon="8.580365348607302">
        <ele>2129.46</ele>
        <time>2014-08-31T07:09:20Z</time>
      </trkpt>
      <trkpt lat="46.553961681202054" lon="8.580363085493445">
        <ele>2129.9400000000001</ele>
        <time>2014-08-31T07:09:22Z</time>
      </trkpt>
      <trkpt lat="46.553985569626093" lon="8.580409521237016">
        <ele>2129.9400000000001</ele>
        <time>2014-08-31T07:09:26Z</time>
      </trkpt>
      <trkpt lat="46.554022114723921" lon="8.580710096284747">
        <ele>2130.4200000000001</ele>
        <time>2014-08-31T07:09:42Z</time>
      </trkpt>
      <trkpt lat="46.55406410805881" lon="8.581069763749838">
        <ele>2130.9000000000001</ele>
        <time>2014-08-31T07:10:00Z</time>
      </trkpt>
      <trkpt lat="46.554109957069159" lon="8.581295907497406">
        <ele>2130.9000000000001</ele>
        <time>2014-08-31T07:10:12Z</time>
      </trkpt>
      <trkpt lat="46.554142897948623" lon="8.581514423713088">
        <ele>2131.3800000000001</ele>
        <time>2014-08-31T07:10:26Z</time>
      </trkpt>
      <trkpt lat="46.554150190204382" lon="8.581774597987533">
        <ele>2131.3800000000001</ele>
        <time>2014-08-31T07:10:41Z</time>
      </trkpt>
      <trkpt lat="46.554142395034432" lon="8.582196542993188">
        <ele>2131.8600000000001</ele>
        <time>2014-08-31T07:11:01Z</time>
      </trkpt>
      <trkpt lat="46.554084978997707" lon="8.582567358389497">
        <ele>2131.8600000000001</ele>
        <time>2014-08-31T07:11:20Z</time>
      </trkpt>
      <trkpt lat="46.553952628746629" lon="8.582909340038896">
        <ele>2131.8600000000001</ele>
        <time>2014-08-31T07:11:40Z</time>
      </trkpt>
      <trkpt lat="46.553942989557981" lon="8.582921996712685">
        <ele>2131.8600000000001</ele>
        <time>2014-08-31T07:11:41Z</time>
      </trkpt>
      <trkpt lat="46.553768310695887" lon="8.583117546513677">
        <ele>2132.3400000000001</ele>
        <time>2014-08-31T07:11:58Z</time>
      </trkpt>
      <trkpt lat="46.553679965436459" lon="8.583356263116002">
        <ele>2132.8200000000002</ele>
        <time>2014-08-31T07:12:13Z</time>
      </trkpt>
      <trkpt lat="46.553668146952987" lon="8.583668572828174">
        <ele>2133.3000000000002</ele>
        <time>2014-08-31T07:12:30Z</time>
      </trkpt>
      <trkpt lat="46.553770741447806" lon="8.583988761529326">
        <ele>2133.7800000000002</ele>
        <time>2014-08-31T07:12:48Z</time>
      </trkpt>
      <trkpt lat="46.553867720067501" lon="8.584260670468211">
        <ele>2134.2600000000002</ele>
        <time>2014-08-31T07:13:05Z</time>
      </trkpt>
      <trkpt lat="46.553979031741619" lon="8.584516737610102">
        <ele>2135.71</ele>
        <time>2014-08-31T07:13:22Z</time>
      </trkpt>
      <trkpt lat="46.554057151079178" lon="8.584655206650496">
        <ele>2136.6700000000001</ele>
        <time>2014-08-31T07:13:32Z</time>
      </trkpt>
      <trkpt lat="46.55421263538301" lon="8.584895264357328">
        <ele>2138.5900000000001</ele>
        <time>2014-08-31T07:13:51Z</time>
      </trkpt>
      <trkpt lat="46.554279690608382" lon="8.584969192743301">
        <ele>2139.0700000000002</ele>
        <time>2014-08-31T07:13:58Z</time>
      </trkpt>
      <trkpt lat="46.554318750277162" lon="8.585006324574351">
        <ele>2139.5500000000002</ele>
        <time>2014-08-31T07:14:02Z</time>
      </trkpt>
      <trkpt lat="46.554458057507873" lon="8.585171028971672">
        <ele>2141.4699999999998</ele>
        <time>2014-08-31T07:14:18Z</time>
      </trkpt>
      <trkpt lat="46.554610608145595" lon="8.585334308445454">
        <ele>2143.8800000000001</ele>
        <time>2014-08-31T07:14:34Z</time>
      </trkpt>
      <trkpt lat="46.554657546803355" lon="8.585436148568988">
        <ele>2145.3200000000002</ele>
        <time>2014-08-31T07:14:42Z</time>
      </trkpt>
      <trkpt lat="46.554786544293165" lon="8.585609318688512">
        <ele>2147.7199999999998</ele>
        <time>2014-08-31T07:14:58Z</time>
      </trkpt>
      <trkpt lat="46.554913613945246" lon="8.585749380290508">
        <ele>2150.1300000000001</ele>
        <time>2014-08-31T07:15:13Z</time>
      </trkpt>
      <trkpt lat="46.555068595334888" lon="8.585921041667461">
        <ele>2153.0100000000002</ele>
        <time>2014-08-31T07:15:31Z</time>
      </trkpt>
      <trkpt lat="46.555174710229039" lon="8.58604408800602">
        <ele>2154.9299999999998</ele>
        <time>2014-08-31T07:15:45Z</time>
      </trkpt>
      <trkpt lat="46.555237406864762" lon="8.586116340011358">
        <ele>2155.8899999999999</ele>
        <time>2014-08-31T07:15:53Z</time>
      </trkpt>
      <trkpt lat="46.555346371605992" lon="8.586248522624373">
        <ele>2157.8200000000002</ele>
        <time>2014-08-31T07:16:06Z</time>
      </trkpt>
      <trkpt lat="46.555434884503484" lon="8.586420016363263">
        <ele>2160.2199999999998</ele>
        <time>2014-08-31T07:16:20Z</time>
      </trkpt>
      <trkpt lat="46.555580142885447" lon="8.586566867306829">
        <ele>2163.0999999999999</ele>
        <time>2014-08-31T07:16:37Z</time>
      </trkpt>
      <trkpt lat="46.555604701861739" lon="8.586602825671434">
        <ele>2163.5799999999999</ele>
        <time>2014-08-31T07:16:40Z</time>
      </trkpt>
      <trkpt lat="46.555629763752222" lon="8.586657391861081">
        <ele>2164.0599999999999</ele>
        <time>2014-08-31T07:16:44Z</time>
      </trkpt>
      <trkpt lat="46.555672343820333" lon="8.586809607222676">
        <ele>2165.9899999999998</ele>
        <time>2014-08-31T07:16:54Z</time>
      </trkpt>
      <trkpt lat="46.555677959695458" lon="8.586833914741874">
        <ele>2165.9899999999998</ele>
        <time>2014-08-31T07:16:56Z</time>
      </trkpt>
      <trkpt lat="46.555698411539197" lon="8.586910776793957">
        <ele>2167.4299999999998</ele>
        <time>2014-08-31T07:17:02Z</time>
      </trkpt>
      <trkpt lat="46.555702434852719" lon="8.586952434852719">
        <ele>2167.9099999999999</ele>
        <time>2014-08-31T07:17:05Z</time>
      </trkpt>
      <trkpt lat="46.55572003684938" lon="8.587037762627006">
        <ele>2168.3899999999999</ele>
        <time>2014-08-31T07:17:11Z</time>
      </trkpt>
      <trkpt lat="46.555764880031347" lon="8.587243789806962">
        <ele>2171.27</ele>
        <time>2014-08-31T07:17:26Z</time>
      </trkpt>
      <trkpt lat="46.555796731263399" lon="8.58744453638792">
        <ele>2173.1999999999998</ele>
        <time>2014-08-31T07:17:40Z</time>
      </trkpt>
      <trkpt lat="46.555797066539526" lon="8.587460964918137">
        <ele>2173.6799999999998</ele>
        <time>2014-08-31T07:17:41Z</time>
      </trkpt>
      <trkpt lat="46.555805029347539" lon="8.587670428678393">
        <ele>2176.0799999999999</ele>
        <time>2014-08-31T07:17:56Z</time>
      </trkpt>
      <trkpt lat="46.555845849215984" lon="8.58773966319859">
        <ele>2176.5599999999999</ele>
        <time>2014-08-31T07:18:02Z</time>
      </trkpt>
      <trkpt lat="46.555901672691107" lon="8.5878686606884">
        <ele>2178</ele>
        <time>2014-08-31T07:18:12Z</time>
      </trkpt>
      <trkpt lat="46.555980043485761" lon="8.588072676211596">
        <ele>2180.8899999999999</ele>
        <time>2014-08-31T07:18:28Z</time>
      </trkpt>
      <trkpt lat="46.556006027385592" lon="8.588187843561173">
        <ele>2182.3299999999999</ele>
        <time>2014-08-31T07:18:37Z</time>
      </trkpt>
      <trkpt lat="46.556048691272736" lon="8.588310051709414">
        <ele>2183.77</ele>
        <time>2014-08-31T07:18:45Z</time>
      </trkpt>
      <trkpt lat="46.556080877780914" lon="8.588354224339128">
        <ele>2184.25</ele>
        <time>2014-08-31T07:18:50Z</time>
      </trkpt>
      <trkpt lat="46.556258238852024" lon="8.588469978421927">
        <ele>2187.1399999999999</ele>
        <time>2014-08-31T07:19:09Z</time>
      </trkpt>
      <trkpt lat="46.556282127276063" lon="8.588525550439954">
        <ele>2188.0999999999999</ele>
        <time>2014-08-31T07:19:24Z</time>
      </trkpt>
      <trkpt lat="46.556303249672055" lon="8.588643064722419">
        <ele>2189.0599999999999</ele>
        <time>2014-08-31T07:19:36Z</time>
      </trkpt>
      <trkpt lat="46.556361503899097" lon="8.588908854871988">
        <ele>2191.9400000000001</ele>
        <time>2014-08-31T07:19:53Z</time>
      </trkpt>
      <trkpt lat="46.556374244391918" lon="8.588968114927411">
        <ele>2192.9000000000001</ele>
        <time>2014-08-31T07:19:57Z</time>
      </trkpt>
      <trkpt lat="46.556427134200931" lon="8.589090658351779">
        <ele>2194.3499999999999</ele>
        <time>2014-08-31T07:20:06Z</time>
      </trkpt>
      <trkpt lat="46.556511539965868" lon="8.589253770187497">
        <ele>2196.27</ele>
        <time>2014-08-31T07:20:21Z</time>
      </trkpt>
      <trkpt lat="46.556564932689071" lon="8.589451499283314">
        <ele>2198.6700000000001</ele>
        <time>2014-08-31T07:20:36Z</time>
      </trkpt>
      <trkpt lat="46.556559987366199" lon="8.589494079351425">
        <ele>2199.1500000000001</ele>
        <time>2014-08-31T07:20:47Z</time>
      </trkpt>
      <trkpt lat="46.556631149724126" lon="8.589705554768443">
        <ele>2201.0799999999999</ele>
        <time>2014-08-31T07:21:02Z</time>
      </trkpt>
      <trkpt lat="46.556648500263691" lon="8.589720139279962">
        <ele>2202.04</ele>
        <time>2014-08-31T07:21:04Z</time>
      </trkpt>
      <trkpt lat="46.556679010391235" lon="8.589812926948071">
        <ele>2203</ele>
        <time>2014-08-31T07:21:20Z</time>
      </trkpt>
      <trkpt lat="46.556748496368527" lon="8.589897584170103">
        <ele>2204.4400000000001</ele>
        <time>2014-08-31T07:21:34Z</time>
      </trkpt>
      <trkpt lat="46.556842960417271" lon="8.590070670470595">
        <ele>2206.3600000000001</ele>
        <time>2014-08-31T07:21:48Z</time>
      </trkpt>
      <trkpt lat="46.556932562962174" lon="8.59021701849997">
        <ele>2208.29</ele>
        <time>2014-08-31T07:22:01Z</time>
      </trkpt>
      <trkpt lat="46.557016801089048" lon="8.590415166690946">
        <ele>2210.6900000000001</ele>
        <time>2014-08-31T07:22:16Z</time>
      </trkpt>
      <trkpt lat="46.557120149955153" lon="8.590590767562389">
        <ele>2213.0900000000001</ele>
        <time>2014-08-31T07:22:31Z</time>
      </trkpt>
      <trkpt lat="46.557221487164497" lon="8.590794280171394">
        <ele>2215.5</ele>
        <time>2014-08-31T07:22:48Z</time>
      </trkpt>
      <trkpt lat="46.557273957878351" lon="8.590951776131988">
        <ele>2217.4200000000001</ele>
        <time>2014-08-31T07:23:01Z</time>
      </trkpt>
      <trkpt lat="46.557349395006895" lon="8.591143051162362">
        <ele>2219.8200000000002</ele>
        <time>2014-08-31T07:23:16Z</time>
      </trkpt>
      <trkpt lat="46.55749331228435" lon="8.591296188533306">
        <ele>2222.2199999999998</ele>
        <time>2014-08-31T07:23:34Z</time>
      </trkpt>
      <trkpt lat="46.557621639221907" lon="8.591463323682547">
        <ele>2223.6700000000001</ele>
        <time>2014-08-31T07:23:50Z</time>
      </trkpt>
      <trkpt lat="46.557728089392185" lon="8.59165795147419">
        <ele>2225.5900000000001</ele>
        <time>2014-08-31T07:24:06Z</time>
      </trkpt>
      <trkpt lat="46.557845938950777" lon="8.591880574822426">
        <ele>2227.5100000000002</ele>
        <time>2014-08-31T07:24:23Z</time>
      </trkpt>
      <trkpt lat="46.558008966967463" lon="8.59205081127584">
        <ele>2229.9200000000001</ele>
        <time>2014-08-31T07:24:42Z</time>
      </trkpt>
      <trkpt lat="46.558130336925387" lon="8.592242421582341">
        <ele>2231.3600000000001</ele>
        <time>2014-08-31T07:24:58Z</time>
      </trkpt>
      <trkpt lat="46.558123296126723" lon="8.592235883697867">
        <ele>2231.8400000000001</ele>
        <time>2014-08-31T07:25:02Z</time>
      </trkpt>
      <trkpt lat="46.55826972797513" lon="8.592396732419729">
        <ele>2233.2800000000002</ele>
        <time>2014-08-31T07:25:17Z</time>
      </trkpt>
      <trkpt lat="46.558433594182134" lon="8.592608207836747">
        <ele>2235.6799999999998</ele>
        <time>2014-08-31T07:25:36Z</time>
      </trkpt>
      <trkpt lat="46.558548845350742" lon="8.592700241133571">
        <ele>2237.1300000000001</ele>
        <time>2014-08-31T07:25:48Z</time>
      </trkpt>
      <trkpt lat="46.558687733486295" lon="8.592712227255106">
        <ele>2239.5300000000002</ele>
        <time>2014-08-31T07:26:01Z</time>
      </trkpt>
      <trkpt lat="46.558783371001482" lon="8.592707365751267">
        <ele>2242.8899999999999</ele>
        <time>2014-08-31T07:26:11Z</time>
      </trkpt>
      <trkpt lat="46.558893173933029" lon="8.592698983848095">
        <ele>2244.3299999999999</ele>
        <time>2014-08-31T07:26:23Z</time>
      </trkpt>
      <trkpt lat="46.558984871953726" lon="8.592742066830397">
        <ele>2247.2199999999998</ele>
        <time>2014-08-31T07:26:35Z</time>
      </trkpt>
      <trkpt lat="46.558997612446547" lon="8.59269630163908">
        <ele>2250.0999999999999</ele>
        <time>2014-08-31T07:26:46Z</time>
      </trkpt>
      <trkpt lat="46.559121077880263" lon="8.592756567522883">
        <ele>2250.5799999999999</ele>
        <time>2014-08-31T07:27:02Z</time>
      </trkpt>
      <trkpt lat="46.559156952425838" lon="8.59277936629951">
        <ele>2250.5799999999999</ele>
        <time>2014-08-31T07:27:07Z</time>
      </trkpt>
      <trkpt lat="46.559161394834518" lon="8.592783808708191">
        <ele>2250.0999999999999</ele>
        <time>2014-08-31T07:27:24Z</time>
      </trkpt>
      <trkpt lat="46.559162233024836" lon="8.592762518674135">
        <ele>2250.0999999999999</ele>
        <time>2014-08-31T07:27:47Z</time>
      </trkpt>
      <trkpt lat="46.559171704575419" lon="8.592753214761615">
        <ele>2250.0999999999999</ele>
        <time>2014-08-31T07:28:11Z</time>
      </trkpt>
      <trkpt lat="46.559169190004468" lon="8.592779282480478">
        <ele>2251.54</ele>
        <time>2014-08-31T07:28:28Z</time>
      </trkpt>
      <trkpt lat="46.559160053730011" lon="8.592769894748926">
        <ele>2250.5799999999999</ele>
        <time>2014-08-31T07:28:43Z</time>
      </trkpt>
      <trkpt lat="46.559173800051212" lon="8.592779450118542">
        <ele>2251.0599999999999</ele>
        <time>2014-08-31T07:29:16Z</time>
      </trkpt>
      <trkpt lat="46.559178493916988" lon="8.592790933325887">
        <ele>2251.0599999999999</ele>
        <time>2014-08-31T07:29:41Z</time>
      </trkpt>
      <trkpt lat="46.559182098135352" lon="8.592798560857773">
        <ele>2251.0599999999999</ele>
        <time>2014-08-31T07:30:14Z</time>
      </trkpt>
      <trkpt lat="46.559182098135352" lon="8.592788502573967">
        <ele>2251.54</ele>
        <time>2014-08-31T07:30:51Z</time>
      </trkpt>
      <trkpt lat="46.559180589392781" lon="8.592785317450762">
        <ele>2252.0300000000002</ele>
        <time>2014-08-31T07:31:20Z</time>
      </trkpt>
      <trkpt lat="46.559179332107306" lon="8.592777438461781">
        <ele>2252.9899999999998</ele>
        <time>2014-08-31T07:31:47Z</time>
      </trkpt>
      <trkpt lat="46.559160891920328" lon="8.59277106821537">
        <ele>2253.4699999999998</ele>
        <time>2014-08-31T07:31:59Z</time>
      </trkpt>
      <trkpt lat="46.559157455340028" lon="8.59276863746345">
        <ele>2253.4699999999998</ele>
        <time>2014-08-31T07:32:19Z</time>
      </trkpt>
      <trkpt lat="46.559158964082599" lon="8.592770900577307">
        <ele>2253.4699999999998</ele>
        <time>2014-08-31T07:32:34Z</time>
      </trkpt>
      <trkpt lat="46.559141278266907" lon="8.592771990224719">
        <ele>2253.4699999999998</ele>
        <time>2014-08-31T07:32:48Z</time>
      </trkpt>
      <trkpt lat="46.559134991839528" lon="8.592766122892499">
        <ele>2253.9499999999998</ele>
        <time>2014-08-31T07:33:04Z</time>
      </trkpt>
      <trkpt lat="46.559148319065571" lon="8.59276813454926">
        <ele>2254.4299999999998</ele>
        <time>2014-08-31T07:33:20Z</time>
      </trkpt>
      <trkpt lat="46.559164328500628" lon="8.592801243066788">
        <ele>2254.4299999999998</ele>
        <time>2014-08-31T07:33:36Z</time>
      </trkpt>
      <trkpt lat="46.559210177510977" lon="8.592809708788991">
        <ele>2254.4299999999998</ele>
        <time>2014-08-31T07:33:53Z</time>
      </trkpt>
      <trkpt lat="46.559178745374084" lon="8.592794537544251">
        <ele>2254.4299999999998</ele>
        <time>2014-08-31T07:34:08Z</time>
      </trkpt>
      <trkpt lat="46.559179415926337" lon="8.592814989387989">
        <ele>2254.4299999999998</ele>
        <time>2014-08-31T07:34:28Z</time>
      </trkpt>
      <trkpt lat="46.559202885255218" lon="8.592833010479808">
        <ele>2254.9099999999999</ele>
        <time>2014-08-31T07:34:44Z</time>
      </trkpt>
      <trkpt lat="46.559359291568398" lon="8.592925714328885">
        <ele>2256.3499999999999</ele>
        <time>2014-08-31T07:35:00Z</time>
      </trkpt>
      <trkpt lat="46.55943414196372" lon="8.592973407357931">
        <ele>2257.3099999999999</ele>
        <time>2014-08-31T07:35:08Z</time>
      </trkpt>
      <trkpt lat="46.559567749500275" lon="8.593056807294488">
        <ele>2257.79</ele>
        <time>2014-08-31T07:35:22Z</time>
      </trkpt>
      <trkpt lat="46.559777716174722" lon="8.593207933008671">
        <ele>2258.27</ele>
        <time>2014-08-31T07:35:41Z</time>
      </trkpt>
      <trkpt lat="46.559950970113277" lon="8.593296865001321">
        <ele>2258.27</ele>
        <time>2014-08-31T07:35:57Z</time>
      </trkpt>
      <trkpt lat="46.560140820220113" lon="8.593480093404651">
        <ele>2258.27</ele>
        <time>2014-08-31T07:36:15Z</time>
      </trkpt>
      <trkpt lat="46.56030829064548" lon="8.593629123643041">
        <ele>2257.79</ele>
        <time>2014-08-31T07:36:31Z</time>
      </trkpt>
      <trkpt lat="46.560455476865172" lon="8.593778405338526">
        <ele>2258.27</ele>
        <time>2014-08-31T07:36:46Z</time>
      </trkpt>
      <trkpt lat="46.560619929805398" lon="8.593899440020323">
        <ele>2258.75</ele>
        <time>2014-08-31T07:37:01Z</time>
      </trkpt>
      <trkpt lat="46.560806930065155" lon="8.594026509672403">
        <ele>2258.75</ele>
        <time>2014-08-31T07:37:18Z</time>
      </trkpt>
      <trkpt lat="46.560974819585681" lon="8.594142766669393">
        <ele>2258.75</ele>
        <time>2014-08-31T07:37:33Z</time>
      </trkpt>
      <trkpt lat="46.561131225898862" lon="8.594252821058035">
        <ele>2259.2399999999998</ele>
        <time>2014-08-31T07:37:51Z</time>
      </trkpt>
      <trkpt lat="46.561221415176988" lon="8.594340914860368">
        <ele>2259.2399999999998</ele>
        <time>2014-08-31T07:38:06Z</time>
      </trkpt>
      <trkpt lat="46.561418892815709" lon="8.594400091096759">
        <ele>2259.2399999999998</ele>
        <time>2014-08-31T07:38:23Z</time>
      </trkpt>
      <trkpt lat="46.561665236949921" lon="8.594460608437657">
        <ele>2259.2399999999998</ele>
        <time>2014-08-31T07:38:42Z</time>
      </trkpt>
      <trkpt lat="46.561754671856761" lon="8.594463039189577">
        <ele>2259.2399999999998</ele>
        <time>2014-08-31T07:38:50Z</time>
      </trkpt>
      <trkpt lat="46.561939576640725" lon="8.594509223476052">
        <ele>2259.2399999999998</ele>
        <time>2014-08-31T07:39:06Z</time>
      </trkpt>
      <trkpt lat="46.56212842091918" lon="8.594546271488071">
        <ele>2259.2399999999998</ele>
        <time>2014-08-31T07:39:22Z</time>
      </trkpt>
      <trkpt lat="46.562308212742209" lon="8.594559263437986">
        <ele>2259.7199999999998</ele>
        <time>2014-08-31T07:39:37Z</time>
      </trkpt>
      <trkpt lat="46.562382644042373" lon="8.594584995880723">
        <ele>2259.7199999999998</ele>
        <time>2014-08-31T07:39:44Z</time>
      </trkpt>
      <trkpt lat="46.562595712020993" lon="8.594620367512107">
        <ele>2259.7199999999998</ele>
        <time>2014-08-31T07:40:02Z</time>
      </trkpt>
      <trkpt lat="46.56282520852983" lon="8.594659008085728">
        <ele>2260.1999999999998</ele>
        <time>2014-08-31T07:40:21Z</time>
      </trkpt>
      <trkpt lat="46.563013717532158" lon="8.594750622287393">
        <ele>2260.1999999999998</ele>
        <time>2014-08-31T07:40:38Z</time>
      </trkpt>
      <trkpt lat="46.563208345323801" lon="8.594865454360843">
        <ele>2259.7199999999998</ele>
        <time>2014-08-31T07:40:55Z</time>
      </trkpt>
      <trkpt lat="46.563302977010608" lon="8.594921277835965">
        <ele>2259.7199999999998</ele>
        <time>2014-08-31T07:41:04Z</time>
      </trkpt>
      <trkpt lat="46.563504226505756" lon="8.595043066889048">
        <ele>2259.7199999999998</ele>
        <time>2014-08-31T07:41:22Z</time>
      </trkpt>
      <trkpt lat="46.563685946166515" lon="8.595204083248973">
        <ele>2259.7199999999998</ele>
        <time>2014-08-31T07:41:39Z</time>
      </trkpt>
      <trkpt lat="46.56385182403028" lon="8.595348838716745">
        <ele>2259.7199999999998</ele>
        <time>2014-08-31T07:41:55Z</time>
      </trkpt>
      <trkpt lat="46.564020048826933" lon="8.595525864511728">
        <ele>2260.1999999999998</ele>
        <time>2014-08-31T07:42:11Z</time>
      </trkpt>
      <trkpt lat="46.564147537574172" lon="8.595726359635592">
        <ele>2260.1999999999998</ele>
        <time>2014-08-31T07:42:26Z</time>
      </trkpt>
      <trkpt lat="46.564240492880344" lon="8.595941690728068">
        <ele>2260.6799999999998</ele>
        <time>2014-08-31T07:42:40Z</time>
      </trkpt>
      <trkpt lat="46.564388265833259" lon="8.596123578026891">
        <ele>2260.6799999999998</ele>
        <time>2014-08-31T07:42:56Z</time>
      </trkpt>
      <trkpt lat="46.564539559185505" lon="8.596160793676972">
        <ele>2260.6799999999998</ele>
        <time>2014-08-31T07:43:10Z</time>
      </trkpt>
      <trkpt lat="46.564531931653619" lon="8.596147382631898">
        <ele>2260.6799999999998</ele>
        <time>2014-08-31T07:43:12Z</time>
      </trkpt>
      <trkpt lat="46.56451977789402" lon="8.596125589683652">
        <ele>2261.1599999999999</ele>
        <time>2014-08-31T07:43:14Z</time>
      </trkpt>
      <trkpt lat="46.564394971355796" lon="8.59605417586863">
        <ele>2263.5599999999999</ele>
        <time>2014-08-31T07:43:28Z</time>
      </trkpt>
      <trkpt lat="46.564329592511058" lon="8.595880838111043">
        <ele>2265.96</ele>
        <time>2014-08-31T07:43:44Z</time>
      </trkpt>
      <trkpt lat="46.564331436529756" lon="8.595689898356795">
        <ele>2268.3699999999999</ele>
        <time>2014-08-31T07:44:00Z</time>
      </trkpt>
      <trkpt lat="46.564311990514398" lon="8.595595266669989">
        <ele>2268.8499999999999</ele>
        <time>2014-08-31T07:44:08Z</time>
      </trkpt>
      <trkpt lat="46.564289862290025" lon="8.595528546720743">
        <ele>2269.8099999999999</ele>
        <time>2014-08-31T07:44:14Z</time>
      </trkpt>
      <trkpt lat="46.564188105985522" lon="8.595422683283687">
        <ele>2271.73</ele>
        <time>2014-08-31T07:44:29Z</time>
      </trkpt>
      <trkpt lat="46.564103532582521" lon="8.595323357731104">
        <ele>2274.1399999999999</ele>
        <time>2014-08-31T07:44:43Z</time>
      </trkpt>
      <trkpt lat="46.564088109880686" lon="8.59525378793478">
        <ele>2275.0999999999999</ele>
        <time>2014-08-31T07:45:00Z</time>
      </trkpt>
      <trkpt lat="46.564090540632606" lon="8.595236353576183">
        <ele>2275.0999999999999</ele>
        <time>2014-08-31T07:45:01Z</time>
      </trkpt>
      <trkpt lat="46.564113758504391" lon="8.595209950581193">
        <ele>2276.0599999999999</ele>
        <time>2014-08-31T07:45:04Z</time>
      </trkpt>
      <trkpt lat="46.564238648861647" lon="8.595265103504062">
        <ele>2277.5</ele>
        <time>2014-08-31T07:45:18Z</time>
      </trkpt>
      <trkpt lat="46.56437560915947" lon="8.59531631693244">
        <ele>2279.4200000000001</ele>
        <time>2014-08-31T07:45:32Z</time>
      </trkpt>
      <trkpt lat="46.564529668539762" lon="8.595405835658312">
        <ele>2280.8699999999999</ele>
        <time>2014-08-31T07:45:49Z</time>
      </trkpt>
      <trkpt lat="46.564660174772143" lon="8.595461910590529">
        <ele>2282.79</ele>
        <time>2014-08-31T07:46:04Z</time>
      </trkpt>
      <trkpt lat="46.564788836985826" lon="8.595517566427589">
        <ele>2285.1900000000001</ele>
        <time>2014-08-31T07:46:19Z</time>
      </trkpt>
      <trkpt lat="46.564915152266622" lon="8.595621082931757">
        <ele>2287.1100000000001</ele>
        <time>2014-08-31T07:46:34Z</time>
      </trkpt>
      <trkpt lat="46.565017327666283" lon="8.595684785395861">
        <ele>2289.04</ele>
        <time>2014-08-31T07:46:48Z</time>
      </trkpt>
      <trkpt lat="46.565098548308015" lon="8.595743207260966">
        <ele>2290.96</ele>
        <time>2014-08-31T07:47:01Z</time>
      </trkpt>
      <trkpt lat="46.565208183601499" lon="8.595836833119392">
        <ele>2293.3600000000001</ele>
        <time>2014-08-31T07:47:16Z</time>
      </trkpt>
      <trkpt lat="46.565296109765768" lon="8.595909420400858">
        <ele>2296.25</ele>
        <time>2014-08-31T07:47:32Z</time>
      </trkpt>
      <trkpt lat="46.565314214676619" lon="8.595875389873982">
        <ele>2296.73</ele>
        <time>2014-08-31T07:47:37Z</time>
      </trkpt>
      <trkpt lat="46.565226120874286" lon="8.595758462324739">
        <ele>2298.1700000000001</ele>
        <time>2014-08-31T07:47:51Z</time>
      </trkpt>
      <trkpt lat="46.565245147794485" lon="8.595693418756127">
        <ele>2299.6100000000001</ele>
        <time>2014-08-31T07:48:04Z</time>
      </trkpt>
      <trkpt lat="46.565312203019857" lon="8.595711691305041">
        <ele>2302.4899999999998</ele>
        <time>2014-08-31T07:48:17Z</time>
      </trkpt>
      <trkpt lat="46.565342545509338" lon="8.595708170905709">
        <ele>2305.3800000000001</ele>
        <time>2014-08-31T07:48:28Z</time>
      </trkpt>
      <trkpt lat="46.565378168597817" lon="8.595716468989849">
        <ele>2306.3400000000001</ele>
        <time>2014-08-31T07:48:33Z</time>
      </trkpt>
      <trkpt lat="46.565436758100986" lon="8.59577271156013">
        <ele>2308.2600000000002</ele>
        <time>2014-08-31T07:48:46Z</time>
      </trkpt>
      <trkpt lat="46.56541203148663" lon="8.595726527273655">
        <ele>2309.2199999999998</ele>
        <time>2014-08-31T07:48:51Z</time>
      </trkpt>
      <trkpt lat="46.565375151112676" lon="8.59559484757483">
        <ele>2311.1500000000001</ele>
        <time>2014-08-31T07:49:05Z</time>
      </trkpt>
      <trkpt lat="46.565319327637553" lon="8.595515303313732">
        <ele>2313.0700000000002</ele>
        <time>2014-08-31T07:49:18Z</time>
      </trkpt>
      <trkpt lat="46.565303318202496" lon="8.595450511202216">
        <ele>2314.9899999999998</ele>
        <time>2014-08-31T07:49:28Z</time>
      </trkpt>
      <trkpt lat="46.565313208848238" lon="8.595371805131435">
        <ele>2317.8800000000001</ele>
        <time>2014-08-31T07:49:41Z</time>
      </trkpt>
      <trkpt lat="46.565347155556083" lon="8.595398459583521">
        <ele>2318.8400000000001</ele>
        <time>2014-08-31T07:49:51Z</time>
      </trkpt>
      <trkpt lat="46.565378755331039" lon="8.595350598916411">
        <ele>2321.2399999999998</ele>
        <time>2014-08-31T07:50:11Z</time>
      </trkpt>
      <trkpt lat="46.565385712310672" lon="8.595345066860318">
        <ele>2321.2399999999998</ele>
        <time>2014-08-31T07:50:12Z</time>
      </trkpt>
      <trkpt lat="46.565451342612505" lon="8.595340540632606">
        <ele>2323.6399999999999</ele>
        <time>2014-08-31T07:50:24Z</time>
      </trkpt>
      <trkpt lat="46.565488977357745" lon="8.595384126529098">
        <ele>2325.5700000000002</ele>
        <time>2014-08-31T07:50:34Z</time>
      </trkpt>
      <trkpt lat="46.565544884651899" lon="8.595395777374506">
        <ele>2327.4899999999998</ele>
        <time>2014-08-31T07:50:46Z</time>
      </trkpt>
      <trkpt lat="46.565581932663918" lon="8.595419079065323">
        <ele>2328.4499999999998</ele>
        <time>2014-08-31T07:51:00Z</time>
      </trkpt>
      <trkpt lat="46.565697435289621" lon="8.595548663288355">
        <ele>2329.4099999999999</ele>
        <time>2014-08-31T07:51:15Z</time>
      </trkpt>
      <trkpt lat="46.565760048106313" lon="8.595631225034595">
        <ele>2331.3299999999999</ele>
        <time>2014-08-31T07:51:29Z</time>
      </trkpt>
      <trkpt lat="46.565843867138028" lon="8.595706075429916">
        <ele>2333.7399999999998</ele>
        <time>2014-08-31T07:51:44Z</time>
      </trkpt>
      <trkpt lat="46.565923662856221" lon="8.595726527273655">
        <ele>2336.6199999999999</ele>
        <time>2014-08-31T07:51:59Z</time>
      </trkpt>
      <trkpt lat="46.565974792465568" lon="8.595833480358124">
        <ele>2339.9899999999998</ele>
        <time>2014-08-31T07:52:14Z</time>
      </trkpt>
      <trkpt lat="46.566078392788768" lon="8.595959208905697">
        <ele>2341.9099999999999</ele>
        <time>2014-08-31T07:52:31Z</time>
      </trkpt>
      <trkpt lat="46.566082583740354" lon="8.595986533910036">
        <ele>2342.3899999999999</ele>
        <time>2014-08-31T07:52:38Z</time>
      </trkpt>
      <trkpt lat="46.566106136888266" lon="8.596064737066627">
        <ele>2343.3499999999999</ele>
        <time>2014-08-31T07:52:45Z</time>
      </trkpt>
      <trkpt lat="46.566117787733674" lon="8.596117878332734">
        <ele>2344.3099999999999</ele>
        <time>2014-08-31T07:52:49Z</time>
      </trkpt>
      <trkpt lat="46.566175706684589" lon="8.596221981570125">
        <ele>2346.23</ele>
        <time>2014-08-31T07:53:02Z</time>
      </trkpt>
      <trkpt lat="46.566249718889594" lon="8.596287947148085">
        <ele>2348.1599999999999</ele>
        <time>2014-08-31T07:53:16Z</time>
      </trkpt>
      <trkpt lat="46.566310739144683" lon="8.596297251060605">
        <ele>2351.04</ele>
        <time>2014-08-31T07:53:29Z</time>
      </trkpt>
      <trkpt lat="46.566340075805783" lon="8.596330108121038">
        <ele>2353.4400000000001</ele>
        <time>2014-08-31T07:53:40Z</time>
      </trkpt>
      <trkpt lat="46.566390283405781" lon="8.596347710117698">
        <ele>2355.8499999999999</ele>
        <time>2014-08-31T07:53:53Z</time>
      </trkpt>
      <trkpt lat="46.566453063860536" lon="8.596362126991153">
        <ele>2357.77</ele>
        <time>2014-08-31T07:54:05Z</time>
      </trkpt>
      <trkpt lat="46.56651433557272" lon="8.596430942416191">
        <ele>2359.21</ele>
        <time>2014-08-31T07:54:17Z</time>
      </trkpt>
      <trkpt lat="46.566571081057191" lon="8.596482910215855">
        <ele>2361.6199999999999</ele>
        <time>2014-08-31T07:54:30Z</time>
      </trkpt>
      <trkpt lat="46.566652469336987" lon="8.596529262140393">
        <ele>2364.98</ele>
        <time>2014-08-31T07:54:48Z</time>
      </trkpt>
      <trkpt lat="46.566685326397419" lon="8.596542589366436">
        <ele>2367.3800000000001</ele>
        <time>2014-08-31T07:55:01Z</time>
      </trkpt>
      <trkpt lat="46.566702257841825" lon="8.596567483618856">
        <ele>2367.8600000000001</ele>
        <time>2014-08-31T07:55:19Z</time>
      </trkpt>
      <trkpt lat="46.566747603937984" lon="8.596587851643562">
        <ele>2368.8299999999999</ele>
        <time>2014-08-31T07:55:30Z</time>
      </trkpt>
      <trkpt lat="46.566829578951001" lon="8.596614757552743">
        <ele>2371.23</ele>
        <time>2014-08-31T07:55:44Z</time>
      </trkpt>
      <trkpt lat="46.566880205646157" lon="8.596630599349737">
        <ele>2373.1500000000001</ele>
        <time>2014-08-31T07:55:55Z</time>
      </trkpt>
      <trkpt lat="46.56691063195467" lon="8.59662339091301">
        <ele>2374.1100000000001</ele>
        <time>2014-08-31T07:56:02Z</time>
      </trkpt>
      <trkpt lat="46.566961510106921" lon="8.596691200509667">
        <ele>2377</ele>
        <time>2014-08-31T07:56:16Z</time>
      </trkpt>
      <trkpt lat="46.567002413794398" lon="8.596679801121354">
        <ele>2378.4400000000001</ele>
        <time>2014-08-31T07:56:27Z</time>
      </trkpt>
      <trkpt lat="46.566994367167354" lon="8.596690949052572">
        <ele>2379.4000000000001</ele>
        <time>2014-08-31T07:56:40Z</time>
      </trkpt>
      <trkpt lat="46.567002246156335" lon="8.596659936010838">
        <ele>2380.3600000000001</ele>
        <time>2014-08-31T07:56:52Z</time>
      </trkpt>
      <trkpt lat="46.567043652758002" lon="8.59666395932436">
        <ele>2381.8000000000002</ele>
        <time>2014-08-31T07:57:10Z</time>
      </trkpt>
      <trkpt lat="46.567109450697899" lon="8.59667032957077">
        <ele>2384.6900000000001</ele>
        <time>2014-08-31T07:57:21Z</time>
      </trkpt>
      <trkpt lat="46.567166447639465" lon="8.596698576584458">
        <ele>2386.6100000000001</ele>
        <time>2014-08-31T07:57:34Z</time>
      </trkpt>
      <trkpt lat="46.567181786522269" lon="8.596638478338718">
        <ele>2389.0100000000002</ele>
        <time>2014-08-31T07:57:45Z</time>
      </trkpt>
      <trkpt lat="46.567220678552985" lon="8.596667144447565">
        <ele>2391.4200000000001</ele>
        <time>2014-08-31T07:57:57Z</time>
      </trkpt>
      <trkpt lat="46.567241465672851" lon="8.596680471673608">
        <ele>2391.4200000000001</ele>
        <time>2014-08-31T07:58:12Z</time>
      </trkpt>
      <trkpt lat="46.567279687151313" lon="8.596692373976111">
        <ele>2392.3800000000001</ele>
        <time>2014-08-31T07:58:17Z</time>
      </trkpt>
      <trkpt lat="46.56728932633996" lon="8.596715172752738">
        <ele>2392.3800000000001</ele>
        <time>2014-08-31T07:58:19Z</time>
      </trkpt>
      <trkpt lat="46.567360572516918" lon="8.596775103360415">
        <ele>2394.3000000000002</ele>
        <time>2014-08-31T07:58:32Z</time>
      </trkpt>
      <trkpt lat="46.567379264160991" lon="8.596774013713002">
        <ele>2394.7800000000002</ele>
        <time>2014-08-31T07:58:34Z</time>
      </trkpt>
      <trkpt lat="46.567458976060152" lon="8.596860263496637">
        <ele>2396.6999999999998</ele>
        <time>2014-08-31T07:58:48Z</time>
      </trkpt>
      <trkpt lat="46.56751018948853" lon="8.596956236287952">
        <ele>2398.6300000000001</ele>
        <time>2014-08-31T07:59:00Z</time>
      </trkpt>
      <trkpt lat="46.567597445100546" lon="8.597071571275592">
        <ele>2401.0300000000002</ele>
        <time>2014-08-31T07:59:16Z</time>
      </trkpt>
      <trkpt lat="46.567652765661478" lon="8.597176177427173">
        <ele>2403.4299999999998</ele>
        <time>2014-08-31T07:59:30Z</time>
      </trkpt>
      <trkpt lat="46.567657459527254" lon="8.597201323136687">
        <ele>2403.9099999999999</ele>
        <time>2014-08-31T07:59:33Z</time>
      </trkpt>
      <trkpt lat="46.567652598023415" lon="8.597325710579753">
        <ele>2405.8400000000001</ele>
        <time>2014-08-31T07:59:46Z</time>
      </trkpt>
      <trkpt lat="46.56767388805747" lon="8.597403829917312">
        <ele>2407.7600000000002</ele>
        <time>2014-08-31T07:59:59Z</time>
      </trkpt>
      <trkpt lat="46.567694842815399" lon="8.597395028918982">
        <ele>2408.2399999999998</ele>
        <time>2014-08-31T08:00:16Z</time>
      </trkpt>
      <trkpt lat="46.567725101485848" lon="8.597345072776079">
        <ele>2410.6399999999999</ele>
        <time>2014-08-31T08:00:27Z</time>
      </trkpt>
      <trkpt lat="46.567782768979669" lon="8.597430819645524">
        <ele>2412.0900000000001</ele>
        <time>2014-08-31T08:00:37Z</time>
      </trkpt>
      <trkpt lat="46.567841190844774" lon="8.597493013367057">
        <ele>2414.4899999999998</ele>
        <time>2014-08-31T08:00:51Z</time>
      </trkpt>
      <trkpt lat="46.56789131462574" lon="8.597583621740341">
        <ele>2416.4099999999999</ele>
        <time>2014-08-31T08:01:04Z</time>
      </trkpt>
      <trkpt lat="46.567939259111881" lon="8.597635673359036">
        <ele>2419.3000000000002</ele>
        <time>2014-08-31T08:01:18Z</time>
      </trkpt>
      <trkpt lat="46.567944120615721" lon="8.597669200971723">
        <ele>2419.7800000000002</ele>
        <time>2014-08-31T08:01:21Z</time>
      </trkpt>
      <trkpt lat="46.567996004596353" lon="8.597725862637162">
        <ele>2422.6599999999999</ele>
        <time>2014-08-31T08:01:37Z</time>
      </trkpt>
      <trkpt lat="46.568036153912544" lon="8.597759054973722">
        <ele>2425.0599999999999</ele>
        <time>2014-08-31T08:01:49Z</time>
      </trkpt>
      <trkpt lat="46.568035399541259" lon="8.597793839871883">
        <ele>2426.5</ele>
        <time>2014-08-31T08:02:03Z</time>
      </trkpt>
      <trkpt lat="46.568099353462458" lon="8.597858045250177">
        <ele>2428.4299999999998</ele>
        <time>2014-08-31T08:02:17Z</time>
      </trkpt>
      <trkpt lat="46.568149141967297" lon="8.59795100055635">
        <ele>2430.3499999999999</ele>
        <time>2014-08-31T08:02:30Z</time>
      </trkpt>
      <trkpt lat="46.56819817610085" lon="8.598059881478548">
        <ele>2432.27</ele>
        <time>2014-08-31T08:02:44Z</time>
      </trkpt>
      <trkpt lat="46.56827051192522" lon="8.598157865926623">
        <ele>2435.1599999999999</ele>
        <time>2014-08-31T08:03:00Z</time>
      </trkpt>
      <trkpt lat="46.568308565765619" lon="8.598181335255504">
        <ele>2437.0799999999999</ele>
        <time>2014-08-31T08:03:09Z</time>
      </trkpt>
      <trkpt lat="46.568359611555934" lon="8.598241098225117">
        <ele>2439.96</ele>
        <time>2014-08-31T08:03:22Z</time>
      </trkpt>
      <trkpt lat="46.568390959873796" lon="8.598277643322945">
        <ele>2442.3699999999999</ele>
        <time>2014-08-31T08:03:31Z</time>
      </trkpt>
      <trkpt lat="46.568433539941907" lon="8.598350984975696">
        <ele>2443.8099999999999</ele>
        <time>2014-08-31T08:03:44Z</time>
      </trkpt>
      <trkpt lat="46.568466648459435" lon="8.598392307758331">
        <ele>2445.25</ele>
        <time>2014-08-31T08:03:51Z</time>
      </trkpt>
      <trkpt lat="46.568480562418699" lon="8.598440419882536">
        <ele>2446.21</ele>
        <time>2014-08-31T08:04:05Z</time>
      </trkpt>
      <trkpt lat="46.568543510511518" lon="8.598522143438458">
        <ele>2446.6900000000001</ele>
        <time>2014-08-31T08:04:14Z</time>
      </trkpt>
      <trkpt lat="46.568586425855756" lon="8.598619624972343">
        <ele>2447.6500000000001</ele>
        <time>2014-08-31T08:04:22Z</time>
      </trkpt>
      <trkpt lat="46.568602100014687" lon="8.59864192083478">
        <ele>2448.1300000000001</ele>
        <time>2014-08-31T08:04:31Z</time>
      </trkpt>
      <trkpt lat="46.56865163706243" lon="8.598677292466164">
        <ele>2448.6199999999999</ele>
        <time>2014-08-31T08:04:37Z</time>
      </trkpt>
      <trkpt lat="46.568742999807" lon="8.598809139803052">
        <ele>2449.5799999999999</ele>
        <time>2014-08-31T08:04:52Z</time>
      </trkpt>
      <trkpt lat="46.568797398358583" lon="8.598861359059811">
        <ele>2450.54</ele>
        <time>2014-08-31T08:05:07Z</time>
      </trkpt>
      <trkpt lat="46.568849449977279" lon="8.598919529467821">
        <ele>2451.5</ele>
        <time>2014-08-31T08:05:16Z</time>
      </trkpt>
      <trkpt lat="46.568928407505155" lon="8.599027320742607">
        <ele>2453.9000000000001</ele>
        <time>2014-08-31T08:05:29Z</time>
      </trkpt>
      <trkpt lat="46.568956067785621" lon="8.599073337391019">
        <ele>2455.3400000000001</ele>
        <time>2014-08-31T08:05:37Z</time>
      </trkpt>
      <trkpt lat="46.569016668945551" lon="8.599156485870481">
        <ele>2456.3099999999999</ele>
        <time>2014-08-31T08:05:49Z</time>
      </trkpt>
      <trkpt lat="46.56908598728478" lon="8.599221697077155">
        <ele>2457.75</ele>
        <time>2014-08-31T08:06:01Z</time>
      </trkpt>
      <trkpt lat="46.569146923720837" lon="8.599306773394346">
        <ele>2459.1900000000001</ele>
        <time>2014-08-31T08:06:14Z</time>
      </trkpt>
      <trkpt lat="46.569132842123508" lon="8.599325381219387">
        <ele>2459.6700000000001</ele>
        <time>2014-08-31T08:06:35Z</time>
      </trkpt>
      <trkpt lat="46.569162849336863" lon="8.599373158067465">
        <ele>2460.1500000000001</ele>
        <time>2014-08-31T08:06:40Z</time>
      </trkpt>
      <trkpt lat="46.56929075717926" lon="8.599521601572633">
        <ele>2462.5500000000002</ele>
        <time>2014-08-31T08:06:58Z</time>
      </trkpt>
      <trkpt lat="46.569368792697787" lon="8.599629728123546">
        <ele>2464</ele>
        <time>2014-08-31T08:07:11Z</time>
      </trkpt>
      <trkpt lat="46.569373989477754" lon="8.599629644304514">
        <ele>2464</ele>
        <time>2014-08-31T08:07:12Z</time>
      </trkpt>
      <trkpt lat="46.569441379979253" lon="8.599707847461104">
        <ele>2465.9200000000001</ele>
        <time>2014-08-31T08:07:24Z</time>
      </trkpt>
      <trkpt lat="46.569502484053373" lon="8.599815554916859">
        <ele>2467.8400000000001</ele>
        <time>2014-08-31T08:07:37Z</time>
      </trkpt>
      <trkpt lat="46.569538023322821" lon="8.599875569343567">
        <ele>2470.2399999999998</ele>
        <time>2014-08-31T08:07:49Z</time>
      </trkpt>
      <trkpt lat="46.569591499865055" lon="8.599905492737889">
        <ele>2471.6900000000001</ele>
        <time>2014-08-31T08:08:03Z</time>
      </trkpt>
      <trkpt lat="46.569569120183587" lon="8.599898451939225">
        <ele>2471.6900000000001</ele>
        <time>2014-08-31T08:08:24Z</time>
      </trkpt>
      <trkpt lat="46.569572892040014" lon="8.599958550184965">
        <ele>2472.1700000000001</ele>
        <time>2014-08-31T08:08:31Z</time>
      </trkpt>
      <trkpt lat="46.569554535672069" lon="8.599973218515515">
        <ele>2472.6500000000001</ele>
        <time>2014-08-31T08:08:45Z</time>
      </trkpt>
      <trkpt lat="46.569572221487761" lon="8.599947318434715">
        <ele>2472.6500000000001</ele>
        <time>2014-08-31T08:08:47Z</time>
      </trkpt>
      <trkpt lat="46.569678671658039" lon="8.599988976493478">
        <ele>2474.5700000000002</ele>
        <time>2014-08-31T08:09:01Z</time>
      </trkpt>
      <trkpt lat="46.569760730490088" lon="8.599986797198653">
        <ele>2476.4899999999998</ele>
        <time>2014-08-31T08:09:13Z</time>
      </trkpt>
      <trkpt lat="46.569853685796261" lon="8.59997489489615">
        <ele>2478.4200000000001</ele>
        <time>2014-08-31T08:09:27Z</time>
      </trkpt>
      <trkpt lat="46.569853182882071" lon="8.599949665367603">
        <ele>2478.9000000000001</ele>
        <time>2014-08-31T08:09:39Z</time>
      </trkpt>
      <trkpt lat="46.569847902283072" lon="8.59994756989181">
        <ele>2478.9000000000001</ele>
        <time>2014-08-31T08:09:42Z</time>
      </trkpt>
      <trkpt lat="46.569860726594925" lon="8.59985226765275">
        <ele>2480.3400000000001</ele>
        <time>2014-08-31T08:09:53Z</time>
      </trkpt>
      <trkpt lat="46.569847986102104" lon="8.599814465269446">
        <ele>2480.8200000000002</ele>
        <time>2014-08-31T08:10:07Z</time>
      </trkpt>
      <trkpt lat="46.569842454046011" lon="8.599733496084809">
        <ele>2483.2199999999998</ele>
        <time>2014-08-31T08:10:20Z</time>
      </trkpt>
      <trkpt lat="46.569885788485408" lon="8.599665937945247">
        <ele>2485.6300000000001</ele>
        <time>2014-08-31T08:10:33Z</time>
      </trkpt>
      <trkpt lat="46.569943455979228" lon="8.599617406725884">
        <ele>2487.0700000000002</ele>
        <time>2014-08-31T08:10:42Z</time>
      </trkpt>
      <trkpt lat="46.569985868409276" lon="8.599552530795336">
        <ele>2488.0300000000002</ele>
        <time>2014-08-31T08:10:50Z</time>
      </trkpt>
      <trkpt lat="46.570009086281061" lon="8.599494360387325">
        <ele>2488.9899999999998</ele>
        <time>2014-08-31T08:10:57Z</time>
      </trkpt>
      <trkpt lat="46.570078069344163" lon="8.599390760064125">
        <ele>2489.4699999999998</ele>
        <time>2014-08-31T08:11:08Z</time>
      </trkpt>
      <trkpt lat="46.570114782080054" lon="8.599326135590673">
        <ele>2489.4699999999998</ele>
        <time>2014-08-31T08:11:14Z</time>
      </trkpt>
      <trkpt lat="46.570194745436311" lon="8.599214321002364">
        <ele>2488.5100000000002</ele>
        <time>2014-08-31T08:11:28Z</time>
      </trkpt>
      <trkpt lat="46.570206144824624" lon="8.599200490862131">
        <ele>2488.0300000000002</ele>
        <time>2014-08-31T08:11:40Z</time>
      </trkpt>
      <trkpt lat="46.570203965529799" lon="8.599171321839094">
        <ele>2488.0300000000002</ele>
        <time>2014-08-31T08:11:43Z</time>
      </trkpt>
      <trkpt lat="46.570248138159513" lon="8.599067218601704">
        <ele>2487.5500000000002</ele>
        <time>2014-08-31T08:11:56Z</time>
      </trkpt>
      <trkpt lat="46.570248641073704" lon="8.599037546664476">
        <ele>2486.5900000000001</ele>
        <time>2014-08-31T08:12:07Z</time>
      </trkpt>
      <trkpt lat="46.570239756256342" lon="8.599062357097864">
        <ele>2487.5500000000002</ele>
        <time>2014-08-31T08:12:23Z</time>
      </trkpt>
      <trkpt lat="46.570177143439651" lon="8.599161598831415">
        <ele>2488.5100000000002</ele>
        <time>2014-08-31T08:12:35Z</time>
      </trkpt>
      <trkpt lat="46.570166414603591" lon="8.599245836958289">
        <ele>2488.9899999999998</ele>
        <time>2014-08-31T08:12:47Z</time>
      </trkpt>
      <trkpt lat="46.570107657462358" lon="8.599376091733575">
        <ele>2489.4699999999998</ele>
        <time>2014-08-31T08:13:01Z</time>
      </trkpt>
      <trkpt lat="46.570073291659355" lon="8.599437950178981">
        <ele>2489.9499999999998</ele>
        <time>2014-08-31T08:13:09Z</time>
      </trkpt>
      <trkpt lat="46.569961896166205" lon="8.599618496373296">
        <ele>2489.4699999999998</ele>
        <time>2014-08-31T08:13:24Z</time>
      </trkpt>
      <trkpt lat="46.56992400996387" lon="8.599680354818702">
        <ele>2488.5100000000002</ele>
        <time>2014-08-31T08:13:36Z</time>
      </trkpt>
      <trkpt lat="46.569919902831316" lon="8.599699884653091">
        <ele>2488.0300000000002</ele>
        <time>2014-08-31T08:13:51Z</time>
      </trkpt>
      <trkpt lat="46.569853434339166" lon="8.599827708676457">
        <ele>2485.6300000000001</ele>
        <time>2014-08-31T08:14:03Z</time>
      </trkpt>
      <trkpt lat="46.569836167618632" lon="8.599874395877123">
        <ele>2484.1799999999998</ele>
        <time>2014-08-31T08:14:09Z</time>
      </trkpt>
      <trkpt lat="46.569860726594925" lon="8.599907252937555">
        <ele>2482.7399999999998</ele>
        <time>2014-08-31T08:14:19Z</time>
      </trkpt>
      <trkpt lat="46.569914873689413" lon="8.599869953468442">
        <ele>2482.7399999999998</ele>
        <time>2014-08-31T08:14:28Z</time>
      </trkpt>
      <trkpt lat="46.569903641939163" lon="8.599941115826368">
        <ele>2481.7800000000002</ele>
        <time>2014-08-31T08:14:34Z</time>
      </trkpt>
      <trkpt lat="46.569879250600934" lon="8.599973469972611">
        <ele>2480.8200000000002</ele>
        <time>2014-08-31T08:14:37Z</time>
      </trkpt>
      <trkpt lat="46.56985217705369" lon="8.600035328418016">
        <ele>2478.9000000000001</ele>
        <time>2014-08-31T08:14:44Z</time>
      </trkpt>
      <trkpt lat="46.569841280579567" lon="8.60009366646409">
        <ele>2478.4200000000001</ele>
        <time>2014-08-31T08:14:48Z</time>
      </trkpt>
      <trkpt lat="46.569829462096095" lon="8.600125936791301">
        <ele>2477.9400000000001</ele>
        <time>2014-08-31T08:14:51Z</time>
      </trkpt>
      <trkpt lat="46.569849997758865" lon="8.600170779973269">
        <ele>2477.4499999999998</ele>
        <time>2014-08-31T08:14:56Z</time>
      </trkpt>
      <trkpt lat="46.569874221459031" lon="8.600208666175604">
        <ele>2477.9400000000001</ele>
        <time>2014-08-31T08:15:00Z</time>
      </trkpt>
      <trkpt lat="46.569789480417967" lon="8.600263400003314">
        <ele>2476.9699999999998</ele>
        <time>2014-08-31T08:15:07Z</time>
      </trkpt>
      <trkpt lat="46.569701721891761" lon="8.600285612046719">
        <ele>2475.5300000000002</ele>
        <time>2014-08-31T08:15:18Z</time>
      </trkpt>
      <trkpt lat="46.569705996662378" lon="8.600383680313826">
        <ele>2475.0500000000002</ele>
        <time>2014-08-31T08:15:26Z</time>
      </trkpt>
      <trkpt lat="46.569731645286083" lon="8.600536398589611">
        <ele>2476.9699999999998</ele>
        <time>2014-08-31T08:15:40Z</time>
      </trkpt>
      <trkpt lat="46.569752264767885" lon="8.600616864860058">
        <ele>2477.9400000000001</ele>
        <time>2014-08-31T08:15:50Z</time>
      </trkpt>
      <trkpt lat="46.569741703569889" lon="8.600630862638354">
        <ele>2477.9400000000001</ele>
        <time>2014-08-31T08:15:57Z</time>
      </trkpt>
      <trkpt lat="46.56975687481463" lon="8.600737899541855">
        <ele>2479.8600000000001</ele>
        <time>2014-08-31T08:16:09Z</time>
      </trkpt>
      <trkpt lat="46.569829294458032" lon="8.600824819877744">
        <ele>2482.2600000000002</ele>
        <time>2014-08-31T08:16:25Z</time>
      </trkpt>
      <trkpt lat="46.569864498451352" lon="8.60090721398592">
        <ele>2484.6599999999999</ele>
        <time>2014-08-31T08:16:38Z</time>
      </trkpt>
      <trkpt lat="46.569885201752186" lon="8.60098977573216">
        <ele>2486.5900000000001</ele>
        <time>2014-08-31T08:16:50Z</time>
      </trkpt>
      <trkpt lat="46.569879166781902" lon="8.601025315001607">
        <ele>2487.5500000000002</ele>
        <time>2014-08-31T08:17:03Z</time>
      </trkpt>
      <trkpt lat="46.569874975830317" lon="8.601096058264375">
        <ele>2488.0300000000002</ele>
        <time>2014-08-31T08:17:13Z</time>
      </trkpt>
      <trkpt lat="46.569835748523474" lon="8.601231090724468">
        <ele>2489.4699999999998</ele>
        <time>2014-08-31T08:17:28Z</time>
      </trkpt>
      <trkpt lat="46.569808423519135" lon="8.601314825937152">
        <ele>2492.8400000000001</ele>
        <time>2014-08-31T08:17:40Z</time>
      </trkpt>
      <trkpt lat="46.569801969453692" lon="8.601320022717118">
        <ele>2492.8400000000001</ele>
        <time>2014-08-31T08:17:41Z</time>
      </trkpt>
      <trkpt lat="46.569789396598935" lon="8.601394454017282">
        <ele>2493.8000000000002</ele>
        <time>2014-08-31T08:17:52Z</time>
      </trkpt>
      <trkpt lat="46.569760479032993" lon="8.6014867387712">
        <ele>2497.1599999999999</ele>
        <time>2014-08-31T08:18:06Z</time>
      </trkpt>
      <trkpt lat="46.569775315001607" lon="8.601545412093401">
        <ele>2498.5999999999999</ele>
        <time>2014-08-31T08:18:19Z</time>
      </trkpt>
      <trkpt lat="46.569802556186914" lon="8.601604169234633">
        <ele>2501.4899999999998</ele>
        <time>2014-08-31T08:18:31Z</time>
      </trkpt>
      <trkpt lat="46.569792162626982" lon="8.601675918325782">
        <ele>2502.9299999999998</ele>
        <time>2014-08-31T08:18:44Z</time>
      </trkpt>
      <trkpt lat="46.56978034414351" lon="8.601678935810924">
        <ele>2502.9299999999998</ele>
        <time>2014-08-31T08:18:56Z</time>
      </trkpt>
      <trkpt lat="46.569775566458702" lon="8.601762922480702">
        <ele>2506.29</ele>
        <time>2014-08-31T08:19:08Z</time>
      </trkpt>
      <trkpt lat="46.569781517609954" lon="8.60183609649539">
        <ele>2508.6999999999998</ele>
        <time>2014-08-31T08:19:20Z</time>
      </trkpt>
      <trkpt lat="46.569792330265045" lon="8.601899798959494">
        <ele>2511.0999999999999</ele>
        <time>2014-08-31T08:19:32Z</time>
      </trkpt>
      <trkpt lat="46.569804735481739" lon="8.6019616574049">
        <ele>2513.5</ele>
        <time>2014-08-31T08:19:45Z</time>
      </trkpt>
      <trkpt lat="46.569807166233659" lon="8.602015636861324">
        <ele>2514.9499999999998</ele>
        <time>2014-08-31T08:19:55Z</time>
      </trkpt>
      <trkpt lat="46.56981211155653" lon="8.602070789784193">
        <ele>2516.8699999999999</ele>
        <time>2014-08-31T08:20:05Z</time>
      </trkpt>
      <trkpt lat="46.569830300286412" lon="8.602058552205563">
        <ele>2517.3499999999999</ele>
        <time>2014-08-31T08:20:18Z</time>
      </trkpt>
      <trkpt lat="46.569875730201602" lon="8.602074896916747">
        <ele>2518.79</ele>
        <time>2014-08-31T08:20:32Z</time>
      </trkpt>
      <trkpt lat="46.569889392703772" lon="8.602086044847965">
        <ele>2519.27</ele>
        <time>2014-08-31T08:20:56Z</time>
      </trkpt>
      <trkpt lat="46.569881094619632" lon="8.602113872766495">
        <ele>2520.23</ele>
        <time>2014-08-31T08:21:01Z</time>
      </trkpt>
      <trkpt lat="46.569922585040331" lon="8.602143377065659">
        <ele>2522.6399999999999</ele>
        <time>2014-08-31T08:21:13Z</time>
      </trkpt>
      <trkpt lat="46.56993574462831" lon="8.602195847779512">
        <ele>2525.04</ele>
        <time>2014-08-31T08:21:27Z</time>
      </trkpt>
      <trkpt lat="46.569936163723469" lon="8.602208755910397">
        <ele>2526.96</ele>
        <time>2014-08-31T08:21:39Z</time>
      </trkpt>
      <trkpt lat="46.569886207580566" lon="8.602222418412566">
        <ele>2526</ele>
        <time>2014-08-31T08:21:54Z</time>
      </trkpt>
      <trkpt lat="46.569854188710451" lon="8.602174557745457">
        <ele>2524.5599999999999</ele>
        <time>2014-08-31T08:22:07Z</time>
      </trkpt>
      <trkpt lat="46.569808926433325" lon="8.602146646007896">
        <ele>2523.1199999999999</ele>
        <time>2014-08-31T08:22:19Z</time>
      </trkpt>
      <trkpt lat="46.569842034950852" lon="8.602105909958482">
        <ele>2522.6399999999999</ele>
        <time>2014-08-31T08:22:22Z</time>
      </trkpt>
      <trkpt lat="46.569810686632991" lon="8.602076321840286">
        <ele>2519.75</ele>
        <time>2014-08-31T08:22:33Z</time>
      </trkpt>
      <trkpt lat="46.569787552580237" lon="8.602070789784193">
        <ele>2518.79</ele>
        <time>2014-08-31T08:22:37Z</time>
      </trkpt>
      <trkpt lat="46.569716054946184" lon="8.602071879431605">
        <ele>2518.79</ele>
        <time>2014-08-31T08:22:48Z</time>
      </trkpt>
      <trkpt lat="46.569652101024985" lon="8.602085541933775">
        <ele>2519.75</ele>
        <time>2014-08-31T08:23:00Z</time>
      </trkpt>
      <trkpt lat="46.569613544270396" lon="8.602109514176846">
        <ele>2521.6799999999998</ele>
        <time>2014-08-31T08:23:13Z</time>
      </trkpt>
      <trkpt lat="46.569559313356876" lon="8.602078165858984">
        <ele>2523.1199999999999</ele>
        <time>2014-08-31T08:23:24Z</time>
      </trkpt>
      <trkpt lat="46.56956291757524" lon="8.602109514176846">
        <ele>2525.52</ele>
        <time>2014-08-31T08:23:38Z</time>
      </trkpt>
      <trkpt lat="46.569510698318481" lon="8.602082272991538">
        <ele>2527.9200000000001</ele>
        <time>2014-08-31T08:23:48Z</time>
      </trkpt>
      <trkpt lat="46.569467028602958" lon="8.602090906351805">
        <ele>2529.8499999999999</ele>
        <time>2014-08-31T08:24:01Z</time>
      </trkpt>
      <trkpt lat="46.569438446313143" lon="8.6021136213094">
        <ele>2532.73</ele>
        <time>2014-08-31T08:24:14Z</time>
      </trkpt>
      <trkpt lat="46.569379270076752" lon="8.602136755362153">
        <ele>2534.6500000000001</ele>
        <time>2014-08-31T08:24:25Z</time>
      </trkpt>
      <trkpt lat="46.569314813241363" lon="8.602176820859313">
        <ele>2537.0599999999999</ele>
        <time>2014-08-31T08:24:38Z</time>
      </trkpt>
      <trkpt lat="46.569277681410313" lon="8.602219736203551">
        <ele>2538.98</ele>
        <time>2014-08-31T08:24:50Z</time>
      </trkpt>
      <trkpt lat="46.569258654490113" lon="8.602255526930094">
        <ele>2541.8600000000001</ele>
        <time>2014-08-31T08:25:03Z</time>
      </trkpt>
      <trkpt lat="46.569235101342201" lon="8.602309757843614">
        <ele>2544.75</ele>
        <time>2014-08-31T08:25:17Z</time>
      </trkpt>
      <trkpt lat="46.569216409698129" lon="8.602381255477667">
        <ele>2546.6700000000001</ele>
        <time>2014-08-31T08:25:31Z</time>
      </trkpt>
      <trkpt lat="46.569182043895125" lon="8.602416375651956">
        <ele>2547.6300000000001</ele>
        <time>2014-08-31T08:25:36Z</time>
      </trkpt>
      <trkpt lat="46.569148851558566" lon="8.60244152136147">
        <ele>2547.6300000000001</ele>
        <time>2014-08-31T08:25:49Z</time>
      </trkpt>
      <trkpt lat="46.569130914285779" lon="8.602439761161804">
        <ele>2547.6300000000001</ele>
        <time>2014-08-31T08:26:06Z</time>
      </trkpt>
      <trkpt lat="46.569119431078434" lon="8.602514946833253">
        <ele>2548.5900000000001</ele>
        <time>2014-08-31T08:26:24Z</time>
      </trkpt>
      <trkpt lat="46.569084813818336" lon="8.602559538558126">
        <ele>2551</ele>
        <time>2014-08-31T08:26:34Z</time>
      </trkpt>
      <trkpt lat="46.569084478542209" lon="8.602602537721396">
        <ele>2552.4400000000001</ele>
        <time>2014-08-31T08:26:42Z</time>
      </trkpt>
      <trkpt lat="46.569027313962579" lon="8.602652661502361">
        <ele>2553.8800000000001</ele>
        <time>2014-08-31T08:26:55Z</time>
      </trkpt>
      <trkpt lat="46.5690175909549" lon="8.602669425308704">
        <ele>2553.8800000000001</ele>
        <time>2014-08-31T08:27:14Z</time>
      </trkpt>
      <trkpt lat="46.569042652845383" lon="8.602643357589841">
        <ele>2553.8800000000001</ele>
        <time>2014-08-31T08:27:33Z</time>
      </trkpt>
      <trkpt lat="46.569052711129189" lon="8.602637741714716">
        <ele>2553.8800000000001</ele>
        <time>2014-08-31T08:27:52Z</time>
      </trkpt>
      <trkpt lat="46.56906352378428" lon="8.602648470550776">
        <ele>2554.3600000000001</ele>
        <time>2014-08-31T08:28:14Z</time>
      </trkpt>
      <trkpt lat="46.569058327004313" lon="8.602643022313714">
        <ele>2554.3600000000001</ele>
        <time>2014-08-31T08:28:32Z</time>
      </trkpt>
      <trkpt lat="46.569053465500474" lon="8.602645369246602">
        <ele>2554.3600000000001</ele>
        <time>2014-08-31T08:28:51Z</time>
      </trkpt>
      <trkpt lat="46.569052711129189" lon="8.602629192173481">
        <ele>2554.3600000000001</ele>
        <time>2014-08-31T08:29:11Z</time>
      </trkpt>
      <trkpt lat="46.569052208214998" lon="8.602642854675651">
        <ele>2554.8400000000001</ele>
        <time>2014-08-31T08:29:33Z</time>
      </trkpt>
      <trkpt lat="46.569045167416334" lon="8.602652410045266">
        <ele>2554.8400000000001</ele>
        <time>2014-08-31T08:29:51Z</time>
      </trkpt>
      <trkpt lat="46.569075426086783" lon="8.602690631523728">
        <ele>2555.3200000000002</ele>
        <time>2014-08-31T08:30:07Z</time>
      </trkpt>
      <trkpt lat="46.569110127165914" lon="8.602770008146763">
        <ele>2555.3200000000002</ele>
        <time>2014-08-31T08:30:20Z</time>
      </trkpt>
      <trkpt lat="46.569107277318835" lon="8.602758022025228">
        <ele>2556.7600000000002</ele>
        <time>2014-08-31T08:30:23Z</time>
      </trkpt>
      <trkpt lat="46.569108869880438" lon="8.602747293189168">
        <ele>2556.7600000000002</ele>
        <time>2014-08-31T08:30:49Z</time>
      </trkpt>
      <trkpt lat="46.569103002548218" lon="8.602788113057613">
        <ele>2557.2399999999998</ele>
        <time>2014-08-31T08:31:06Z</time>
      </trkpt>
      <trkpt lat="46.569103673100471" lon="8.602756094187498">
        <ele>2557.2399999999998</ele>
        <time>2014-08-31T08:31:21Z</time>
      </trkpt>
      <trkpt lat="46.569133596494794" lon="8.602755088359118">
        <ele>2557.2399999999998</ele>
        <time>2014-08-31T08:31:41Z</time>
      </trkpt>
      <trkpt lat="46.569130746647716" lon="8.602871429175139">
        <ele>2560.1300000000001</ele>
        <time>2014-08-31T08:31:53Z</time>
      </trkpt>
      <trkpt lat="46.569101242348552" lon="8.60293990932405">
        <ele>2560.6100000000001</ele>
        <time>2014-08-31T08:32:06Z</time>
      </trkpt>
      <trkpt lat="46.56917835585773" lon="8.602908812463284">
        <ele>2562.5300000000002</ele>
        <time>2014-08-31T08:32:20Z</time>
      </trkpt>
      <trkpt lat="46.569215068593621" lon="8.602929431945086">
        <ele>2563.9699999999998</ele>
        <time>2014-08-31T08:32:33Z</time>
      </trkpt>
      <trkpt lat="46.569217666983604" lon="8.602926833555102">
        <ele>2563.9699999999998</ele>
        <time>2014-08-31T08:32:49Z</time>
      </trkpt>
      <trkpt lat="46.569205177947879" lon="8.602964971214533">
        <ele>2564.4499999999998</ele>
        <time>2014-08-31T08:33:11Z</time>
      </trkpt>
      <trkpt lat="46.569211296737194" lon="8.60304250381887">
        <ele>2565.9000000000001</ele>
        <time>2014-08-31T08:33:24Z</time>
      </trkpt>
      <trkpt lat="46.569241639226675" lon="8.603051472455263">
        <ele>2567.3400000000001</ele>
        <time>2014-08-31T08:33:36Z</time>
      </trkpt>
      <trkpt lat="46.56927608884871" lon="8.603121628984809">
        <ele>2569.2600000000002</ele>
        <time>2014-08-31T08:33:49Z</time>
      </trkpt>
      <trkpt lat="46.569349430501461" lon="8.603206621482968">
        <ele>2571.6599999999999</ele>
        <time>2014-08-31T08:34:04Z</time>
      </trkpt>
      <trkpt lat="46.569363847374916" lon="8.603309551253915">
        <ele>2573.5900000000001</ele>
        <time>2014-08-31T08:34:18Z</time>
      </trkpt>
      <trkpt lat="46.569389998912811" lon="8.603412732481957">
        <ele>2575.5100000000002</ele>
        <time>2014-08-31T08:34:33Z</time>
      </trkpt>
      <trkpt lat="46.569462586194277" lon="8.603465287014842">
        <ele>2577.9099999999999</ele>
        <time>2014-08-31T08:34:48Z</time>
      </trkpt>
      <trkpt lat="46.569525953382254" lon="8.603440895676613">
        <ele>2580.8000000000002</ele>
        <time>2014-08-31T08:35:05Z</time>
      </trkpt>
      <trkpt lat="46.569568449631333" lon="8.603416504338384">
        <ele>2583.1999999999998</ele>
        <time>2014-08-31T08:35:20Z</time>
      </trkpt>
      <trkpt lat="46.569602815434337" lon="8.603441147133708">
        <ele>2584.6399999999999</ele>
        <time>2014-08-31T08:35:31Z</time>
      </trkpt>
      <trkpt lat="46.569646568968892" lon="8.603524127975106">
        <ele>2587.04</ele>
        <time>2014-08-31T08:35:45Z</time>
      </trkpt>
      <trkpt lat="46.569694513455033" lon="8.603617502376437">
        <ele>2588.4899999999998</ele>
        <time>2014-08-31T08:36:00Z</time>
      </trkpt>
      <trkpt lat="46.569696944206953" lon="8.60372906550765">
        <ele>2590.4099999999999</ele>
        <time>2014-08-31T08:36:15Z</time>
      </trkpt>
      <trkpt lat="46.569721335545182" lon="8.603822691366077">
        <ele>2592.3299999999999</ele>
        <time>2014-08-31T08:36:28Z</time>
      </trkpt>
      <trkpt lat="46.569779422134161" lon="8.60387172549963">
        <ele>2594.7399999999998</ele>
        <time>2014-08-31T08:36:47Z</time>
      </trkpt>
      <trkpt lat="46.569829881191254" lon="8.603918496519327">
        <ele>2597.1399999999999</ele>
        <time>2014-08-31T08:37:00Z</time>
      </trkpt>
      <trkpt lat="46.569899786263704" lon="8.603965770453215">
        <ele>2599.54</ele>
        <time>2014-08-31T08:37:14Z</time>
      </trkpt>
      <trkpt lat="46.56994940713048" lon="8.604051852598786">
        <ele>2602.4299999999998</ele>
        <time>2014-08-31T08:37:28Z</time>
      </trkpt>
      <trkpt lat="46.570025598630309" lon="8.604013966396451">
        <ele>2604.8299999999999</ele>
        <time>2014-08-31T08:37:43Z</time>
      </trkpt>
      <trkpt lat="46.570032639428973" lon="8.604014553129673">
        <ele>2605.3099999999999</ele>
        <time>2014-08-31T08:37:44Z</time>
      </trkpt>
      <trkpt lat="46.570082260295749" lon="8.604105412960053">
        <ele>2606.75</ele>
        <time>2014-08-31T08:37:58Z</time>
      </trkpt>
      <trkpt lat="46.570133892819285" lon="8.604206247255206">
        <ele>2609.1599999999999</ele>
        <time>2014-08-31T08:38:10Z</time>
      </trkpt>
      <trkpt lat="46.570147136226296" lon="8.604251760989428">
        <ele>2609.6399999999999</ele>
        <time>2014-08-31T08:38:16Z</time>
      </trkpt>
      <trkpt lat="46.570165073499084" lon="8.604347901418805">
        <ele>2611.0799999999999</ele>
        <time>2014-08-31T08:38:27Z</time>
      </trkpt>
      <trkpt lat="46.570228105410933" lon="8.604478826746345">
        <ele>2614.4400000000001</ele>
        <time>2014-08-31T08:38:41Z</time>
      </trkpt>
      <trkpt lat="46.570233888924122" lon="8.604486119002104">
        <ele>2613.96</ele>
        <time>2014-08-31T08:38:42Z</time>
      </trkpt>
      <trkpt lat="46.570254173129797" lon="8.604615284129977">
        <ele>2615.8800000000001</ele>
        <time>2014-08-31T08:38:55Z</time>
      </trkpt>
      <trkpt lat="46.570290215313435" lon="8.604713855311275">
        <ele>2617.3299999999999</ele>
        <time>2014-08-31T08:39:06Z</time>
      </trkpt>
      <trkpt lat="46.570307062938809" lon="8.604797841981053">
        <ele>2617.8099999999999</ele>
        <time>2014-08-31T08:39:14Z</time>
      </trkpt>
      <trkpt lat="46.570318043231964" lon="8.604857856407762">
        <ele>2618.29</ele>
        <time>2014-08-31T08:39:30Z</time>
      </trkpt>
      <trkpt lat="46.570390462875366" lon="8.604941759258509">
        <ele>2619.73</ele>
        <time>2014-08-31T08:39:42Z</time>
      </trkpt>
      <trkpt lat="46.57044829800725" lon="8.605025326833129">
        <ele>2622.1300000000001</ele>
        <time>2014-08-31T08:39:54Z</time>
      </trkpt>
      <trkpt lat="46.570486351847649" lon="8.605093387886882">
        <ele>2623.5799999999999</ele>
        <time>2014-08-31T08:40:11Z</time>
      </trkpt>
      <trkpt lat="46.570547120645642" lon="8.6051787994802">
        <ele>2625.5</ele>
        <time>2014-08-31T08:40:23Z</time>
      </trkpt>
      <trkpt lat="46.570566399022937" lon="8.605306036770344">
        <ele>2626.46</ele>
        <time>2014-08-31T08:40:35Z</time>
      </trkpt>
      <trkpt lat="46.570601016283035" lon="8.605332104489207">
        <ele>2627.4200000000001</ele>
        <time>2014-08-31T08:40:43Z</time>
      </trkpt>
      <trkpt lat="46.570645440369844" lon="8.605369739234448">
        <ele>2628.8600000000001</ele>
        <time>2014-08-31T08:40:54Z</time>
      </trkpt>
      <trkpt lat="46.570686595514417" lon="8.605410223826766">
        <ele>2630.79</ele>
        <time>2014-08-31T08:41:05Z</time>
      </trkpt>
      <trkpt lat="46.57074979506433" lon="8.605487337335944">
        <ele>2632.71</ele>
        <time>2014-08-31T08:41:17Z</time>
      </trkpt>
      <trkpt lat="46.570754069834948" lon="8.605492450296879">
        <ele>2632.71</ele>
        <time>2014-08-31T08:41:18Z</time>
      </trkpt>
      <trkpt lat="46.570778209716082" lon="8.605498066172004">
        <ele>2633.6700000000001</ele>
        <time>2014-08-31T08:41:21Z</time>
      </trkpt>
      <trkpt lat="46.570808552205563" lon="8.605562187731266">
        <ele>2635.1100000000001</ele>
        <time>2014-08-31T08:41:30Z</time>
      </trkpt>
      <trkpt lat="46.570835206657648" lon="8.605632092803717">
        <ele>2634.6300000000001</ele>
        <time>2014-08-31T08:41:35Z</time>
      </trkpt>
      <trkpt lat="46.570862950757146" lon="8.605705266818404">
        <ele>2635.5900000000001</ele>
        <time>2014-08-31T08:41:45Z</time>
      </trkpt>
      <trkpt lat="46.570899244397879" lon="8.605772322043777">
        <ele>2637.0300000000002</ele>
        <time>2014-08-31T08:41:57Z</time>
      </trkpt>
      <trkpt lat="46.57095355913043" lon="8.605873072519898">
        <ele>2638.48</ele>
        <time>2014-08-31T08:42:11Z</time>
      </trkpt>
      <trkpt lat="46.570991529151797" lon="8.605944234877825">
        <ele>2639.9200000000001</ele>
        <time>2014-08-31T08:42:21Z</time>
      </trkpt>
      <trkpt lat="46.570989014580846" lon="8.605960076674819">
        <ele>2639.4400000000001</ele>
        <time>2014-08-31T08:42:22Z</time>
      </trkpt>
      <trkpt lat="46.571020446717739" lon="8.60607935115695">
        <ele>2640.4000000000001</ele>
        <time>2014-08-31T08:42:33Z</time>
      </trkpt>
      <trkpt lat="46.571031343191862" lon="8.606140874326229">
        <ele>2640.8800000000001</ele>
        <time>2014-08-31T08:42:41Z</time>
      </trkpt>
      <trkpt lat="46.571033773943782" lon="8.606239026412368">
        <ele>2641.3600000000001</ele>
        <time>2014-08-31T08:42:50Z</time>
      </trkpt>
      <trkpt lat="46.571062607690692" lon="8.606336340308189">
        <ele>2641.3600000000001</ele>
        <time>2014-08-31T08:43:00Z</time>
      </trkpt>
      <trkpt lat="46.571026481688023" lon="8.60641990788281">
        <ele>2638.96</ele>
        <time>2014-08-31T08:43:05Z</time>
      </trkpt>
      <trkpt lat="46.571023128926754" lon="8.606604812666774">
        <ele>2637.9899999999998</ele>
        <time>2014-08-31T08:43:19Z</time>
      </trkpt>
      <trkpt lat="46.571059003472328" lon="8.606639094650745">
        <ele>2639.4400000000001</ele>
        <time>2014-08-31T08:43:27Z</time>
      </trkpt>
      <trkpt lat="46.57107132486999" lon="8.606670275330544">
        <ele>2639.9200000000001</ele>
        <time>2014-08-31T08:43:30Z</time>
      </trkpt>
      <trkpt lat="46.571124130859971" lon="8.606810504570603">
        <ele>2640.4000000000001</ele>
        <time>2014-08-31T08:43:41Z</time>
      </trkpt>
      <trkpt lat="46.571130668744445" lon="8.606846798211336">
        <ele>2640.4000000000001</ele>
        <time>2014-08-31T08:43:44Z</time>
      </trkpt>
      <trkpt lat="46.571145504713058" lon="8.606907315552235">
        <ele>2639.4400000000001</ele>
        <time>2014-08-31T08:43:48Z</time>
      </trkpt>
      <trkpt lat="46.571170315146446" lon="8.606968251988292">
        <ele>2639.9200000000001</ele>
        <time>2014-08-31T08:43:54Z</time>
      </trkpt>
      <trkpt lat="46.571205938234925" lon="8.607060201466084">
        <ele>2640.8800000000001</ele>
        <time>2014-08-31T08:44:03Z</time>
      </trkpt>
      <trkpt lat="46.571224546059966" lon="8.607083167880774">
        <ele>2641.3600000000001</ele>
        <time>2014-08-31T08:44:06Z</time>
      </trkpt>
      <trkpt lat="46.571268551051617" lon="8.607129771262407">
        <ele>2641.8400000000001</ele>
        <time>2014-08-31T08:44:11Z</time>
      </trkpt>
      <trkpt lat="46.571275927126408" lon="8.607178553938866">
        <ele>2641.8400000000001</ele>
        <time>2014-08-31T08:44:15Z</time>
      </trkpt>
      <trkpt lat="46.571272909641266" lon="8.607216943055391">
        <ele>2642.3200000000002</ele>
        <time>2014-08-31T08:44:18Z</time>
      </trkpt>
      <trkpt lat="46.571287326514721" lon="8.607298918068409">
        <ele>2642.3200000000002</ele>
        <time>2014-08-31T08:44:24Z</time>
      </trkpt>
      <trkpt lat="46.571323787793517" lon="8.607405116781592">
        <ele>2643.2800000000002</ele>
        <time>2014-08-31T08:44:34Z</time>
      </trkpt>
      <trkpt lat="46.571361171081662" lon="8.607469573616982">
        <ele>2643.7600000000002</ele>
        <time>2014-08-31T08:44:42Z</time>
      </trkpt>
      <trkpt lat="46.571411630138755" lon="8.607567306607962">
        <ele>2644.2399999999998</ele>
        <time>2014-08-31T08:44:52Z</time>
      </trkpt>
      <trkpt lat="46.57141825184226" lon="8.60764391720295">
        <ele>2644.2399999999998</ele>
        <time>2014-08-31T08:44:57Z</time>
      </trkpt>
      <trkpt lat="46.57147197984159" lon="8.607724383473396">
        <ele>2645.21</ele>
        <time>2014-08-31T08:45:09Z</time>
      </trkpt>
      <trkpt lat="46.571512212976813" lon="8.607775596901774">
        <ele>2646.6500000000001</ele>
        <time>2014-08-31T08:45:17Z</time>
      </trkpt>
      <trkpt lat="46.571521684527397" lon="8.607868636026979">
        <ele>2646.6500000000001</ele>
        <time>2014-08-31T08:45:24Z</time>
      </trkpt>
      <trkpt lat="46.571539370343089" lon="8.607947761192918">
        <ele>2647.1300000000001</ele>
        <time>2014-08-31T08:45:32Z</time>
      </trkpt>
      <trkpt lat="46.571554038673639" lon="8.608025042340159">
        <ele>2648.0900000000001</ele>
        <time>2014-08-31T08:45:39Z</time>
      </trkpt>
      <trkpt lat="46.571579771116376" lon="8.608216317370534">
        <ele>2649.0500000000002</ele>
        <time>2014-08-31T08:45:54Z</time>
      </trkpt>
      <trkpt lat="46.571632577106357" lon="8.608305500820279">
        <ele>2650.4899999999998</ele>
        <time>2014-08-31T08:46:07Z</time>
      </trkpt>
      <trkpt lat="46.571632577106357" lon="8.60829284414649">
        <ele>2650.9699999999998</ele>
        <time>2014-08-31T08:46:28Z</time>
      </trkpt>
      <trkpt lat="46.571641713380814" lon="8.60827817581594">
        <ele>2650.9699999999998</ele>
        <time>2014-08-31T08:46:49Z</time>
      </trkpt>
      <trkpt lat="46.571685550734401" lon="8.608386302366853">
        <ele>2652.9000000000001</ele>
        <time>2014-08-31T08:47:01Z</time>
      </trkpt>
      <trkpt lat="46.571706170216203" lon="8.608465176075697">
        <ele>2654.3400000000001</ele>
        <time>2014-08-31T08:47:13Z</time>
      </trkpt>
      <trkpt lat="46.571762748062611" lon="8.608532901853323">
        <ele>2655.7800000000002</ele>
        <time>2014-08-31T08:47:24Z</time>
      </trkpt>
      <trkpt lat="46.571774315088987" lon="8.608678076416254">
        <ele>2657.2199999999998</ele>
        <time>2014-08-31T08:47:38Z</time>
      </trkpt>
      <trkpt lat="46.571792419999838" lon="8.608845714479685">
        <ele>2658.6599999999999</ele>
        <time>2014-08-31T08:47:54Z</time>
      </trkpt>
      <trkpt lat="46.571832904592156" lon="8.608959540724754">
        <ele>2660.1100000000001</ele>
        <time>2014-08-31T08:48:07Z</time>
      </trkpt>
      <trkpt lat="46.571887135505676" lon="8.609038917347789">
        <ele>2662.5100000000002</ele>
        <time>2014-08-31T08:48:19Z</time>
      </trkpt>
      <trkpt lat="46.571927033364773" lon="8.60914058983326">
        <ele>2665.3899999999999</ele>
        <time>2014-08-31T08:48:34Z</time>
      </trkpt>
      <trkpt lat="46.571954693645239" lon="8.609306802973151">
        <ele>2666.3499999999999</ele>
        <time>2014-08-31T08:48:49Z</time>
      </trkpt>
      <trkpt lat="46.571999872103333" lon="8.60937125980854">
        <ele>2668.7600000000002</ele>
        <time>2014-08-31T08:49:03Z</time>
      </trkpt>
      <trkpt lat="46.572050331160426" lon="8.609360279515386">
        <ele>2670.6799999999998</ele>
        <time>2014-08-31T08:49:15Z</time>
      </trkpt>
      <trkpt lat="46.572086624801159" lon="8.609389448538423">
        <ele>2673.5599999999999</ele>
        <time>2014-08-31T08:49:28Z</time>
      </trkpt>
      <trkpt lat="46.572136916220188" lon="8.609472932294011">
        <ele>2675.9699999999998</ele>
        <time>2014-08-31T08:49:40Z</time>
      </trkpt>
      <trkpt lat="46.572156110778451" lon="8.609563456848264">
        <ele>2678.3699999999999</ele>
        <time>2014-08-31T08:49:53Z</time>
      </trkpt>
      <trkpt lat="46.572164325043559" lon="8.609654987230897">
        <ele>2679.8099999999999</ele>
        <time>2014-08-31T08:50:06Z</time>
      </trkpt>
      <trkpt lat="46.572193074971437" lon="8.609770322218537">
        <ele>2682.6999999999998</ele>
        <time>2014-08-31T08:50:22Z</time>
      </trkpt>
      <trkpt lat="46.572195924818516" lon="8.609867636114359">
        <ele>2684.6199999999999</ele>
        <time>2014-08-31T08:50:34Z</time>
      </trkpt>
      <trkpt lat="46.572207910940051" lon="8.609922705218196">
        <ele>2685.5799999999999</ele>
        <time>2014-08-31T08:50:44Z</time>
      </trkpt>
      <trkpt lat="46.572234481573105" lon="8.609995292499661">
        <ele>2687.98</ele>
        <time>2014-08-31T08:50:57Z</time>
      </trkpt>
      <trkpt lat="46.572243282571435" lon="8.610046422109008">
        <ele>2690.8699999999999</ele>
        <time>2014-08-31T08:51:09Z</time>
      </trkpt>
      <trkpt lat="46.572241354733706" lon="8.610052792355418">
        <ele>2691.3499999999999</ele>
        <time>2014-08-31T08:51:24Z</time>
      </trkpt>
      <trkpt lat="46.572275636717677" lon="8.610095037147403">
        <ele>2692.3099999999999</ele>
        <time>2014-08-31T08:51:42Z</time>
      </trkpt>
      <trkpt lat="46.572293825447559" lon="8.610112220048904">
        <ele>2693.75</ele>
        <time>2014-08-31T08:51:52Z</time>
      </trkpt>
      <trkpt lat="46.572326179593801" lon="8.610161673277617">
        <ele>2696.6399999999999</ele>
        <time>2014-08-31T08:52:03Z</time>
      </trkpt>
      <trkpt lat="46.572348056361079" lon="8.610246749594808">
        <ele>2699.04</ele>
        <time>2014-08-31T08:52:16Z</time>
      </trkpt>
      <trkpt lat="46.572360629215837" lon="8.610312044620514">
        <ele>2700.96</ele>
        <time>2014-08-31T08:52:27Z</time>
      </trkpt>
      <trkpt lat="46.572356857359409" lon="8.610389325767756">
        <ele>2703.3600000000001</ele>
        <time>2014-08-31T08:52:39Z</time>
      </trkpt>
      <trkpt lat="46.572406813502312" lon="8.61040567047894">
        <ele>2704.8099999999999</ele>
        <time>2014-08-31T08:52:49Z</time>
      </trkpt>
      <trkpt lat="46.572419218719006" lon="8.610414722934365">
        <ele>2705.29</ele>
        <time>2014-08-31T08:53:06Z</time>
      </trkpt>
      <trkpt lat="46.572424247860909" lon="8.610418075695634">
        <ele>2705.77</ele>
        <time>2014-08-31T08:53:20Z</time>
      </trkpt>
      <trkpt lat="46.572456015273929" lon="8.610431319102645">
        <ele>2706.25</ele>
        <time>2014-08-31T08:53:36Z</time>
      </trkpt>
      <trkpt lat="46.57248493283987" lon="8.610488902777433">
        <ele>2708.6500000000001</ele>
        <time>2014-08-31T08:53:46Z</time>
      </trkpt>
      <trkpt lat="46.57252449542284" lon="8.61055226996541">
        <ele>2710.5700000000002</ele>
        <time>2014-08-31T08:53:58Z</time>
      </trkpt>
      <trkpt lat="46.572571685537696" lon="8.610618319362402">
        <ele>2712.5</ele>
        <time>2014-08-31T08:54:11Z</time>
      </trkpt>
      <trkpt lat="46.572563471272588" lon="8.610725859180093">
        <ele>2713.9400000000001</ele>
        <time>2014-08-31T08:54:24Z</time>
      </trkpt>
      <trkpt lat="46.572608230635524" lon="8.610756704583764">
        <ele>2716.3400000000001</ele>
        <time>2014-08-31T08:54:35Z</time>
      </trkpt>
      <trkpt lat="46.572642344981432" lon="8.6108273640275">
        <ele>2719.71</ele>
        <time>2014-08-31T08:54:48Z</time>
      </trkpt>
      <trkpt lat="46.572670424357057" lon="8.610916044563055">
        <ele>2720.6700000000001</ele>
        <time>2014-08-31T08:55:02Z</time>
      </trkpt>
      <trkpt lat="46.572668831795454" lon="8.610987961292267">
        <ele>2723.0700000000002</ele>
        <time>2014-08-31T08:55:12Z</time>
      </trkpt>
      <trkpt lat="46.572704538702965" lon="8.611039761453867">
        <ele>2724.9899999999998</ele>
        <time>2014-08-31T08:55:24Z</time>
      </trkpt>
      <trkpt lat="46.572727169841528" lon="8.611139422282577">
        <ele>2726.4400000000001</ele>
        <time>2014-08-31T08:55:36Z</time>
      </trkpt>
      <trkpt lat="46.572730103507638" lon="8.611233634874225">
        <ele>2728.8400000000001</ele>
        <time>2014-08-31T08:55:49Z</time>
      </trkpt>
      <trkpt lat="46.572754243388772" lon="8.611317118629813">
        <ele>2731.2399999999998</ele>
        <time>2014-08-31T08:56:04Z</time>
      </trkpt>
      <trkpt lat="46.57280889339745" lon="8.611381994560361">
        <ele>2733.6500000000001</ele>
        <time>2014-08-31T08:56:21Z</time>
      </trkpt>
      <trkpt lat="46.572778131812811" lon="8.611495569348335">
        <ele>2736.0500000000002</ele>
        <time>2014-08-31T08:56:37Z</time>
      </trkpt>
      <trkpt lat="46.572782071307302" lon="8.611596319824457">
        <ele>2739.4099999999999</ele>
        <time>2014-08-31T08:56:57Z</time>
      </trkpt>
      <trkpt lat="46.572787016630173" lon="8.611689023673534">
        <ele>2741.3400000000001</ele>
        <time>2014-08-31T08:57:12Z</time>
      </trkpt>
      <trkpt lat="46.572793135419488" lon="8.6117650475353">
        <ele>2744.2199999999998</ele>
        <time>2014-08-31T08:57:27Z</time>
      </trkpt>
      <trkpt lat="46.572839068248868" lon="8.611797150224447">
        <ele>2746.1399999999999</ele>
        <time>2014-08-31T08:57:40Z</time>
      </trkpt>
      <trkpt lat="46.572834709659219" lon="8.61186571419239">
        <ele>2749.5100000000002</ele>
        <time>2014-08-31T08:57:52Z</time>
      </trkpt>
      <trkpt lat="46.572839571163058" lon="8.611880131065846">
        <ele>2749.5100000000002</ele>
        <time>2014-08-31T08:58:03Z</time>
      </trkpt>
      <trkpt lat="46.572821969166398" lon="8.611889183521271">
        <ele>2749.5100000000002</ele>
        <time>2014-08-31T08:58:22Z</time>
      </trkpt>
      <trkpt lat="46.572819203138351" lon="8.611894799396396">
        <ele>2749.0300000000002</ele>
        <time>2014-08-31T08:58:25Z</time>
      </trkpt>
      <trkpt lat="46.572810653597116" lon="8.611899074167013">
        <ele>2749.0300000000002</ele>
        <time>2014-08-31T08:58:37Z</time>
      </trkpt>
      <trkpt lat="46.572793638333678" lon="8.611986665055156">
        <ele>2749.0300000000002</ele>
        <time>2014-08-31T08:59:08Z</time>
      </trkpt>
      <trkpt lat="46.572792213410139" lon="8.612005021423101">
        <ele>2749.0300000000002</ele>
        <time>2014-08-31T08:59:32Z</time>
      </trkpt>
      <trkpt lat="46.572797745466232" lon="8.612013570964336">
        <ele>2749.5100000000002</ele>
        <time>2014-08-31T09:00:03Z</time>
      </trkpt>
      <trkpt lat="46.572797577828169" lon="8.611957831308246">
        <ele>2749.5100000000002</ele>
        <time>2014-08-31T09:00:42Z</time>
      </trkpt>
      <trkpt lat="46.572809396311641" lon="8.612000914290547">
        <ele>2749.9899999999998</ele>
        <time>2014-08-31T09:01:11Z</time>
      </trkpt>
      <trkpt lat="46.572817694395781" lon="8.612000579014421">
        <ele>2749.9899999999998</ele>
        <time>2014-08-31T09:01:49Z</time>
      </trkpt>
      <trkpt lat="46.572817694395781" lon="8.611954981461167">
        <ele>2749.9899999999998</ele>
        <time>2014-08-31T09:02:15Z</time>
      </trkpt>
      <trkpt lat="46.572813587263227" lon="8.611964788287878">
        <ele>2749.9899999999998</ele>
        <time>2014-08-31T09:02:38Z</time>
      </trkpt>
      <trkpt lat="46.572811994701624" lon="8.611967973411083">
        <ele>2750.9499999999998</ele>
        <time>2014-08-31T09:03:01Z</time>
      </trkpt>
      <trkpt lat="46.57285382039845" lon="8.611883232370019">
        <ele>2750.9499999999998</ele>
        <time>2014-08-31T09:03:16Z</time>
      </trkpt>
      <trkpt lat="46.572840744629502" lon="8.611903181299567">
        <ele>2750.4699999999998</ele>
        <time>2014-08-31T09:03:32Z</time>
      </trkpt>
      <trkpt lat="46.57281132414937" lon="8.611913323402405">
        <ele>2749.9899999999998</ele>
        <time>2014-08-31T09:04:04Z</time>
      </trkpt>
      <trkpt lat="46.572791794314981" lon="8.611914245411754">
        <ele>2749.9899999999998</ele>
        <time>2014-08-31T09:04:38Z</time>
      </trkpt>
      <trkpt lat="46.572825405746698" lon="8.61194190569222">
        <ele>2749.9899999999998</ele>
        <time>2014-08-31T09:05:21Z</time>
      </trkpt>
      <trkpt lat="46.572821298614144" lon="8.611907036975026">
        <ele>2749.9899999999998</ele>
        <time>2014-08-31T09:06:00Z</time>
      </trkpt>
      <trkpt lat="46.572860945016146" lon="8.611888261511922">
        <ele>2751.4299999999998</ele>
        <time>2014-08-31T09:06:22Z</time>
      </trkpt>
      <trkpt lat="46.572838649153709" lon="8.611920280382037">
        <ele>2750.4699999999998</ele>
        <time>2014-08-31T09:06:46Z</time>
      </trkpt>
      <trkpt lat="46.572824735194445" lon="8.611943665891886">
        <ele>2750.4699999999998</ele>
        <time>2014-08-31T09:07:09Z</time>
      </trkpt>
      <trkpt lat="46.572811072692275" lon="8.611944084987044">
        <ele>2750.4699999999998</ele>
        <time>2014-08-31T09:07:36Z</time>
      </trkpt>
      <trkpt lat="46.572809480130672" lon="8.61195414327085">
        <ele>2750.4699999999998</ele>
        <time>2014-08-31T09:08:07Z</time>
      </trkpt>
      <trkpt lat="46.572819873690605" lon="8.611964704468846">
        <ele>2750.4699999999998</ele>
        <time>2014-08-31T09:08:36Z</time>
      </trkpt>
      <trkpt lat="46.572820879518986" lon="8.611926231533289">
        <ele>2751.4299999999998</ele>
        <time>2014-08-31T09:08:59Z</time>
      </trkpt>
      <trkpt lat="46.572836050763726" lon="8.611895805224776">
        <ele>2751.4299999999998</ele>
        <time>2014-08-31T09:09:31Z</time>
      </trkpt>
      <trkpt lat="46.572867147624493" lon="8.611897900700569">
        <ele>2751.4299999999998</ele>
        <time>2014-08-31T09:09:50Z</time>
      </trkpt>
      <trkpt lat="46.572863291949034" lon="8.611896727234125">
        <ele>2751.4299999999998</ele>
        <time>2014-08-31T09:10:14Z</time>
      </trkpt>
      <trkpt lat="46.572823310270905" lon="8.611883483827114">
        <ele>2751.4299999999998</ele>
        <time>2014-08-31T09:10:42Z</time>
      </trkpt>
      <trkpt lat="46.572800511494279" lon="8.611880801618099">
        <ele>2751.4299999999998</ele>
        <time>2014-08-31T09:11:18Z</time>
      </trkpt>
      <trkpt lat="46.572800008580089" lon="8.611881220713258">
        <ele>2751.4299999999998</ele>
        <time>2014-08-31T09:11:59Z</time>
      </trkpt>
      <trkpt lat="46.572819538414478" lon="8.611894799396396">
        <ele>2751.4299999999998</ele>
        <time>2014-08-31T09:12:33Z</time>
      </trkpt>
      <trkpt lat="46.572821801528335" lon="8.611884154379368">
        <ele>2751.4299999999998</ele>
        <time>2014-08-31T09:13:12Z</time>
      </trkpt>
      <trkpt lat="46.572829009965062" lon="8.611872838810086">
        <ele>2751.4299999999998</ele>
        <time>2014-08-31T09:13:53Z</time>
      </trkpt>
      <trkpt lat="46.572839068248868" lon="8.611891949549317">
        <ele>2751.9099999999999</ele>
        <time>2014-08-31T09:14:22Z</time>
      </trkpt>
      <trkpt lat="46.572830602526665" lon="8.611928578466177">
        <ele>2752.3899999999999</ele>
        <time>2014-08-31T09:14:34Z</time>
      </trkpt>
      <trkpt lat="46.572830518707633" lon="8.61192287877202">
        <ele>2752.3899999999999</ele>
        <time>2014-08-31T09:14:52Z</time>
      </trkpt>
      <trkpt lat="46.572863291949034" lon="8.611930506303906">
        <ele>2752.3899999999999</ele>
        <time>2014-08-31T09:15:08Z</time>
      </trkpt>
      <trkpt lat="46.572909392416477" lon="8.61196830868721">
        <ele>2753.8299999999999</ele>
        <time>2014-08-31T09:15:21Z</time>
      </trkpt>
      <trkpt lat="46.57296915538609" lon="8.611973421648145">
        <ele>2755.7600000000002</ele>
        <time>2014-08-31T09:15:34Z</time>
      </trkpt>
      <trkpt lat="46.572977369651198" lon="8.612111303955317">
        <ele>2757.6799999999998</ele>
        <time>2014-08-31T09:15:47Z</time>
      </trkpt>
      <trkpt lat="46.572987344115973" lon="8.612210629507899">
        <ele>2760.5599999999999</ele>
        <time>2014-08-31T09:16:02Z</time>
      </trkpt>
      <trkpt lat="46.572987511754036" lon="8.612321438267827">
        <ele>2762.4899999999998</ele>
        <time>2014-08-31T09:16:15Z</time>
      </trkpt>
      <trkpt lat="46.572949374094605" lon="8.612422943115234">
        <ele>2764.8899999999999</ele>
        <time>2014-08-31T09:16:30Z</time>
      </trkpt>
      <trkpt lat="46.573000336065888" lon="8.612461164593697">
        <ele>2767.29</ele>
        <time>2014-08-31T09:16:43Z</time>
      </trkpt>
      <trkpt lat="46.573014417663217" lon="8.612548420205712">
        <ele>2770.1799999999998</ele>
        <time>2014-08-31T09:16:59Z</time>
      </trkpt>
      <trkpt lat="46.573021877557039" lon="8.612642381340265">
        <ele>2771.6199999999999</ele>
        <time>2014-08-31T09:17:13Z</time>
      </trkpt>
      <trkpt lat="46.573001341894269" lon="8.612757129594684">
        <ele>2773.0599999999999</ele>
        <time>2014-08-31T09:17:26Z</time>
      </trkpt>
      <trkpt lat="46.573016596958041" lon="8.612838601693511">
        <ele>2774.98</ele>
        <time>2014-08-31T09:17:39Z</time>
      </trkpt>
      <trkpt lat="46.57306931912899" lon="8.612874392420054">
        <ele>2776.9099999999999</ele>
        <time>2014-08-31T09:17:52Z</time>
      </trkpt>
      <trkpt lat="46.573096308857203" lon="8.612900963053107">
        <ele>2777.8699999999999</ele>
        <time>2014-08-31T09:17:57Z</time>
      </trkpt>
      <trkpt lat="46.573179457336664" lon="8.612912781536579">
        <ele>2779.79</ele>
        <time>2014-08-31T09:18:12Z</time>
      </trkpt>
      <trkpt lat="46.573191108182073" lon="8.612945973873138">
        <ele>2781.23</ele>
        <time>2014-08-31T09:18:24Z</time>
      </trkpt>
      <trkpt lat="46.57324030995369" lon="8.612858969718218">
        <ele>2782.6700000000001</ele>
        <time>2014-08-31T09:18:40Z</time>
      </trkpt>
      <trkpt lat="46.573264198377728" lon="8.612772887572646">
        <ele>2784.5999999999999</ele>
        <time>2014-08-31T09:18:53Z</time>
      </trkpt>
      <trkpt lat="46.573301497846842" lon="8.612656965851784">
        <ele>2786.04</ele>
        <time>2014-08-31T09:19:06Z</time>
      </trkpt>
      <trkpt lat="46.573365954682231" lon="8.612647913396359">
        <ele>2787.48</ele>
        <time>2014-08-31T09:19:18Z</time>
      </trkpt>
      <trkpt lat="46.573407277464867" lon="8.612645566463471">
        <ele>2788.9200000000001</ele>
        <time>2014-08-31T09:19:25Z</time>
      </trkpt>
      <trkpt lat="46.573457317426801" lon="8.612653948366642">
        <ele>2790.3600000000001</ele>
        <time>2014-08-31T09:19:38Z</time>
      </trkpt>
      <trkpt lat="46.57347097992897" lon="8.612640034407377">
        <ele>2792.29</ele>
        <time>2014-08-31T09:19:42Z</time>
      </trkpt>
      <trkpt lat="46.573502160608768" lon="8.612659899517894">
        <ele>2793.25</ele>
        <time>2014-08-31T09:19:52Z</time>
      </trkpt>
      <trkpt lat="46.573569718748331" lon="8.612653780728579">
        <ele>2795.6500000000001</ele>
        <time>2014-08-31T09:20:04Z</time>
      </trkpt>
      <trkpt lat="46.573589416220784" lon="8.612626707181335">
        <ele>2797.5700000000002</ele>
        <time>2014-08-31T09:20:16Z</time>
      </trkpt>
      <trkpt lat="46.573587907478213" lon="8.612583205103874">
        <ele>2798.54</ele>
        <time>2014-08-31T09:20:24Z</time>
      </trkpt>
      <trkpt lat="46.57361020334065" lon="8.612600220367312">
        <ele>2798.0500000000002</ele>
        <time>2014-08-31T09:20:35Z</time>
      </trkpt>
      <trkpt lat="46.573620513081551" lon="8.612589910626411">
        <ele>2798.0500000000002</ele>
        <time>2014-08-31T09:20:43Z</time>
      </trkpt>
      <trkpt lat="46.573627050966024" lon="8.61255663447082">
        <ele>2799.5</ele>
        <time>2014-08-31T09:20:54Z</time>
      </trkpt>
      <trkpt lat="46.573691423982382" lon="8.612484969198704">
        <ele>2801.9000000000001</ele>
        <time>2014-08-31T09:21:08Z</time>
      </trkpt>
      <trkpt lat="46.573757557198405" lon="8.612468205392361">
        <ele>2804.7800000000002</ele>
        <time>2014-08-31T09:21:23Z</time>
      </trkpt>
      <trkpt lat="46.573823355138302" lon="8.612443143501878">
        <ele>2807.1900000000001</ele>
        <time>2014-08-31T09:21:37Z</time>
      </trkpt>
      <trkpt lat="46.573905749246478" lon="8.612354546785355">
        <ele>2809.5900000000001</ele>
        <time>2014-08-31T09:21:53Z</time>
      </trkpt>
      <trkpt lat="46.573978839442134" lon="8.612302243709564">
        <ele>2811.0300000000002</ele>
        <time>2014-08-31T09:22:07Z</time>
      </trkpt>
      <trkpt lat="46.574043044820428" lon="8.612285228446126">
        <ele>2814.4000000000001</ele>
        <time>2014-08-31T09:22:21Z</time>
      </trkpt>
      <trkpt lat="46.574095180258155" lon="8.612274415791035">
        <ele>2816.8000000000002</ele>
        <time>2014-08-31T09:22:36Z</time>
      </trkpt>
      <trkpt lat="46.574116889387369" lon="8.612278271466494">
        <ele>2818.2399999999998</ele>
        <time>2014-08-31T09:22:47Z</time>
      </trkpt>
      <trkpt lat="46.574157122522593" lon="8.61223753541708">
        <ele>2820.1599999999999</ele>
        <time>2014-08-31T09:22:59Z</time>
      </trkpt>
      <trkpt lat="46.574228787794709" lon="8.612238541245461">
        <ele>2822.0900000000001</ele>
        <time>2014-08-31T09:23:12Z</time>
      </trkpt>
      <trkpt lat="46.574241360649467" lon="8.612267123535276">
        <ele>2823.0500000000002</ele>
        <time>2014-08-31T09:23:24Z</time>
      </trkpt>
      <trkpt lat="46.574287796393037" lon="8.61227123066783">
        <ele>2824.4899999999998</ele>
        <time>2014-08-31T09:23:44Z</time>
      </trkpt>
      <trkpt lat="46.574306236580014" lon="8.612281791865826">
        <ele>2824.9699999999998</ele>
        <time>2014-08-31T09:23:47Z</time>
      </trkpt>
      <trkpt lat="46.574400365352631" lon="8.612339794635773">
        <ele>2823.5300000000002</ele>
        <time>2014-08-31T09:23:59Z</time>
      </trkpt>
      <trkpt lat="46.574459122493863" lon="8.612346164882183">
        <ele>2824.0100000000002</ele>
        <time>2014-08-31T09:24:08Z</time>
      </trkpt>
      <trkpt lat="46.574570015072823" lon="8.612390505149961">
        <ele>2825.4499999999998</ele>
        <time>2014-08-31T09:24:21Z</time>
      </trkpt>
      <trkpt lat="46.574616031721234" lon="8.612415650859475">
        <ele>2827.3699999999999</ele>
        <time>2014-08-31T09:24:32Z</time>
      </trkpt>
      <trkpt lat="46.574700018391013" lon="8.61241833306849">
        <ele>2829.7800000000002</ele>
        <time>2014-08-31T09:24:47Z</time>
      </trkpt>
      <trkpt lat="46.574753746390343" lon="8.612441215664148">
        <ele>2828.3400000000001</ele>
        <time>2014-08-31T09:24:55Z</time>
      </trkpt>
      <trkpt lat="46.574773611500859" lon="8.612451609224081">
        <ele>2828.3400000000001</ele>
        <time>2014-08-31T09:24:57Z</time>
      </trkpt>
      <trkpt lat="46.574816778302193" lon="8.612509109079838">
        <ele>2826.8899999999999</ele>
        <time>2014-08-31T09:25:04Z</time>
      </trkpt>
      <trkpt lat="46.574877630919218" lon="8.612526208162308">
        <ele>2827.3699999999999</ele>
        <time>2014-08-31T09:25:15Z</time>
      </trkpt>
      <trkpt lat="46.57492314465344" lon="8.612555461004376">
        <ele>2826.8899999999999</ele>
        <time>2014-08-31T09:25:22Z</time>
      </trkpt>
      <trkpt lat="46.574951391667128" lon="8.612596280872822">
        <ele>2826.8899999999999</ele>
        <time>2014-08-31T09:25:32Z</time>
      </trkpt>
      <trkpt lat="46.574968323111534" lon="8.612599717453122">
        <ele>2826.8899999999999</ele>
        <time>2014-08-31T09:25:35Z</time>
      </trkpt>
      <trkpt lat="46.575051555410028" lon="8.612666688859463">
        <ele>2828.3400000000001</ele>
        <time>2014-08-31T09:25:49Z</time>
      </trkpt>
      <trkpt lat="46.575133614242077" lon="8.612707927823067">
        <ele>2828.3400000000001</ele>
        <time>2014-08-31T09:26:02Z</time>
      </trkpt>
      <trkpt lat="46.575189437717199" lon="8.612744305282831">
        <ele>2829.3000000000002</ele>
        <time>2014-08-31T09:26:14Z</time>
      </trkpt>
      <trkpt lat="46.575222462415695" lon="8.612760230898857">
        <ele>2831.2199999999998</ele>
        <time>2014-08-31T09:26:24Z</time>
      </trkpt>
      <trkpt lat="46.575274262577295" lon="8.612769786268473">
        <ele>2833.1399999999999</ele>
        <time>2014-08-31T09:26:35Z</time>
      </trkpt>
      <trkpt lat="46.575335534289479" lon="8.612807001918554">
        <ele>2836.0300000000002</ele>
        <time>2014-08-31T09:26:48Z</time>
      </trkpt>
      <trkpt lat="46.575372079387307" lon="8.612851509824395">
        <ele>2837.9499999999998</ele>
        <time>2014-08-31T09:27:00Z</time>
      </trkpt>
      <trkpt lat="46.575420191511512" lon="8.612874979153276">
        <ele>2837.9499999999998</ele>
        <time>2014-08-31T09:27:06Z</time>
      </trkpt>
      <trkpt lat="46.575484899803996" lon="8.61292845569551">
        <ele>2839.8699999999999</ele>
        <time>2014-08-31T09:27:20Z</time>
      </trkpt>
      <trkpt lat="46.575513062998652" lon="8.612964916974306">
        <ele>2840.8299999999999</ele>
        <time>2014-08-31T09:27:31Z</time>
      </trkpt>
      <trkpt lat="46.575507782399654" lon="8.612985284999013">
        <ele>2840.8299999999999</ele>
        <time>2014-08-31T09:27:48Z</time>
      </trkpt>
      <trkpt lat="46.575560672208667" lon="8.613015795126557">
        <ele>2842.2800000000002</ele>
        <time>2014-08-31T09:28:00Z</time>
      </trkpt>
      <trkpt lat="46.575591014698148" lon="8.613032642751932">
        <ele>2842.2800000000002</ele>
        <time>2014-08-31T09:28:03Z</time>
      </trkpt>
      <trkpt lat="46.57568589784205" lon="8.613153928890824">
        <ele>2842.2800000000002</ele>
        <time>2014-08-31T09:28:17Z</time>
      </trkpt>
      <trkpt lat="46.575733926147223" lon="8.613193910568953">
        <ele>2843.2399999999998</ele>
        <time>2014-08-31T09:28:24Z</time>
      </trkpt>
      <trkpt lat="46.575809363275766" lon="8.613270856440067">
        <ele>2845.1599999999999</ele>
        <time>2014-08-31T09:28:39Z</time>
      </trkpt>
      <trkpt lat="46.575813721865416" lon="8.613331625238061">
        <ele>2846.5999999999999</ele>
        <time>2014-08-31T09:28:52Z</time>
      </trkpt>
      <trkpt lat="46.57588236965239" lon="8.613372026011348">
        <ele>2849</ele>
        <time>2014-08-31T09:29:08Z</time>
      </trkpt>
      <trkpt lat="46.575950933620334" lon="8.613432208076119">
        <ele>2850.9299999999998</ele>
        <time>2014-08-31T09:29:22Z</time>
      </trkpt>
      <trkpt lat="46.576031651347876" lon="8.613544777035713">
        <ele>2852.3699999999999</ele>
        <time>2014-08-31T09:29:37Z</time>
      </trkpt>
      <trkpt lat="46.576078590005636" lon="8.613615604117513">
        <ele>2854.29</ele>
        <time>2014-08-31T09:29:53Z</time>
      </trkpt>
      <trkpt lat="46.576099880039692" lon="8.613660698756576">
        <ele>2854.77</ele>
        <time>2014-08-31T09:30:03Z</time>
      </trkpt>
      <trkpt lat="46.576105244457722" lon="8.613670254126191">
        <ele>2855.25</ele>
        <time>2014-08-31T09:30:04Z</time>
      </trkpt>
      <trkpt lat="46.576117733493447" lon="8.613714678213">
        <ele>2854.77</ele>
        <time>2014-08-31T09:30:08Z</time>
      </trkpt>
      <trkpt lat="46.576182944700122" lon="8.613769579678774">
        <ele>2857.1799999999998</ele>
        <time>2014-08-31T09:30:22Z</time>
      </trkpt>
      <trkpt lat="46.576191913336515" lon="8.613810315728188">
        <ele>2857.1799999999998</ele>
        <time>2014-08-31T09:30:25Z</time>
      </trkpt>
      <trkpt lat="46.576256537809968" lon="8.613886842504144">
        <ele>2859.0999999999999</ele>
        <time>2014-08-31T09:30:39Z</time>
      </trkpt>
      <trkpt lat="46.57632359303534" lon="8.61395507119596">
        <ele>2861.98</ele>
        <time>2014-08-31T09:30:54Z</time>
      </trkpt>
      <trkpt lat="46.576347230002284" lon="8.614026568830013">
        <ele>2862.46</ele>
        <time>2014-08-31T09:31:04Z</time>
      </trkpt>
      <trkpt lat="46.576367514207959" lon="8.614120781421661">
        <ele>2864.3899999999999</ele>
        <time>2014-08-31T09:31:20Z</time>
      </trkpt>
      <trkpt lat="46.576382098719478" lon="8.614108795300126">
        <ele>2866.79</ele>
        <time>2014-08-31T09:31:33Z</time>
      </trkpt>
      <trkpt lat="46.576418224722147" lon="8.61417937092483">
        <ele>2868.71</ele>
        <time>2014-08-31T09:31:49Z</time>
      </trkpt>
      <trkpt lat="46.576457032933831" lon="8.614240307360888">
        <ele>2871.5999999999999</ele>
        <time>2014-08-31T09:32:02Z</time>
      </trkpt>
      <trkpt lat="46.576482094824314" lon="8.614307027310133">
        <ele>2874.48</ele>
        <time>2014-08-31T09:32:15Z</time>
      </trkpt>
      <trkpt lat="46.576512604951859" lon="8.614302920177579">
        <ele>2876.4000000000001</ele>
        <time>2014-08-31T09:32:28Z</time>
      </trkpt>
      <trkpt lat="46.576558873057365" lon="8.614350277930498">
        <ele>2878.8099999999999</ele>
        <time>2014-08-31T09:32:42Z</time>
      </trkpt>
      <trkpt lat="46.576556023210287" lon="8.614365365356207">
        <ele>2879.77</ele>
        <time>2014-08-31T09:32:56Z</time>
      </trkpt>
      <trkpt lat="46.576559795066714" lon="8.61432789824903">
        <ele>2881.6900000000001</ele>
        <time>2014-08-31T09:33:14Z</time>
      </trkpt>
      <trkpt lat="46.576597094535828" lon="8.6143743339926">
        <ele>2884.5700000000002</ele>
        <time>2014-08-31T09:33:28Z</time>
      </trkpt>
      <trkpt lat="46.576627437025309" lon="8.614395707845688">
        <ele>2885.5300000000002</ele>
        <time>2014-08-31T09:33:42Z</time>
      </trkpt>
      <trkpt lat="46.576631460338831" lon="8.614376848563552">
        <ele>2885.0500000000002</ele>
        <time>2014-08-31T09:34:03Z</time>
      </trkpt>
      <trkpt lat="46.576664065942168" lon="8.614402413368225">
        <ele>2886.98</ele>
        <time>2014-08-31T09:34:19Z</time>
      </trkpt>
      <trkpt lat="46.576713686808944" lon="8.614439209923148">
        <ele>2890.3400000000001</ele>
        <time>2014-08-31T09:34:31Z</time>
      </trkpt>
      <trkpt lat="46.576741095632315" lon="8.614462679252029">
        <ele>2892.2600000000002</ele>
        <time>2014-08-31T09:34:42Z</time>
      </trkpt>
      <trkpt lat="46.576782837510109" lon="8.614492770284414">
        <ele>2894.6700000000001</ele>
        <time>2014-08-31T09:34:53Z</time>
      </trkpt>
      <trkpt lat="46.576815107837319" lon="8.614502074196935">
        <ele>2898.9899999999998</ele>
        <time>2014-08-31T09:35:06Z</time>
      </trkpt>
      <trkpt lat="46.576862884685397" lon="8.614533171057701">
        <ele>2899.9499999999998</ele>
        <time>2014-08-31T09:35:18Z</time>
      </trkpt>
      <trkpt lat="46.576873362064362" lon="8.614490255713463">
        <ele>2901.8800000000001</ele>
        <time>2014-08-31T09:35:27Z</time>
      </trkpt>
      <trkpt lat="46.576900100335479" lon="8.614508863538504">
        <ele>2903.3200000000002</ele>
        <time>2014-08-31T09:35:33Z</time>
      </trkpt>
      <trkpt lat="46.576943518593907" lon="8.61450182273984">
        <ele>2905.7199999999998</ele>
        <time>2014-08-31T09:35:44Z</time>
      </trkpt>
      <trkpt lat="46.576953995972872" lon="8.614510539919138">
        <ele>2906.1999999999998</ele>
        <time>2014-08-31T09:35:59Z</time>
      </trkpt>
      <trkpt lat="46.576967071741819" lon="8.614558065310121">
        <ele>2906.6799999999998</ele>
        <time>2014-08-31T09:36:14Z</time>
      </trkpt>
      <trkpt lat="46.576994396746159" lon="8.61450525932014">
        <ele>2907.6500000000001</ele>
        <time>2014-08-31T09:36:27Z</time>
      </trkpt>
      <trkpt lat="46.577015602961183" lon="8.614543732255697">
        <ele>2908.1300000000001</ele>
        <time>2014-08-31T09:36:46Z</time>
      </trkpt>
      <trkpt lat="46.577070001512766" lon="8.614692259579897">
        <ele>2908.6100000000001</ele>
        <time>2014-08-31T09:37:02Z</time>
      </trkpt>
      <trkpt lat="46.577134625986218" lon="8.61471438780427">
        <ele>2910.5300000000002</ele>
        <time>2014-08-31T09:37:15Z</time>
      </trkpt>
      <trkpt lat="46.57717427238822" lon="8.614776246249676">
        <ele>2913.4099999999999</ele>
        <time>2014-08-31T09:37:30Z</time>
      </trkpt>
      <trkpt lat="46.577229090034962" lon="8.614821508526802">
        <ele>2916.3000000000002</ele>
        <time>2014-08-31T09:37:45Z</time>
      </trkpt>
      <trkpt lat="46.577262952923775" lon="8.614838607609272">
        <ele>2919.1799999999998</ele>
        <time>2014-08-31T09:38:01Z</time>
      </trkpt>
      <trkpt lat="46.577288182452321" lon="8.614888479933143">
        <ele>2920.6199999999999</ele>
        <time>2014-08-31T09:38:12Z</time>
      </trkpt>
      <trkpt lat="46.577316764742136" lon="8.614892167970538">
        <ele>2923.0300000000002</ele>
        <time>2014-08-31T09:38:24Z</time>
      </trkpt>
      <trkpt lat="46.577315758913755" lon="8.614938436076045">
        <ele>2923.9899999999998</ele>
        <time>2014-08-31T09:38:39Z</time>
      </trkpt>
      <trkpt lat="46.577326487749815" lon="8.614916056394577">
        <ele>2923.9899999999998</ele>
        <time>2014-08-31T09:38:52Z</time>
      </trkpt>
      <trkpt lat="46.577320117503405" lon="8.614858724176884">
        <ele>2925.4299999999998</ele>
        <time>2014-08-31T09:39:05Z</time>
      </trkpt>
      <trkpt lat="46.577317686751485" lon="8.614834249019623">
        <ele>2926.8699999999999</ele>
        <time>2014-08-31T09:39:19Z</time>
      </trkpt>
      <trkpt lat="46.577303437516093" lon="8.614801894873381">
        <ele>2928.3099999999999</ele>
        <time>2014-08-31T09:39:37Z</time>
      </trkpt>
      <trkpt lat="46.577323889359832" lon="8.61475445330143">
        <ele>2930.2399999999998</ele>
        <time>2014-08-31T09:39:51Z</time>
      </trkpt>
      <trkpt lat="46.577339814975858" lon="8.614766774699092">
        <ele>2929.27</ele>
        <time>2014-08-31T09:40:06Z</time>
      </trkpt>
      <trkpt lat="46.577326068654656" lon="8.614777587354183">
        <ele>2929.75</ele>
        <time>2014-08-31T09:40:33Z</time>
      </trkpt>
      <trkpt lat="46.577319195494056" lon="8.614768283441663">
        <ele>2929.75</ele>
        <time>2014-08-31T09:40:48Z</time>
      </trkpt>
      <trkpt lat="46.577319363132119" lon="8.614777838811278">
        <ele>2929.75</ele>
        <time>2014-08-31T09:41:06Z</time>
      </trkpt>
      <trkpt lat="46.577347610145807" lon="8.614786891266704">
        <ele>2929.27</ele>
        <time>2014-08-31T09:41:25Z</time>
      </trkpt>
      <trkpt lat="46.577321710065007" lon="8.614779012277722">
        <ele>2929.75</ele>
        <time>2014-08-31T09:41:42Z</time>
      </trkpt>
      <trkpt lat="46.5773272421211" lon="8.6147784255445">
        <ele>2929.75</ele>
        <time>2014-08-31T09:41:57Z</time>
      </trkpt>
      <trkpt lat="46.577331852167845" lon="8.614782029762864">
        <ele>2929.27</ele>
        <time>2014-08-31T09:42:11Z</time>
      </trkpt>
      <trkpt lat="46.577294720336795" lon="8.614750681445003">
        <ele>2929.75</ele>
        <time>2014-08-31T09:42:25Z</time>
      </trkpt>
      <trkpt lat="46.577307796105742" lon="8.614739868789911">
        <ele>2929.75</ele>
        <time>2014-08-31T09:42:48Z</time>
      </trkpt>
      <trkpt lat="46.577299917116761" lon="8.614739449694753">
        <ele>2929.75</ele>
        <time>2014-08-31T09:43:13Z</time>
      </trkpt>
      <trkpt lat="46.577321290969849" lon="8.614718494936824">
        <ele>2930.2399999999998</ele>
        <time>2014-08-31T09:43:29Z</time>
      </trkpt>
      <trkpt lat="46.577374935150146" lon="8.614779347553849">
        <ele>2931.1999999999998</ele>
        <time>2014-08-31T09:43:43Z</time>
      </trkpt>
      <trkpt lat="46.577389016747475" lon="8.614752693101764">
        <ele>2933.5999999999999</ele>
        <time>2014-08-31T09:43:53Z</time>
      </trkpt>
      <trkpt lat="46.577412486076355" lon="8.614778760820627">
        <ele>2935.52</ele>
        <time>2014-08-31T09:44:07Z</time>
      </trkpt>
      <trkpt lat="46.577414833009243" lon="8.61477691680193">
        <ele>2935.52</ele>
        <time>2014-08-31T09:44:27Z</time>
      </trkpt>
      <trkpt lat="46.577423885464668" lon="8.614805834367871">
        <ele>2936.48</ele>
        <time>2014-08-31T09:44:42Z</time>
      </trkpt>
      <trkpt lat="46.577409049496055" lon="8.614809270948172">
        <ele>2936.48</ele>
        <time>2014-08-31T09:45:07Z</time>
      </trkpt>
      <trkpt lat="46.577401757240295" lon="8.61477985046804">
        <ele>2936.48</ele>
        <time>2014-08-31T09:45:29Z</time>
      </trkpt>
      <trkpt lat="46.577433440834284" lon="8.614839194342494">
        <ele>2937.4499999999998</ele>
        <time>2014-08-31T09:45:45Z</time>
      </trkpt>
      <trkpt lat="46.577443666756153" lon="8.614903232082725">
        <ele>2939.3699999999999</ele>
        <time>2014-08-31T09:46:01Z</time>
      </trkpt>
      <trkpt lat="46.577480295673013" lon="8.614974729716778">
        <ele>2941.29</ele>
        <time>2014-08-31T09:46:15Z</time>
      </trkpt>
      <trkpt lat="46.577494293451309" lon="8.614991744980216">
        <ele>2943.21</ele>
        <time>2014-08-31T09:46:28Z</time>
      </trkpt>
      <trkpt lat="46.577487336471677" lon="8.614954110234976">
        <ele>2945.1399999999999</ele>
        <time>2014-08-31T09:46:42Z</time>
      </trkpt>
      <trkpt lat="46.577542154118419" lon="8.61498118378222">
        <ele>2947.0599999999999</ele>
        <time>2014-08-31T09:46:57Z</time>
      </trkpt>
      <trkpt lat="46.577588589861989" lon="8.615003731101751">
        <ele>2950.9000000000001</ele>
        <time>2014-08-31T09:47:12Z</time>
      </trkpt>
      <trkpt lat="46.577611640095711" lon="8.615001635625958">
        <ele>2949.9400000000001</ele>
        <time>2014-08-31T09:47:31Z</time>
      </trkpt>
      <trkpt lat="46.577600575983524" lon="8.614962659776211">
        <ele>2950.9000000000001</ele>
        <time>2014-08-31T09:47:45Z</time>
      </trkpt>
      <trkpt lat="46.577594624832273" lon="8.614926114678383">
        <ele>2952.3499999999999</ele>
        <time>2014-08-31T09:47:59Z</time>
      </trkpt>
      <trkpt lat="46.57761599868536" lon="8.614895520731807">
        <ele>2953.79</ele>
        <time>2014-08-31T09:48:10Z</time>
      </trkpt>
      <trkpt lat="46.577637623995543" lon="8.614902645349503">
        <ele>2955.23</ele>
        <time>2014-08-31T09:48:21Z</time>
      </trkpt>
      <trkpt lat="46.577661763876677" lon="8.614990068599582">
        <ele>2957.6300000000001</ele>
        <time>2014-08-31T09:48:37Z</time>
      </trkpt>
      <trkpt lat="46.577678192406893" lon="8.614961318671703">
        <ele>2960.04</ele>
        <time>2014-08-31T09:48:53Z</time>
      </trkpt>
      <trkpt lat="46.577710462734103" lon="8.614942459389567">
        <ele>2960.52</ele>
        <time>2014-08-31T09:49:12Z</time>
      </trkpt>
      <trkpt lat="46.577728819102049" lon="8.614947320893407">
        <ele>2962.4400000000001</ele>
        <time>2014-08-31T09:49:28Z</time>
      </trkpt>
      <trkpt lat="46.577744828537107" lon="8.614930724725127">
        <ele>2964.3600000000001</ele>
        <time>2014-08-31T09:49:42Z</time>
      </trkpt>
      <trkpt lat="46.57776016741991" lon="8.614917397499085">
        <ele>2965.3200000000002</ele>
        <time>2014-08-31T09:49:57Z</time>
      </trkpt>
      <trkpt lat="46.577755557373166" lon="8.614953272044659">
        <ele>2967.73</ele>
        <time>2014-08-31T09:50:15Z</time>
      </trkpt>
      <trkpt lat="46.577778356149793" lon="8.614984536543489">
        <ele>2969.1700000000001</ele>
        <time>2014-08-31T09:50:30Z</time>
      </trkpt>
      <trkpt lat="46.577788749709725" lon="8.615046814084053">
        <ele>2972.0500000000002</ele>
        <time>2014-08-31T09:50:43Z</time>
      </trkpt>
      <trkpt lat="46.577819343656301" lon="8.615079922601581">
        <ele>2972.5300000000002</ele>
        <time>2014-08-31T09:50:56Z</time>
      </trkpt>
      <trkpt lat="46.577821606770158" lon="8.615031307563186">
        <ele>2973.98</ele>
        <time>2014-08-31T09:51:07Z</time>
      </trkpt>
      <trkpt lat="46.577881872653961" lon="8.615075564011931">
        <ele>2976.3800000000001</ele>
        <time>2014-08-31T09:51:21Z</time>
      </trkpt>
      <trkpt lat="46.577874915674329" lon="8.615046730265021">
        <ele>2977.8200000000002</ele>
        <time>2014-08-31T09:51:34Z</time>
      </trkpt>
      <trkpt lat="46.57791213132441" lon="8.615004234015942">
        <ele>2979.7399999999998</ele>
        <time>2014-08-31T09:51:47Z</time>
      </trkpt>
      <trkpt lat="46.577936019748449" lon="8.615016974508762">
        <ele>2982.1500000000001</ele>
        <time>2014-08-31T09:52:00Z</time>
      </trkpt>
      <trkpt lat="46.57795948907733" lon="8.615095932036638">
        <ele>2984.0700000000002</ele>
        <time>2014-08-31T09:52:13Z</time>
      </trkpt>
      <trkpt lat="46.578000225126743" lon="8.615138344466686">
        <ele>2986.4699999999998</ele>
        <time>2014-08-31T09:52:26Z</time>
      </trkpt>
      <trkpt lat="46.577996872365475" lon="8.615132477134466">
        <ele>2987.4299999999998</ele>
        <time>2014-08-31T09:52:37Z</time>
      </trkpt>
      <trkpt lat="46.578042972832918" lon="8.615162903442979">
        <ele>2989.3600000000001</ele>
        <time>2014-08-31T09:52:49Z</time>
      </trkpt>
      <trkpt lat="46.578063927590847" lon="8.615210764110088">
        <ele>2991.7600000000002</ele>
        <time>2014-08-31T09:53:02Z</time>
      </trkpt>
      <trkpt lat="46.578077841550112" lon="8.615188049152494">
        <ele>2994.1599999999999</ele>
        <time>2014-08-31T09:53:13Z</time>
      </trkpt>
      <trkpt lat="46.578089157119393" lon="8.615201460197568">
        <ele>2995.1199999999999</ele>
        <time>2014-08-31T09:53:25Z</time>
      </trkpt>
      <trkpt lat="46.578096197918057" lon="8.615141278132796">
        <ele>2995.5999999999999</ele>
        <time>2014-08-31T09:53:48Z</time>
      </trkpt>
      <trkpt lat="46.578107345849276" lon="8.615139685571194">
        <ele>2996.5700000000002</ele>
        <time>2014-08-31T09:53:50Z</time>
      </trkpt>
      <trkpt lat="46.578128132969141" lon="8.615073719993234">
        <ele>2997.5300000000002</ele>
        <time>2014-08-31T09:54:04Z</time>
      </trkpt>
      <trkpt lat="46.57811832614243" lon="8.615043209865689">
        <ele>2998.4899999999998</ele>
        <time>2014-08-31T09:54:19Z</time>
      </trkpt>
      <trkpt lat="46.578128719702363" lon="8.615037007257342">
        <ele>2998.4899999999998</ele>
        <time>2014-08-31T09:54:39Z</time>
      </trkpt>
      <trkpt lat="46.578138191252947" lon="8.61502124927938">
        <ele>2998.9699999999998</ele>
        <time>2014-08-31T09:55:04Z</time>
      </trkpt>
      <trkpt lat="46.578145734965801" lon="8.614967772737145">
        <ele>3001.8499999999999</ele>
        <time>2014-08-31T09:55:16Z</time>
      </trkpt>
      <trkpt lat="46.578147578984499" lon="8.61498462036252">
        <ele>3000.4099999999999</ele>
        <time>2014-08-31T09:55:33Z</time>
      </trkpt>
      <trkpt lat="46.578121511265635" lon="8.614941788837314">
        <ele>2999.4499999999998</ele>
        <time>2014-08-31T09:55:49Z</time>
      </trkpt>
      <trkpt lat="46.578136514872313" lon="8.614939106628299">
        <ele>2999.4499999999998</ele>
        <time>2014-08-31T09:56:06Z</time>
      </trkpt>
      <trkpt lat="46.578148752450943" lon="8.614956792443991">
        <ele>3000.8899999999999</ele>
        <time>2014-08-31T09:56:16Z</time>
      </trkpt>
      <trkpt lat="46.578146237879992" lon="8.614991493523121">
        <ele>3000.4099999999999</ele>
        <time>2014-08-31T09:56:31Z</time>
      </trkpt>
      <trkpt lat="46.578137772157788" lon="8.61501932144165">
        <ele>3000.8899999999999</ele>
        <time>2014-08-31T09:56:45Z</time>
      </trkpt>
      <trkpt lat="46.578142549842596" lon="8.615022758021951">
        <ele>3000.4099999999999</ele>
        <time>2014-08-31T09:57:02Z</time>
      </trkpt>
      <trkpt lat="46.578136598691344" lon="8.615041868761182">
        <ele>2999.9299999999998</ele>
        <time>2014-08-31T09:57:14Z</time>
      </trkpt>
      <trkpt lat="46.578118745237589" lon="8.615038432180882">
        <ele>2998.4899999999998</ele>
        <time>2014-08-31T09:57:25Z</time>
      </trkpt>
      <trkpt lat="46.578124025836587" lon="8.615034157410264">
        <ele>2998.4899999999998</ele>
        <time>2014-08-31T09:57:40Z</time>
      </trkpt>
      <trkpt lat="46.5781319886446" lon="8.615037091076374">
        <ele>2999.4499999999998</ele>
        <time>2014-08-31T09:58:09Z</time>
      </trkpt>
      <trkpt lat="46.578132826834917" lon="8.615060728043318">
        <ele>2999.4499999999998</ele>
        <time>2014-08-31T09:58:24Z</time>
      </trkpt>
      <trkpt lat="46.578129809349775" lon="8.615068020299077">
        <ele>2998.9699999999998</ele>
        <time>2014-08-31T09:58:42Z</time>
      </trkpt>
      <trkpt lat="46.578122265636921" lon="8.615055615082383">
        <ele>2998.9699999999998</ele>
        <time>2014-08-31T09:58:59Z</time>
      </trkpt>
      <trkpt lat="46.578128803521395" lon="8.615060392767191">
        <ele>3000.4099999999999</ele>
        <time>2014-08-31T09:59:17Z</time>
      </trkpt>
      <trkpt lat="46.578138191252947" lon="8.615059219300747">
        <ele>2998.9699999999998</ele>
        <time>2014-08-31T09:59:30Z</time>
      </trkpt>
      <trkpt lat="46.578140873461962" lon="8.615074809640646">
        <ele>2998.4899999999998</ele>
        <time>2014-08-31T09:59:46Z</time>
      </trkpt>
      <trkpt lat="46.578136933967471" lon="8.615070702508092">
        <ele>2998.0100000000002</ele>
        <time>2014-08-31T10:00:00Z</time>
      </trkpt>
      <trkpt lat="46.578113464638591" lon="8.615073133260012">
        <ele>2998.4899999999998</ele>
        <time>2014-08-31T10:00:25Z</time>
      </trkpt>
      <trkpt lat="46.578113548457623" lon="8.61507791094482">
        <ele>2998.0100000000002</ele>
        <time>2014-08-31T10:00:54Z</time>
      </trkpt>
      <trkpt lat="46.578118242323399" lon="8.615062404423952">
        <ele>2998.4899999999998</ele>
        <time>2014-08-31T10:01:20Z</time>
      </trkpt>
      <trkpt lat="46.578122265636921" lon="8.615095848217607">
        <ele>2998.4899999999998</ele>
        <time>2014-08-31T10:01:34Z</time>
      </trkpt>
      <trkpt lat="46.578109608963132" lon="8.615088388323784">
        <ele>2997.5300000000002</ele>
        <time>2014-08-31T10:01:48Z</time>
      </trkpt>
      <trkpt lat="46.578113129362464" lon="8.61508822068572">
        <ele>2998.0100000000002</ele>
        <time>2014-08-31T10:02:09Z</time>
      </trkpt>
      <trkpt lat="46.578141376376152" lon="8.615074558183551">
        <ele>2998.4899999999998</ele>
        <time>2014-08-31T10:02:24Z</time>
      </trkpt>
      <trkpt lat="46.578117571771145" lon="8.615073887631297">
        <ele>2998.9699999999998</ele>
        <time>2014-08-31T10:02:43Z</time>
      </trkpt>
      <trkpt lat="46.578108184039593" lon="8.615088555961847">
        <ele>2998.9699999999998</ele>
        <time>2014-08-31T10:03:04Z</time>
      </trkpt>
      <trkpt lat="46.578121343627572" lon="8.615083275362849">
        <ele>2999.4499999999998</ele>
        <time>2014-08-31T10:03:25Z</time>
      </trkpt>
      <trkpt lat="46.578127294778824" lon="8.615107415243983">
        <ele>2998.9699999999998</ele>
        <time>2014-08-31T10:03:43Z</time>
      </trkpt>
      <trkpt lat="46.578132743015885" lon="8.615097776055336">
        <ele>2998.9699999999998</ele>
        <time>2014-08-31T10:04:04Z</time>
      </trkpt>
      <trkpt lat="46.578116398304701" lon="8.615087466314435">
        <ele>2999.4499999999998</ele>
        <time>2014-08-31T10:04:22Z</time>
      </trkpt>
      <trkpt lat="46.578129138797522" lon="8.615090064704418">
        <ele>2999.4499999999998</ele>
        <time>2014-08-31T10:04:44Z</time>
      </trkpt>
      <trkpt lat="46.578124361112714" lon="8.615077994763851">
        <ele>2999.4499999999998</ele>
        <time>2014-08-31T10:05:04Z</time>
      </trkpt>
      <trkpt lat="46.578128971159458" lon="8.615090902894735">
        <ele>2999.4499999999998</ele>
        <time>2014-08-31T10:05:19Z</time>
      </trkpt>
      <trkpt lat="46.57812419347465" lon="8.615083526819944">
        <ele>2999.4499999999998</ele>
        <time>2014-08-31T10:05:38Z</time>
      </trkpt>
      <trkpt lat="46.578113213181496" lon="8.615115964785218">
        <ele>2998.9699999999998</ele>
        <time>2014-08-31T10:05:51Z</time>
      </trkpt>
      <trkpt lat="46.578116565942764" lon="8.61508428119123">
        <ele>2998.9699999999998</ele>
        <time>2014-08-31T10:06:02Z</time>
      </trkpt>
      <trkpt lat="46.578122349455953" lon="8.615084532648325">
        <ele>2998.4899999999998</ele>
        <time>2014-08-31T10:06:18Z</time>
      </trkpt>
      <trkpt lat="46.578121175989509" lon="8.615080341696739">
        <ele>2998.9699999999998</ele>
        <time>2014-08-31T10:06:40Z</time>
      </trkpt>
      <trkpt lat="46.578113548457623" lon="8.615092327818275">
        <ele>2998.9699999999998</ele>
        <time>2014-08-31T10:07:08Z</time>
      </trkpt>
      <trkpt lat="46.578121678903699" lon="8.615053603425622">
        <ele>3000.8899999999999</ele>
        <time>2014-08-31T10:07:21Z</time>
      </trkpt>
      <trkpt lat="46.578131821006536" lon="8.615078162401915">
        <ele>2999.4499999999998</ele>
        <time>2014-08-31T10:07:32Z</time>
      </trkpt>
      <trkpt lat="46.578126288950443" lon="8.615101212635636">
        <ele>2999.9299999999998</ele>
        <time>2014-08-31T10:07:51Z</time>
      </trkpt>
      <trkpt lat="46.57810558564961" lon="8.615048741921783">
        <ele>2999.9299999999998</ele>
        <time>2014-08-31T10:08:07Z</time>
      </trkpt>
      <trkpt lat="46.578140622004867" lon="8.615065924823284">
        <ele>2999.9299999999998</ele>
        <time>2014-08-31T10:08:26Z</time>
      </trkpt>
      <trkpt lat="46.578093180432916" lon="8.615160305052996">
        <ele>2999.9299999999998</ele>
        <time>2014-08-31T10:08:37Z</time>
      </trkpt>
      <trkpt lat="46.578047499060631" lon="8.615192826837301">
        <ele>2996.5700000000002</ele>
        <time>2014-08-31T10:08:47Z</time>
      </trkpt>
      <trkpt lat="46.578061748296022" lon="8.615227527916431">
        <ele>2996.5700000000002</ele>
        <time>2014-08-31T10:08:58Z</time>
      </trkpt>
      <trkpt lat="46.578039955347776" lon="8.615229120478034">
        <ele>2993.6799999999998</ele>
        <time>2014-08-31T10:09:10Z</time>
      </trkpt>
      <trkpt lat="46.577974073588848" lon="8.615145636722446">
        <ele>2990.3200000000002</ele>
        <time>2014-08-31T10:09:23Z</time>
      </trkpt>
      <trkpt lat="46.57793995924294" lon="8.615146558731794">
        <ele>2987.4299999999998</ele>
        <time>2014-08-31T10:09:34Z</time>
      </trkpt>
      <trkpt lat="46.577933421358466" lon="8.615094842389226">
        <ele>2985.5100000000002</ele>
        <time>2014-08-31T10:09:52Z</time>
      </trkpt>
      <trkpt lat="46.577893188223243" lon="8.615018231794238">
        <ele>2983.1100000000001</ele>
        <time>2014-08-31T10:10:05Z</time>
      </trkpt>
      <trkpt lat="46.577884219586849" lon="8.615071875974536">
        <ele>2981.1900000000001</ele>
        <time>2014-08-31T10:10:15Z</time>
      </trkpt>
      <trkpt lat="46.577853122726083" lon="8.615058632567525">
        <ele>2977.8200000000002</ele>
        <time>2014-08-31T10:10:28Z</time>
      </trkpt>
      <trkpt lat="46.577842058613896" lon="8.615091154351831">
        <ele>2975.9000000000001</ele>
        <time>2014-08-31T10:10:39Z</time>
      </trkpt>
      <trkpt lat="46.577811967581511" lon="8.615037174895406">
        <ele>2973.98</ele>
        <time>2014-08-31T10:10:50Z</time>
      </trkpt>
      <trkpt lat="46.5777831338346" lon="8.614990403875709">
        <ele>2971.0900000000001</ele>
        <time>2014-08-31T10:11:01Z</time>
      </trkpt>
      <trkpt lat="46.577776009216905" lon="8.614980429410934">
        <ele>2969.1700000000001</ele>
        <time>2014-08-31T10:11:13Z</time>
      </trkpt>
      <trkpt lat="46.577780367806554" lon="8.614947656169534">
        <ele>2968.6900000000001</ele>
        <time>2014-08-31T10:11:25Z</time>
      </trkpt>
      <trkpt lat="46.577749019488692" lon="8.61496064811945">
        <ele>2966.77</ele>
        <time>2014-08-31T10:11:38Z</time>
      </trkpt>
      <trkpt lat="46.577728819102049" lon="8.614983698353171">
        <ele>2964.3600000000001</ele>
        <time>2014-08-31T10:11:49Z</time>
      </trkpt>
      <trkpt lat="46.577728064730763" lon="8.614950589835644">
        <ele>2963.4000000000001</ele>
        <time>2014-08-31T10:12:04Z</time>
      </trkpt>
      <trkpt lat="46.5777572337538" lon="8.614948494359851">
        <ele>2964.8400000000001</ele>
        <time>2014-08-31T10:12:16Z</time>
      </trkpt>
      <trkpt lat="46.577784642577171" lon="8.614946901798248">
        <ele>2966.29</ele>
        <time>2014-08-31T10:12:21Z</time>
      </trkpt>
      <trkpt lat="46.577818086370826" lon="8.614944890141487">
        <ele>2968.6900000000001</ele>
        <time>2014-08-31T10:12:37Z</time>
      </trkpt>
      <trkpt lat="46.577803250402212" lon="8.614947823807597">
        <ele>2968.21</ele>
        <time>2014-08-31T10:12:58Z</time>
      </trkpt>
      <trkpt lat="46.577761340886354" lon="8.614976154640317">
        <ele>2967.25</ele>
        <time>2014-08-31T10:13:15Z</time>
      </trkpt>
      <trkpt lat="46.577722616493702" lon="8.614975987002254">
        <ele>2965.3200000000002</ele>
        <time>2014-08-31T10:13:26Z</time>
      </trkpt>
      <trkpt lat="46.577715072780848" lon="8.61499928869307">
        <ele>2964.3600000000001</ele>
        <time>2014-08-31T10:13:41Z</time>
      </trkpt>
      <trkpt lat="46.577692776918411" lon="8.614999037235975">
        <ele>2961.96</ele>
        <time>2014-08-31T10:13:54Z</time>
      </trkpt>
      <trkpt lat="46.577690429985523" lon="8.615018399432302">
        <ele>2961</ele>
        <time>2014-08-31T10:13:56Z</time>
      </trkpt>
      <trkpt lat="46.577663691714406" lon="8.614980932325125">
        <ele>2959.0799999999999</ele>
        <time>2014-08-31T10:14:07Z</time>
      </trkpt>
      <trkpt lat="46.577627565711737" lon="8.614931982010603">
        <ele>2956.6700000000001</ele>
        <time>2014-08-31T10:14:21Z</time>
      </trkpt>
      <trkpt lat="46.577614825218916" lon="8.615003982558847">
        <ele>2953.3099999999999</ele>
        <time>2014-08-31T10:14:30Z</time>
      </trkpt>
      <trkpt lat="46.577581884339452" lon="8.614985207095742">
        <ele>2950.4200000000001</ele>
        <time>2014-08-31T10:14:41Z</time>
      </trkpt>
      <trkpt lat="46.577569060027599" lon="8.614978585392237">
        <ele>2949.46</ele>
        <time>2014-08-31T10:14:44Z</time>
      </trkpt>
      <trkpt lat="46.57752220518887" lon="8.614947907626629">
        <ele>2946.5799999999999</ele>
        <time>2014-08-31T10:14:57Z</time>
      </trkpt>
      <trkpt lat="46.577525893226266" lon="8.61493231728673">
        <ele>2946.5799999999999</ele>
        <time>2014-08-31T10:15:23Z</time>
      </trkpt>
      <trkpt lat="46.577517259865999" lon="8.614954361692071">
        <ele>2946.5799999999999</ele>
        <time>2014-08-31T10:15:39Z</time>
      </trkpt>
      <trkpt lat="46.577524216845632" lon="8.614954361692071">
        <ele>2947.0599999999999</ele>
        <time>2014-08-31T10:15:58Z</time>
      </trkpt>
      <trkpt lat="46.577522791922092" lon="8.614989314228296">
        <ele>2946.0999999999999</ele>
        <time>2014-08-31T10:16:15Z</time>
      </trkpt>
      <trkpt lat="46.577535280957818" lon="8.615025775507093">
        <ele>2945.6199999999999</ele>
        <time>2014-08-31T10:16:31Z</time>
      </trkpt>
      <trkpt lat="46.577517846599221" lon="8.614978585392237">
        <ele>2944.1700000000001</ele>
        <time>2014-08-31T10:16:45Z</time>
      </trkpt>
      <trkpt lat="46.577493958175182" lon="8.614973807707429">
        <ele>2942.73</ele>
        <time>2014-08-31T10:16:55Z</time>
      </trkpt>
      <trkpt lat="46.57750753685832" lon="8.614969030022621">
        <ele>2943.21</ele>
        <time>2014-08-31T10:17:04Z</time>
      </trkpt>
      <trkpt lat="46.577527485787868" lon="8.614984788000584">
        <ele>2944.1700000000001</ele>
        <time>2014-08-31T10:17:18Z</time>
      </trkpt>
      <trkpt lat="46.577536622062325" lon="8.614995516836643">
        <ele>2944.1700000000001</ele>
        <time>2014-08-31T10:17:41Z</time>
      </trkpt>
      <trkpt lat="46.577526060864329" lon="8.615015298128128">
        <ele>2944.6599999999999</ele>
        <time>2014-08-31T10:18:01Z</time>
      </trkpt>
      <trkpt lat="46.577526731416583" lon="8.614987470209599">
        <ele>2944.1700000000001</ele>
        <time>2014-08-31T10:18:15Z</time>
      </trkpt>
      <trkpt lat="46.577490018680692" lon="8.614954194054008">
        <ele>2942.25</ele>
        <time>2014-08-31T10:18:28Z</time>
      </trkpt>
      <trkpt lat="46.577478032559156" lon="8.614894598722458">
        <ele>2940.3299999999999</ele>
        <time>2014-08-31T10:18:37Z</time>
      </trkpt>
      <trkpt lat="46.577429166063666" lon="8.614787561818957">
        <ele>2936.9699999999998</ele>
        <time>2014-08-31T10:18:50Z</time>
      </trkpt>
      <trkpt lat="46.577420365065336" lon="8.614778928458691">
        <ele>2936</ele>
        <time>2014-08-31T10:18:52Z</time>
      </trkpt>
      <trkpt lat="46.577393626794219" lon="8.614812456071377">
        <ele>2933.1199999999999</ele>
        <time>2014-08-31T10:19:03Z</time>
      </trkpt>
      <trkpt lat="46.577353645116091" lon="8.614798039197922">
        <ele>2931.1999999999998</ele>
        <time>2014-08-31T10:19:14Z</time>
      </trkpt>
      <trkpt lat="46.577365715056658" lon="8.614914966747165">
        <ele>2928.3099999999999</ele>
        <time>2014-08-31T10:19:27Z</time>
      </trkpt>
      <trkpt lat="46.577355237677693" lon="8.61494111828506">
        <ele>2926.3899999999999</ele>
        <time>2014-08-31T10:19:30Z</time>
      </trkpt>
      <trkpt lat="46.577340820804238" lon="8.614931060001254">
        <ele>2925.4299999999998</ele>
        <time>2014-08-31T10:19:32Z</time>
      </trkpt>
      <trkpt lat="46.577302515506744" lon="8.614905243739486">
        <ele>2923.0300000000002</ele>
        <time>2014-08-31T10:19:44Z</time>
      </trkpt>
      <trkpt lat="46.577245770022273" lon="8.614851180464029">
        <ele>2921.0999999999999</ele>
        <time>2014-08-31T10:19:55Z</time>
      </trkpt>
      <trkpt lat="46.577211068943143" lon="8.614849839359522">
        <ele>2919.1799999999998</ele>
        <time>2014-08-31T10:20:03Z</time>
      </trkpt>
      <trkpt lat="46.577170751988888" lon="8.614822346717119">
        <ele>2916.7800000000002</ele>
        <time>2014-08-31T10:20:10Z</time>
      </trkpt>
      <trkpt lat="46.577168237417936" lon="8.614819748327136">
        <ele>2916.7800000000002</ele>
        <time>2014-08-31T10:20:12Z</time>
      </trkpt>
      <trkpt lat="46.577118532732129" lon="8.614773647859693">
        <ele>2913.4099999999999</ele>
        <time>2014-08-31T10:20:24Z</time>
      </trkpt>
      <trkpt lat="46.577052818611264" lon="8.614717572927475">
        <ele>2911.0100000000002</ele>
        <time>2014-08-31T10:20:38Z</time>
      </trkpt>
      <trkpt lat="46.576998000964522" lon="8.614607099443674">
        <ele>2909.5700000000002</ele>
        <time>2014-08-31T10:20:52Z</time>
      </trkpt>
      <trkpt lat="46.577015183866024" lon="8.61458832398057">
        <ele>2909.0900000000001</ele>
        <time>2014-08-31T10:21:04Z</time>
      </trkpt>
      <trkpt lat="46.576985344290733" lon="8.614564603194594">
        <ele>2909.5700000000002</ele>
        <time>2014-08-31T10:21:24Z</time>
      </trkpt>
      <trkpt lat="46.576969670131803" lon="8.614557897672057">
        <ele>2909.5700000000002</ele>
        <time>2014-08-31T10:22:01Z</time>
      </trkpt>
      <trkpt lat="46.576997246593237" lon="8.614553287625313">
        <ele>2909.0900000000001</ele>
        <time>2014-08-31T10:22:37Z</time>
      </trkpt>
      <trkpt lat="46.577004790306091" lon="8.61458002589643">
        <ele>2909.5700000000002</ele>
        <time>2014-08-31T10:23:07Z</time>
      </trkpt>
      <trkpt lat="46.577016022056341" lon="8.614512132480741">
        <ele>2908.6100000000001</ele>
        <time>2014-08-31T10:23:27Z</time>
      </trkpt>
      <trkpt lat="46.577030187472701" lon="8.614536104723811">
        <ele>2908.6100000000001</ele>
        <time>2014-08-31T10:23:35Z</time>
      </trkpt>
      <trkpt lat="46.577011831104755" lon="8.61456342972815">
        <ele>2909.5700000000002</ele>
        <time>2014-08-31T10:23:43Z</time>
      </trkpt>
      <trkpt lat="46.576995654031634" lon="8.614601232111454">
        <ele>2909.5700000000002</ele>
        <time>2014-08-31T10:23:59Z</time>
      </trkpt>
      <trkpt lat="46.576991630718112" lon="8.614594526588917">
        <ele>2909.5700000000002</ele>
        <time>2014-08-31T10:24:15Z</time>
      </trkpt>
      <trkpt lat="46.57698274590075" lon="8.614571979269385">
        <ele>2909.0900000000001</ele>
        <time>2014-08-31T10:24:32Z</time>
      </trkpt>
      <trkpt lat="46.576991379261017" lon="8.614573990926147">
        <ele>2909.0900000000001</ele>
        <time>2014-08-31T10:24:51Z</time>
      </trkpt>
      <trkpt lat="46.577006131410599" lon="8.614561753347516">
        <ele>2909.0900000000001</ele>
        <time>2014-08-31T10:25:18Z</time>
      </trkpt>
      <trkpt lat="46.576986685395241" lon="8.614555466920137">
        <ele>2908.6100000000001</ele>
        <time>2014-08-31T10:25:31Z</time>
      </trkpt>
      <trkpt lat="46.576978052034974" lon="8.614550773054361">
        <ele>2908.6100000000001</ele>
        <time>2014-08-31T10:25:51Z</time>
      </trkpt>
      <trkpt lat="46.576965730637312" lon="8.614569967612624">
        <ele>2909.0900000000001</ele>
        <time>2014-08-31T10:26:09Z</time>
      </trkpt>
      <trkpt lat="46.576968664303422" lon="8.614537362009287">
        <ele>2909.0900000000001</ele>
        <time>2014-08-31T10:26:24Z</time>
      </trkpt>
      <trkpt lat="46.576977297663689" lon="8.614546498283744">
        <ele>2909.0900000000001</ele>
        <time>2014-08-31T10:26:42Z</time>
      </trkpt>
      <trkpt lat="46.576990205794573" lon="8.614557646214962">
        <ele>2908.6100000000001</ele>
        <time>2014-08-31T10:27:06Z</time>
      </trkpt>
      <trkpt lat="46.576981572434306" lon="8.61456535756588">
        <ele>2909.5700000000002</ele>
        <time>2014-08-31T10:27:30Z</time>
      </trkpt>
      <trkpt lat="46.576993558555841" lon="8.61457072198391">
        <ele>2908.1300000000001</ele>
        <time>2014-08-31T10:27:54Z</time>
      </trkpt>
      <trkpt lat="46.5769456140697" lon="8.614553958177567">
        <ele>2907.1599999999999</ele>
        <time>2014-08-31T10:28:05Z</time>
      </trkpt>
      <trkpt lat="46.576937735080719" lon="8.61455756239593">
        <ele>2906.6799999999998</ele>
        <time>2014-08-31T10:28:06Z</time>
      </trkpt>
      <trkpt lat="46.576857268810272" lon="8.614529650658369">
        <ele>2903.3200000000002</ele>
        <time>2014-08-31T10:28:18Z</time>
      </trkpt>
      <trkpt lat="46.576836984604597" lon="8.614574745297432">
        <ele>2901.4000000000001</ele>
        <time>2014-08-31T10:28:28Z</time>
      </trkpt>
      <trkpt lat="46.576786525547504" lon="8.614550856873393">
        <ele>2898.0300000000002</ele>
        <time>2014-08-31T10:28:41Z</time>
      </trkpt>
      <trkpt lat="46.576770935207605" lon="8.614505929872394">
        <ele>2896.1100000000001</ele>
        <time>2014-08-31T10:28:50Z</time>
      </trkpt>
      <trkpt lat="46.576742185279727" lon="8.614491764456034">
        <ele>2894.6700000000001</ele>
        <time>2014-08-31T10:28:54Z</time>
      </trkpt>
      <trkpt lat="46.576681332662702" lon="8.614445412531495">
        <ele>2891.3000000000002</ele>
        <time>2014-08-31T10:29:05Z</time>
      </trkpt>
      <trkpt lat="46.576618468388915" lon="8.614427810534835">
        <ele>2887.9400000000001</ele>
        <time>2014-08-31T10:29:15Z</time>
      </trkpt>
      <trkpt lat="46.576600782573223" lon="8.614398557692766">
        <ele>2887.9400000000001</ele>
        <time>2014-08-31T10:29:31Z</time>
      </trkpt>
      <trkpt lat="46.576571278274059" lon="8.614363940432668">
        <ele>2885.0500000000002</ele>
        <time>2014-08-31T10:29:44Z</time>
      </trkpt>
      <trkpt lat="46.576534230262041" lon="8.614443484693766">
        <ele>2883.1300000000001</ele>
        <time>2014-08-31T10:29:55Z</time>
      </trkpt>
      <trkpt lat="46.576498104259372" lon="8.614370226860046">
        <ele>2880.25</ele>
        <time>2014-08-31T10:30:07Z</time>
      </trkpt>
      <trkpt lat="46.576469521969557" lon="8.614347679540515">
        <ele>2877.8400000000001</ele>
        <time>2014-08-31T10:30:18Z</time>
      </trkpt>
      <trkpt lat="46.576442616060376" lon="8.614273834973574">
        <ele>2874.96</ele>
        <time>2014-08-31T10:30:29Z</time>
      </trkpt>
      <trkpt lat="46.576419062912464" lon="8.614237289875746">
        <ele>2873.04</ele>
        <time>2014-08-31T10:30:33Z</time>
      </trkpt>
      <trkpt lat="46.576374806463718" lon="8.614152381196618">
        <ele>2870.1500000000001</ele>
        <time>2014-08-31T10:30:45Z</time>
      </trkpt>
      <trkpt lat="46.576324850320816" lon="8.614047188311815">
        <ele>2868.23</ele>
        <time>2014-08-31T10:30:58Z</time>
      </trkpt>
      <trkpt lat="46.576302051544189" lon="8.614003518596292">
        <ele>2866.79</ele>
        <time>2014-08-31T10:31:09Z</time>
      </trkpt>
      <trkpt lat="46.57629769295454" lon="8.614002680405974">
        <ele>2866.79</ele>
        <time>2014-08-31T10:31:13Z</time>
      </trkpt>
      <trkpt lat="46.576279420405626" lon="8.614028077572584">
        <ele>2865.3499999999999</ele>
        <time>2014-08-31T10:31:18Z</time>
      </trkpt>
      <trkpt lat="46.576230805367231" lon="8.614005027338862">
        <ele>2863.9000000000001</ele>
        <time>2014-08-31T10:31:30Z</time>
      </trkpt>
      <trkpt lat="46.576213035732508" lon="8.613966973498464">
        <ele>2861.98</ele>
        <time>2014-08-31T10:31:41Z</time>
      </trkpt>
      <trkpt lat="46.576222339645028" lon="8.613912155851722">
        <ele>2862.46</ele>
        <time>2014-08-31T10:32:03Z</time>
      </trkpt>
      <trkpt lat="46.576275648549199" lon="8.613905953243375">
        <ele>2862.9400000000001</ele>
        <time>2014-08-31T10:32:32Z</time>
      </trkpt>
      <trkpt lat="46.576193338260055" lon="8.613814255222678">
        <ele>2859.5799999999999</ele>
        <time>2014-08-31T10:32:44Z</time>
      </trkpt>
      <trkpt lat="46.576180597767234" lon="8.613801598548889">
        <ele>2859.5799999999999</ele>
        <time>2014-08-31T10:32:45Z</time>
      </trkpt>
      <trkpt lat="46.576121002435684" lon="8.613707972690463">
        <ele>2858.6199999999999</ele>
        <time>2014-08-31T10:32:57Z</time>
      </trkpt>
      <trkpt lat="46.576090827584267" lon="8.613687437027693">
        <ele>2857.6599999999999</ele>
        <time>2014-08-31T10:33:01Z</time>
      </trkpt>
      <trkpt lat="46.576052606105804" lon="8.613646365702152">
        <ele>2857.6599999999999</ele>
        <time>2014-08-31T10:33:08Z</time>
      </trkpt>
      <trkpt lat="46.576052019372582" lon="8.613613760098815">
        <ele>2857.6599999999999</ele>
        <time>2014-08-31T10:33:11Z</time>
      </trkpt>
      <trkpt lat="46.576005248352885" lon="8.613572185859084">
        <ele>2855.73</ele>
        <time>2014-08-31T10:33:20Z</time>
      </trkpt>
      <trkpt lat="46.575920255854726" lon="8.613485684618354">
        <ele>2853.8099999999999</ele>
        <time>2014-08-31T10:33:31Z</time>
      </trkpt>
      <trkpt lat="46.575926207005978" lon="8.613485433161259">
        <ele>2855.73</ele>
        <time>2014-08-31T10:33:33Z</time>
      </trkpt>
      <trkpt lat="46.575866024941206" lon="8.613412762060762">
        <ele>2853.3299999999999</ele>
        <time>2014-08-31T10:33:52Z</time>
      </trkpt>
      <trkpt lat="46.575773237273097" lon="8.613343611359596">
        <ele>2849.9699999999998</ele>
        <time>2014-08-31T10:34:04Z</time>
      </trkpt>
      <trkpt lat="46.57571280375123" lon="8.613268341869116">
        <ele>2847.0799999999999</ele>
        <time>2014-08-31T10:34:14Z</time>
      </trkpt>
      <trkpt lat="46.575616914778948" lon="8.61318695358932">
        <ele>2845.6399999999999</ele>
        <time>2014-08-31T10:34:26Z</time>
      </trkpt>
      <trkpt lat="46.575563186779618" lon="8.613128531724215">
        <ele>2845.1599999999999</ele>
        <time>2014-08-31T10:34:33Z</time>
      </trkpt>
      <trkpt lat="46.575506860390306" lon="8.613035827875137">
        <ele>2845.1599999999999</ele>
        <time>2014-08-31T10:34:42Z</time>
      </trkpt>
      <trkpt lat="46.575494706630707" lon="8.613040521740913">
        <ele>2845.6399999999999</ele>
        <time>2014-08-31T10:34:56Z</time>
      </trkpt>
      <trkpt lat="46.575546506792307" lon="8.613009843975306">
        <ele>2845.6399999999999</ele>
        <time>2014-08-31T10:35:12Z</time>
      </trkpt>
      <trkpt lat="46.575527312234044" lon="8.613000959157944">
        <ele>2844.1999999999998</ele>
        <time>2014-08-31T10:35:30Z</time>
      </trkpt>
      <trkpt lat="46.575511135160923" lon="8.612932311370969">
        <ele>2845.1599999999999</ele>
        <time>2014-08-31T10:35:34Z</time>
      </trkpt>
      <trkpt lat="46.575495041906834" lon="8.61288252286613">
        <ele>2843.7199999999998</ele>
        <time>2014-08-31T10:35:39Z</time>
      </trkpt>
      <trkpt lat="46.575454054400325" lon="8.612889479845762">
        <ele>2841.79</ele>
        <time>2014-08-31T10:35:51Z</time>
      </trkpt>
      <trkpt lat="46.575386496260762" lon="8.612841200083494">
        <ele>2840.3499999999999</ele>
        <time>2014-08-31T10:36:02Z</time>
      </trkpt>
      <trkpt lat="46.575331091880798" lon="8.61281706020236">
        <ele>2839.3899999999999</ele>
        <time>2014-08-31T10:36:12Z</time>
      </trkpt>
      <trkpt lat="46.575306365266442" lon="8.612808929756284">
        <ele>2837.9499999999998</ele>
        <time>2014-08-31T10:36:17Z</time>
      </trkpt>
      <trkpt lat="46.575227240100503" lon="8.612788645550609">
        <ele>2834.5799999999999</ele>
        <time>2014-08-31T10:36:31Z</time>
      </trkpt>
      <trkpt lat="46.575180133804679" lon="8.612761320546269">
        <ele>2832.6599999999999</ele>
        <time>2014-08-31T10:36:42Z</time>
      </trkpt>
      <trkpt lat="46.575141828507185" lon="8.612707844004035">
        <ele>2832.1799999999998</ele>
        <time>2014-08-31T10:36:48Z</time>
      </trkpt>
      <trkpt lat="46.5750668104738" lon="8.612680099904537">
        <ele>2831.6999999999998</ele>
        <time>2014-08-31T10:36:56Z</time>
      </trkpt>
      <trkpt lat="46.575013920664787" lon="8.612602567300201">
        <ele>2831.2199999999998</ele>
        <time>2014-08-31T10:37:06Z</time>
      </trkpt>
      <trkpt lat="46.575001599267125" lon="8.612597035244107">
        <ele>2830.7399999999998</ele>
        <time>2014-08-31T10:37:10Z</time>
      </trkpt>
      <trkpt lat="46.574916858226061" lon="8.612555880099535">
        <ele>2829.7800000000002</ele>
        <time>2014-08-31T10:37:21Z</time>
      </trkpt>
      <trkpt lat="46.574918366968632" lon="8.612552862614393">
        <ele>2829.7800000000002</ele>
        <time>2014-08-31T10:37:28Z</time>
      </trkpt>
      <trkpt lat="46.574828932061791" lon="8.612492512911558">
        <ele>2830.7399999999998</ele>
        <time>2014-08-31T10:37:41Z</time>
      </trkpt>
      <trkpt lat="46.574772773310542" lon="8.612447753548622">
        <ele>2831.6999999999998</ele>
        <time>2014-08-31T10:37:52Z</time>
      </trkpt>
      <trkpt lat="46.574752321466804" lon="8.61245010048151">
        <ele>2831.2199999999998</ele>
        <time>2014-08-31T10:37:55Z</time>
      </trkpt>
      <trkpt lat="46.574707310646772" lon="8.612420428544283">
        <ele>2832.1799999999998</ele>
        <time>2014-08-31T10:38:03Z</time>
      </trkpt>
      <trkpt lat="46.57464561983943" lon="8.612434174865484">
        <ele>2831.2199999999998</ele>
        <time>2014-08-31T10:38:15Z</time>
      </trkpt>
      <trkpt lat="46.574598681181669" lon="8.612410286441445">
        <ele>2829.7800000000002</ele>
        <time>2014-08-31T10:38:24Z</time>
      </trkpt>
      <trkpt lat="46.574490470811725" lon="8.612367538735271">
        <ele>2827.8499999999999</ele>
        <time>2014-08-31T10:38:37Z</time>
      </trkpt>
      <trkpt lat="46.574445543810725" lon="8.612340297549963">
        <ele>2827.8499999999999</ele>
        <time>2014-08-31T10:38:43Z</time>
      </trkpt>
      <trkpt lat="46.574363149702549" lon="8.612324707210064">
        <ele>2827.3699999999999</ele>
        <time>2014-08-31T10:38:52Z</time>
      </trkpt>
      <trkpt lat="46.574337668716908" lon="8.612303417176008">
        <ele>2827.3699999999999</ele>
        <time>2014-08-31T10:38:55Z</time>
      </trkpt>
      <trkpt lat="46.574298441410065" lon="8.612287491559982">
        <ele>2827.8499999999999</ele>
        <time>2014-08-31T10:38:59Z</time>
      </trkpt>
      <trkpt lat="46.574267093092203" lon="8.612268380820751">
        <ele>2827.8499999999999</ele>
        <time>2014-08-31T10:39:03Z</time>
      </trkpt>
      <trkpt lat="46.574167599901557" lon="8.612293191254139">
        <ele>2824.9699999999998</ele>
        <time>2014-08-31T10:39:17Z</time>
      </trkpt>
      <trkpt lat="46.574114710092545" lon="8.612300818786025">
        <ele>2821.6100000000001</ele>
        <time>2014-08-31T10:39:29Z</time>
      </trkpt>
      <trkpt lat="46.57408026047051" lon="8.6123401299119">
        <ele>2820.6500000000001</ele>
        <time>2014-08-31T10:39:40Z</time>
      </trkpt>
      <trkpt lat="46.574058635160327" lon="8.612337866798043">
        <ele>2818.7199999999998</ele>
        <time>2014-08-31T10:39:43Z</time>
      </trkpt>
      <trkpt lat="46.574023431167006" lon="8.612350858747959">
        <ele>2816.8000000000002</ele>
        <time>2014-08-31T10:39:54Z</time>
      </trkpt>
      <trkpt lat="46.573984622955322" lon="8.612387906759977">
        <ele>2814.8800000000001</ele>
        <time>2014-08-31T10:40:06Z</time>
      </trkpt>
      <trkpt lat="46.573940869420767" lon="8.612421434372664">
        <ele>2813.4400000000001</ele>
        <time>2014-08-31T10:40:17Z</time>
      </trkpt>
      <trkpt lat="46.5739356726408" lon="8.61242369748652">
        <ele>2813.4400000000001</ele>
        <time>2014-08-31T10:40:18Z</time>
      </trkpt>
      <trkpt lat="46.573876915499568" lon="8.612448591738939">
        <ele>2812.96</ele>
        <time>2014-08-31T10:40:24Z</time>
      </trkpt>
      <trkpt lat="46.573810027912259" lon="8.612479437142611">
        <ele>2811.0300000000002</ele>
        <time>2014-08-31T10:40:37Z</time>
      </trkpt>
      <trkpt lat="46.573793515563011" lon="8.61251212656498">
        <ele>2809.5900000000001</ele>
        <time>2014-08-31T10:40:43Z</time>
      </trkpt>
      <trkpt lat="46.573772393167019" lon="8.612527633085847">
        <ele>2808.6300000000001</ele>
        <time>2014-08-31T10:40:45Z</time>
      </trkpt>
      <trkpt lat="46.573716653510928" lon="8.612503409385681">
        <ele>2807.6700000000001</ele>
        <time>2014-08-31T10:40:52Z</time>
      </trkpt>
      <trkpt lat="46.573646329343319" lon="8.612449932843447">
        <ele>2806.71</ele>
        <time>2014-08-31T10:41:03Z</time>
      </trkpt>
      <trkpt lat="46.573643395677209" lon="8.612443981692195">
        <ele>2806.71</ele>
        <time>2014-08-31T10:41:23Z</time>
      </trkpt>
      <trkpt lat="46.573622357100248" lon="8.612451022490859">
        <ele>2806.23</ele>
        <time>2014-08-31T10:41:43Z</time>
      </trkpt>
      <trkpt lat="46.573580615222454" lon="8.612459069117904">
        <ele>2803.3400000000001</ele>
        <time>2014-08-31T10:41:49Z</time>
      </trkpt>
      <trkpt lat="46.57357357442379" lon="8.612461248412728">
        <ele>2802.8600000000001</ele>
        <time>2014-08-31T10:41:50Z</time>
      </trkpt>
      <trkpt lat="46.573531916365027" lon="8.612483041360974">
        <ele>2800.9400000000001</ele>
        <time>2014-08-31T10:41:57Z</time>
      </trkpt>
      <trkpt lat="46.573458407074213" lon="8.612441131845117">
        <ele>2798.54</ele>
        <time>2014-08-31T10:42:10Z</time>
      </trkpt>
      <trkpt lat="46.573462430387735" lon="8.612402155995369">
        <ele>2798.54</ele>
        <time>2014-08-31T10:42:26Z</time>
      </trkpt>
      <trkpt lat="46.573460334911942" lon="8.61242663115263">
        <ele>2798.54</ele>
        <time>2014-08-31T10:42:36Z</time>
      </trkpt>
      <trkpt lat="46.573455389589071" lon="8.612437695264816">
        <ele>2798.54</ele>
        <time>2014-08-31T10:42:37Z</time>
      </trkpt>
      <trkpt lat="46.573428567498922" lon="8.612421937286854">
        <ele>2798.0500000000002</ele>
        <time>2014-08-31T10:42:47Z</time>
      </trkpt>
      <trkpt lat="46.573443571105599" lon="8.612412130460143">
        <ele>2798.0500000000002</ele>
        <time>2014-08-31T10:43:04Z</time>
      </trkpt>
      <trkpt lat="46.573434099555016" lon="8.612411459907889">
        <ele>2797.5700000000002</ele>
        <time>2014-08-31T10:43:22Z</time>
      </trkpt>
      <trkpt lat="46.573449103161693" lon="8.612455548718572">
        <ele>2798.0500000000002</ele>
        <time>2014-08-31T10:43:26Z</time>
      </trkpt>
      <trkpt lat="46.573451114818454" lon="8.61244473606348">
        <ele>2797.5700000000002</ele>
        <time>2014-08-31T10:43:36Z</time>
      </trkpt>
      <trkpt lat="46.573450695723295" lon="8.612435767427087">
        <ele>2799.02</ele>
        <time>2014-08-31T10:43:50Z</time>
      </trkpt>
      <trkpt lat="46.573459412902594" lon="8.612449681386352">
        <ele>2798.54</ele>
        <time>2014-08-31T10:43:53Z</time>
      </trkpt>
      <trkpt lat="46.573476763442159" lon="8.612505672499538">
        <ele>2797.5700000000002</ele>
        <time>2014-08-31T10:43:58Z</time>
      </trkpt>
      <trkpt lat="46.573497550562024" lon="8.612504079937935">
        <ele>2797.5700000000002</ele>
        <time>2014-08-31T10:44:00Z</time>
      </trkpt>
      <trkpt lat="46.573506686836481" lon="8.612528555095196">
        <ele>2797.0900000000001</ele>
        <time>2014-08-31T10:44:02Z</time>
      </trkpt>
      <trkpt lat="46.573474835604429" lon="8.61257373355329">
        <ele>2796.1300000000001</ele>
        <time>2014-08-31T10:44:07Z</time>
      </trkpt>
      <trkpt lat="46.573425298556685" lon="8.612676495686173">
        <ele>2793.73</ele>
        <time>2014-08-31T10:44:18Z</time>
      </trkpt>
      <trkpt lat="46.573375593870878" lon="8.61269979737699">
        <ele>2791.8099999999999</ele>
        <time>2014-08-31T10:44:23Z</time>
      </trkpt>
      <trkpt lat="46.573367044329643" lon="8.612708011642098">
        <ele>2791.8099999999999</ele>
        <time>2014-08-31T10:44:24Z</time>
      </trkpt>
      <trkpt lat="46.573287080973387" lon="8.612716142088175">
        <ele>2788.9200000000001</ele>
        <time>2014-08-31T10:44:33Z</time>
      </trkpt>
      <trkpt lat="46.573234023526311" lon="8.612689571455121">
        <ele>2786.04</ele>
        <time>2014-08-31T10:44:48Z</time>
      </trkpt>
      <trkpt lat="46.573208793997765" lon="8.612627880647779">
        <ele>2784.1199999999999</ele>
        <time>2014-08-31T10:44:58Z</time>
      </trkpt>
      <trkpt lat="46.573189850896597" lon="8.612603154033423">
        <ele>2783.1500000000001</ele>
        <time>2014-08-31T10:45:02Z</time>
      </trkpt>
      <trkpt lat="46.573138386011124" lon="8.612513719126582">
        <ele>2780.27</ele>
        <time>2014-08-31T10:45:12Z</time>
      </trkpt>
      <trkpt lat="46.573093710467219" lon="8.612500140443444">
        <ele>2777.8699999999999</ele>
        <time>2014-08-31T10:45:22Z</time>
      </trkpt>
      <trkpt lat="46.57307124696672" lon="8.612628551200032">
        <ele>2777.3899999999999</ele>
        <time>2014-08-31T10:45:36Z</time>
      </trkpt>
      <trkpt lat="46.573069067671895" lon="8.61263626255095">
        <ele>2778.8299999999999</ele>
        <time>2014-08-31T10:45:40Z</time>
      </trkpt>
      <trkpt lat="46.573078203946352" lon="8.612617990002036">
        <ele>2776.9099999999999</ele>
        <time>2014-08-31T10:45:49Z</time>
      </trkpt>
      <trkpt lat="46.573079880326986" lon="8.612623186782002">
        <ele>2776.4200000000001</ele>
        <time>2014-08-31T10:46:03Z</time>
      </trkpt>
      <trkpt lat="46.573070827871561" lon="8.612621929496527">
        <ele>2776.4200000000001</ele>
        <time>2014-08-31T10:46:15Z</time>
      </trkpt>
      <trkpt lat="46.573098320513964" lon="8.612627293914557">
        <ele>2775.9400000000001</ele>
        <time>2014-08-31T10:46:47Z</time>
      </trkpt>
      <trkpt lat="46.573116006329656" lon="8.612672640010715">
        <ele>2776.4200000000001</ele>
        <time>2014-08-31T10:47:18Z</time>
      </trkpt>
      <trkpt lat="46.573061523959041" lon="8.612631652504206">
        <ele>2776.4200000000001</ele>
        <time>2014-08-31T10:47:49Z</time>
      </trkpt>
      <trkpt lat="46.573065295815468" lon="8.612621761858463">
        <ele>2776.9099999999999</ele>
        <time>2014-08-31T10:48:32Z</time>
      </trkpt>
      <trkpt lat="46.573057416826487" lon="8.612624276429415">
        <ele>2776.9099999999999</ele>
        <time>2014-08-31T10:49:03Z</time>
      </trkpt>
      <trkpt lat="46.573059596121311" lon="8.612623605877161">
        <ele>2776.9099999999999</ele>
        <time>2014-08-31T10:49:33Z</time>
      </trkpt>
      <trkpt lat="46.573055740445852" lon="8.612619414925575">
        <ele>2776.9099999999999</ele>
        <time>2014-08-31T10:50:09Z</time>
      </trkpt>
      <trkpt lat="46.57305708155036" lon="8.612630227580667">
        <ele>2777.3899999999999</ele>
        <time>2014-08-31T10:50:42Z</time>
      </trkpt>
      <trkpt lat="46.573056327179074" lon="8.612627880647779">
        <ele>2777.3899999999999</ele>
        <time>2014-08-31T10:51:10Z</time>
      </trkpt>
      <trkpt lat="46.573066050186753" lon="8.61261916346848">
        <ele>2777.3899999999999</ele>
        <time>2014-08-31T10:51:29Z</time>
      </trkpt>
      <trkpt lat="46.57305121421814" lon="8.61262109130621">
        <ele>2777.3899999999999</ele>
        <time>2014-08-31T10:51:57Z</time>
      </trkpt>
      <trkpt lat="46.573059847578406" lon="8.612615140154958">
        <ele>2777.3899999999999</ele>
        <time>2014-08-31T10:52:22Z</time>
      </trkpt>
      <trkpt lat="46.573050376027822" lon="8.612611284479499">
        <ele>2777.3899999999999</ele>
        <time>2014-08-31T10:52:53Z</time>
      </trkpt>
      <trkpt lat="46.573048112913966" lon="8.612618409097195">
        <ele>2777.3899999999999</ele>
        <time>2014-08-31T10:53:16Z</time>
      </trkpt>
      <trkpt lat="46.573061943054199" lon="8.612619750201702">
        <ele>2777.3899999999999</ele>
        <time>2014-08-31T10:53:44Z</time>
      </trkpt>
      <trkpt lat="46.573056243360043" lon="8.612622767686844">
        <ele>2777.3899999999999</ele>
        <time>2014-08-31T10:54:03Z</time>
      </trkpt>
      <trkpt lat="46.573053644970059" lon="8.612611955031753">
        <ele>2777.3899999999999</ele>
        <time>2014-08-31T10:54:33Z</time>
      </trkpt>
      <trkpt lat="46.573056746274233" lon="8.612606339156628">
        <ele>2777.3899999999999</ele>
        <time>2014-08-31T10:55:02Z</time>
      </trkpt>
      <trkpt lat="46.573061691597104" lon="8.612610949203372">
        <ele>2776.9099999999999</ele>
        <time>2014-08-31T10:55:28Z</time>
      </trkpt>
      <trkpt lat="46.573061775416136" lon="8.612610781565309">
        <ele>2776.9099999999999</ele>
        <time>2014-08-31T10:55:57Z</time>
      </trkpt>
      <trkpt lat="46.573061104863882" lon="8.612609608098865">
        <ele>2776.9099999999999</ele>
        <time>2014-08-31T10:56:18Z</time>
      </trkpt>
      <trkpt lat="46.573055321350694" lon="8.612612374126911">
        <ele>2776.4200000000001</ele>
        <time>2014-08-31T10:56:49Z</time>
      </trkpt>
      <trkpt lat="46.573054986074567" lon="8.612613631412387">
        <ele>2776.4200000000001</ele>
        <time>2014-08-31T10:57:28Z</time>
      </trkpt>
      <trkpt lat="46.573052639141679" lon="8.612613547593355">
        <ele>2776.9099999999999</ele>
        <time>2014-08-31T10:57:51Z</time>
      </trkpt>
      <trkpt lat="46.573047526180744" lon="8.612614553421736">
        <ele>2776.4200000000001</ele>
        <time>2014-08-31T10:58:18Z</time>
      </trkpt>
      <trkpt lat="46.573048448190093" lon="8.612626623362303">
        <ele>2776.4200000000001</ele>
        <time>2014-08-31T10:58:40Z</time>
      </trkpt>
      <trkpt lat="46.573068061843514" lon="8.612620253115892">
        <ele>2776.4200000000001</ele>
        <time>2014-08-31T10:58:56Z</time>
      </trkpt>
      <trkpt lat="46.573092453181744" lon="8.612616062164307">
        <ele>2776.4200000000001</ele>
        <time>2014-08-31T10:59:19Z</time>
      </trkpt>
      <trkpt lat="46.573070576414466" lon="8.612609775736928">
        <ele>2776.9099999999999</ele>
        <time>2014-08-31T10:59:51Z</time>
      </trkpt>
      <trkpt lat="46.573071414604783" lon="8.612610027194023">
        <ele>2776.4200000000001</ele>
        <time>2014-08-31T11:00:27Z</time>
      </trkpt>
      <trkpt lat="46.573069654405117" lon="8.612606171518564">
        <ele>2776.4200000000001</ele>
        <time>2014-08-31T11:01:08Z</time>
      </trkpt>
      <trkpt lat="46.573064709082246" lon="8.612603321671486">
        <ele>2776.4200000000001</ele>
        <time>2014-08-31T11:01:52Z</time>
      </trkpt>
      <trkpt lat="46.573070324957371" lon="8.612597035244107">
        <ele>2776.4200000000001</ele>
        <time>2014-08-31T11:02:29Z</time>
      </trkpt>
      <trkpt lat="46.573070744052529" lon="8.612597454339266">
        <ele>2776.4200000000001</ele>
        <time>2014-08-31T11:03:03Z</time>
      </trkpt>
      <trkpt lat="46.573082646355033" lon="8.612614469602704">
        <ele>2776.9099999999999</ele>
        <time>2014-08-31T11:03:35Z</time>
      </trkpt>
      <trkpt lat="46.573083149269223" lon="8.612638441845775">
        <ele>2776.4200000000001</ele>
        <time>2014-08-31T11:03:56Z</time>
      </trkpt>
      <trkpt lat="46.573075354099274" lon="8.612631233409047">
        <ele>2776.9099999999999</ele>
        <time>2014-08-31T11:04:48Z</time>
      </trkpt>
      <trkpt lat="46.573070995509624" lon="8.612627713009715">
        <ele>2776.9099999999999</ele>
        <time>2014-08-31T11:05:33Z</time>
      </trkpt>
      <trkpt lat="46.573069151490927" lon="8.612630730494857">
        <ele>2776.9099999999999</ele>
        <time>2014-08-31T11:06:20Z</time>
      </trkpt>
      <trkpt lat="46.573071666061878" lon="8.612609440460801">
        <ele>2777.3899999999999</ele>
        <time>2014-08-31T11:07:04Z</time>
      </trkpt>
      <trkpt lat="46.573077868670225" lon="8.612624946981669">
        <ele>2776.9099999999999</ele>
        <time>2014-08-31T11:07:42Z</time>
      </trkpt>
      <trkpt lat="46.573071917518973" lon="8.61263282597065">
        <ele>2776.4200000000001</ele>
        <time>2014-08-31T11:08:34Z</time>
      </trkpt>
      <trkpt lat="46.573076108470559" lon="8.612632323056459">
        <ele>2776.4200000000001</ele>
        <time>2014-08-31T11:09:16Z</time>
      </trkpt>
      <trkpt lat="46.573070995509624" lon="8.612632742151618">
        <ele>2776.4200000000001</ele>
        <time>2014-08-31T11:09:53Z</time>
      </trkpt>
      <trkpt lat="46.573080299422145" lon="8.612621929496527">
        <ele>2776.4200000000001</ele>
        <time>2014-08-31T11:10:38Z</time>
      </trkpt>
      <trkpt lat="46.57307761721313" lon="8.612614218145609">
        <ele>2776.4200000000001</ele>
        <time>2014-08-31T11:11:22Z</time>
      </trkpt>
      <trkpt lat="46.573083065450191" lon="8.612617319449782">
        <ele>2775.9400000000001</ele>
        <time>2014-08-31T11:12:04Z</time>
      </trkpt>
      <trkpt lat="46.57307711429894" lon="8.61261086538434">
        <ele>2775.9400000000001</ele>
        <time>2014-08-31T11:12:40Z</time>
      </trkpt>
      <trkpt lat="46.573068480938673" lon="8.61263626255095">
        <ele>2775.9400000000001</ele>
        <time>2014-08-31T11:13:15Z</time>
      </trkpt>
      <trkpt lat="46.573068732395768" lon="8.612631903961301">
        <ele>2775.9400000000001</ele>
        <time>2014-08-31T11:13:51Z</time>
      </trkpt>
      <trkpt lat="46.573073845356703" lon="8.612613379955292">
        <ele>2775.9400000000001</ele>
        <time>2014-08-31T11:14:36Z</time>
      </trkpt>
      <trkpt lat="46.573072923347354" lon="8.612615056335926">
        <ele>2775.9400000000001</ele>
        <time>2014-08-31T11:15:24Z</time>
      </trkpt>
      <trkpt lat="46.573075521737337" lon="8.612620504572988">
        <ele>2775.46</ele>
        <time>2014-08-31T11:16:09Z</time>
      </trkpt>
      <trkpt lat="46.57306688837707" lon="8.612607344985008">
        <ele>2775.9400000000001</ele>
        <time>2014-08-31T11:16:41Z</time>
      </trkpt>
      <trkpt lat="46.57305708155036" lon="8.612635508179665">
        <ele>2776.4200000000001</ele>
        <time>2014-08-31T11:16:51Z</time>
      </trkpt>
      <trkpt lat="46.573059009388089" lon="8.612595861777663">
        <ele>2776.4200000000001</ele>
        <time>2014-08-31T11:17:10Z</time>
      </trkpt>
      <trkpt lat="46.573062865063548" lon="8.612596364691854">
        <ele>2775.9400000000001</ele>
        <time>2014-08-31T11:17:27Z</time>
      </trkpt>
      <trkpt lat="46.573060182854533" lon="8.612593598663807">
        <ele>2776.4200000000001</ele>
        <time>2014-08-31T11:17:48Z</time>
      </trkpt>
      <trkpt lat="46.573057416826487" lon="8.612586138769984">
        <ele>2775.9400000000001</ele>
        <time>2014-08-31T11:18:16Z</time>
      </trkpt>
      <trkpt lat="46.573058171197772" lon="8.612599801272154">
        <ele>2775.9400000000001</ele>
        <time>2014-08-31T11:18:37Z</time>
      </trkpt>
      <trkpt lat="46.573067307472229" lon="8.612620169296861">
        <ele>2775.9400000000001</ele>
        <time>2014-08-31T11:19:09Z</time>
      </trkpt>
      <trkpt lat="46.573045095428824" lon="8.612516988068819">
        <ele>2774.98</ele>
        <time>2014-08-31T11:19:31Z</time>
      </trkpt>
      <trkpt lat="46.572990864515305" lon="8.612520759925246">
        <ele>2772.5799999999999</ele>
        <time>2014-08-31T11:19:43Z</time>
      </trkpt>
      <trkpt lat="46.572973262518644" lon="8.612424284219742">
        <ele>2769.6999999999998</ele>
        <time>2014-08-31T11:19:53Z</time>
      </trkpt>
      <trkpt lat="46.573004107922316" lon="8.61232009716332">
        <ele>2767.77</ele>
        <time>2014-08-31T11:20:05Z</time>
      </trkpt>
      <trkpt lat="46.57298089005053" lon="8.612264189869165">
        <ele>2766.3299999999999</ele>
        <time>2014-08-31T11:20:18Z</time>
      </trkpt>
      <trkpt lat="46.572963204234838" lon="8.61223510466516">
        <ele>2764.8899999999999</ele>
        <time>2014-08-31T11:20:28Z</time>
      </trkpt>
      <trkpt lat="46.572980219498277" lon="8.612165953963995">
        <ele>2763.4499999999998</ele>
        <time>2014-08-31T11:20:40Z</time>
      </trkpt>
      <trkpt lat="46.572970999404788" lon="8.612090852111578">
        <ele>2760.5599999999999</ele>
        <time>2014-08-31T11:20:52Z</time>
      </trkpt>
      <trkpt lat="46.572962952777743" lon="8.612053468823433">
        <ele>2759.1199999999999</ele>
        <time>2014-08-31T11:20:56Z</time>
      </trkpt>
      <trkpt lat="46.572952810674906" lon="8.611968224868178">
        <ele>2758.6399999999999</ele>
        <time>2014-08-31T11:21:08Z</time>
      </trkpt>
      <trkpt lat="46.572905369102955" lon="8.61193997785449">
        <ele>2755.7600000000002</ele>
        <time>2014-08-31T11:21:16Z</time>
      </trkpt>
      <trkpt lat="46.572858681902289" lon="8.611808214336634">
        <ele>2752.8699999999999</ele>
        <time>2014-08-31T11:21:32Z</time>
      </trkpt>
      <trkpt lat="46.572859352454543" lon="8.611777368932962">
        <ele>2752.8699999999999</ele>
        <time>2014-08-31T11:21:39Z</time>
      </trkpt>
      <trkpt lat="46.572869410738349" lon="8.611691202968359">
        <ele>2752.3899999999999</ele>
        <time>2014-08-31T11:21:51Z</time>
      </trkpt>
      <trkpt lat="46.572827752679586" lon="8.611715426668525">
        <ele>2749.5100000000002</ele>
        <time>2014-08-31T11:22:04Z</time>
      </trkpt>
      <trkpt lat="46.572781149297953" lon="8.611696986481547">
        <ele>2747.0999999999999</ele>
        <time>2014-08-31T11:22:13Z</time>
      </trkpt>
      <trkpt lat="46.572772683575749" lon="8.611657340079546">
        <ele>2745.1799999999998</ele>
        <time>2014-08-31T11:22:17Z</time>
      </trkpt>
      <trkpt lat="46.57278886064887" lon="8.611632697284222">
        <ele>2745.1799999999998</ele>
        <time>2014-08-31T11:22:19Z</time>
      </trkpt>
      <trkpt lat="46.572791375219822" lon="8.611487103626132">
        <ele>2741.8200000000002</ele>
        <time>2014-08-31T11:22:33Z</time>
      </trkpt>
      <trkpt lat="46.572791542857885" lon="8.611456844955683">
        <ele>2740.8600000000001</ele>
        <time>2014-08-31T11:22:35Z</time>
      </trkpt>
      <trkpt lat="46.572797661647201" lon="8.611439829692245">
        <ele>2740.3800000000001</ele>
        <time>2014-08-31T11:22:36Z</time>
      </trkpt>
      <trkpt lat="46.572810402140021" lon="8.611388113349676">
        <ele>2739.8899999999999</ele>
        <time>2014-08-31T11:22:41Z</time>
      </trkpt>
      <trkpt lat="46.572775868698955" lon="8.611236233264208">
        <ele>2736.0500000000002</ele>
        <time>2014-08-31T11:22:55Z</time>
      </trkpt>
      <trkpt lat="46.5727424249053" lon="8.611145038157702">
        <ele>2733.6500000000001</ele>
        <time>2014-08-31T11:23:05Z</time>
      </trkpt>
      <trkpt lat="46.572698000818491" lon="8.611056944355369">
        <ele>2730.2800000000002</ele>
        <time>2014-08-31T11:23:18Z</time>
      </trkpt>
      <trkpt lat="46.572692804038525" lon="8.611040432006121">
        <ele>2730.2800000000002</ele>
        <time>2014-08-31T11:23:31Z</time>
      </trkpt>
      <trkpt lat="46.572696659713984" lon="8.610972873866558">
        <ele>2729.8000000000002</ele>
        <time>2014-08-31T11:23:49Z</time>
      </trkpt>
      <trkpt lat="46.572660198435187" lon="8.610865082591772">
        <ele>2725.96</ele>
        <time>2014-08-31T11:24:00Z</time>
      </trkpt>
      <trkpt lat="46.572607476264238" lon="8.610755614936352">
        <ele>2722.5900000000001</ele>
        <time>2014-08-31T11:24:10Z</time>
      </trkpt>
      <trkpt lat="46.572597920894623" lon="8.610738096758723">
        <ele>2721.6300000000001</ele>
        <time>2014-08-31T11:24:12Z</time>
      </trkpt>
      <trkpt lat="46.572568919509649" lon="8.610682943835855">
        <ele>2719.71</ele>
        <time>2014-08-31T11:24:22Z</time>
      </trkpt>
      <trkpt lat="46.572545114904642" lon="8.610540283843875">
        <ele>2717.3000000000002</ele>
        <time>2014-08-31T11:24:34Z</time>
      </trkpt>
      <trkpt lat="46.572533464059234" lon="8.610470294952393">
        <ele>2715.3800000000001</ele>
        <time>2014-08-31T11:24:40Z</time>
      </trkpt>
      <trkpt lat="46.572501696646214" lon="8.610446825623512">
        <ele>2713.9400000000001</ele>
        <time>2014-08-31T11:24:48Z</time>
      </trkpt>
      <trkpt lat="46.572415614500642" lon="8.610418075695634">
        <ele>2710.5700000000002</ele>
        <time>2014-08-31T11:25:00Z</time>
      </trkpt>
      <trkpt lat="46.572373202070594" lon="8.610371472314">
        <ele>2709.6100000000001</ele>
        <time>2014-08-31T11:25:06Z</time>
      </trkpt>
      <trkpt lat="46.572359791025519" lon="8.610290670767427">
        <ele>2706.73</ele>
        <time>2014-08-31T11:25:14Z</time>
      </trkpt>
      <trkpt lat="46.572332130745053" lon="8.610214814543724">
        <ele>2704.3299999999999</ele>
        <time>2014-08-31T11:25:26Z</time>
      </trkpt>
      <trkpt lat="46.572316037490964" lon="8.610157063230872">
        <ele>2701.9200000000001</ele>
        <time>2014-08-31T11:25:33Z</time>
      </trkpt>
      <trkpt lat="46.572315702214837" lon="8.610005099326372">
        <ele>2699.52</ele>
        <time>2014-08-31T11:25:48Z</time>
      </trkpt>
      <trkpt lat="46.572307571768761" lon="8.609971655532718">
        <ele>2697.5999999999999</ele>
        <time>2014-08-31T11:25:58Z</time>
      </trkpt>
      <trkpt lat="46.572279157117009" lon="8.609960339963436">
        <ele>2695.6700000000001</ele>
        <time>2014-08-31T11:26:11Z</time>
      </trkpt>
      <trkpt lat="46.572249066084623" lon="8.60993754118681">
        <ele>2693.27</ele>
        <time>2014-08-31T11:26:18Z</time>
      </trkpt>
      <trkpt lat="46.572222830727696" lon="8.609922369942069">
        <ele>2692.3099999999999</ele>
        <time>2014-08-31T11:26:21Z</time>
      </trkpt>
      <trkpt lat="46.572193829342723" lon="8.609797647222877">
        <ele>2689.4299999999998</ele>
        <time>2014-08-31T11:26:34Z</time>
      </trkpt>
      <trkpt lat="46.572166755795479" lon="8.609684659168124">
        <ele>2687.02</ele>
        <time>2014-08-31T11:26:47Z</time>
      </trkpt>
      <trkpt lat="46.572133731096983" lon="8.609565300866962">
        <ele>2684.1399999999999</ele>
        <time>2014-08-31T11:27:01Z</time>
      </trkpt>
      <trkpt lat="46.572122583165765" lon="8.609488438814879">
        <ele>2682.2199999999998</ele>
        <time>2014-08-31T11:27:15Z</time>
      </trkpt>
      <trkpt lat="46.572123086079955" lon="8.609466394409537">
        <ele>2682.2199999999998</ele>
        <time>2014-08-31T11:27:17Z</time>
      </trkpt>
      <trkpt lat="46.5720568690449" lon="8.609360866248608">
        <ele>2678.8499999999999</ele>
        <time>2014-08-31T11:27:31Z</time>
      </trkpt>
      <trkpt lat="46.572021162137389" lon="8.609376708045602">
        <ele>2675.9699999999998</ele>
        <time>2014-08-31T11:27:43Z</time>
      </trkpt>
      <trkpt lat="46.571983192116022" lon="8.609319711104035">
        <ele>2673.5599999999999</ele>
        <time>2014-08-31T11:27:54Z</time>
      </trkpt>
      <trkpt lat="46.571971457451582" lon="8.609299343079329">
        <ele>2673.0799999999999</ele>
        <time>2014-08-31T11:27:56Z</time>
      </trkpt>
      <trkpt lat="46.571923177689314" lon="8.609164897352457">
        <ele>2670.6799999999998</ele>
        <time>2014-08-31T11:28:08Z</time>
      </trkpt>
      <trkpt lat="46.571914376690984" lon="8.609082670882344">
        <ele>2669.7199999999998</ele>
        <time>2014-08-31T11:28:18Z</time>
      </trkpt>
      <trkpt lat="46.571869701147079" lon="8.608994660899043">
        <ele>2667.3099999999999</ele>
        <time>2014-08-31T11:28:30Z</time>
      </trkpt>
      <trkpt lat="46.571832820773125" lon="8.608889635652304">
        <ele>2664.9099999999999</ele>
        <time>2014-08-31T11:28:44Z</time>
      </trkpt>
      <trkpt lat="46.571795186027884" lon="8.608809420838952">
        <ele>2663.9499999999998</ele>
        <time>2014-08-31T11:28:51Z</time>
      </trkpt>
      <trkpt lat="46.571786385029554" lon="8.608759799972177">
        <ele>2663.9499999999998</ele>
        <time>2014-08-31T11:29:04Z</time>
      </trkpt>
      <trkpt lat="46.571793677285314" lon="8.608727026730776">
        <ele>2664.4299999999998</ele>
        <time>2014-08-31T11:29:19Z</time>
      </trkpt>
      <trkpt lat="46.571796191856265" lon="8.60873700119555">
        <ele>2663.9499999999998</ele>
        <time>2014-08-31T11:29:49Z</time>
      </trkpt>
      <trkpt lat="46.571780685335398" lon="8.608750328421593">
        <ele>2664.4299999999998</ele>
        <time>2014-08-31T11:30:05Z</time>
      </trkpt>
      <trkpt lat="46.571774650365114" lon="8.60874043777585">
        <ele>2663.4699999999998</ele>
        <time>2014-08-31T11:30:29Z</time>
      </trkpt>
      <trkpt lat="46.57179107889533" lon="8.608750915154815">
        <ele>2663.9499999999998</ele>
        <time>2014-08-31T11:30:46Z</time>
      </trkpt>
      <trkpt lat="46.571771213784814" lon="8.608758375048637">
        <ele>2663.9499999999998</ele>
        <time>2014-08-31T11:30:59Z</time>
      </trkpt>
      <trkpt lat="46.571788899600506" lon="8.608761811628938">
        <ele>2664.4299999999998</ele>
        <time>2014-08-31T11:31:18Z</time>
      </trkpt>
      <trkpt lat="46.57178521156311" lon="8.608780587092042">
        <ele>2664.9099999999999</ele>
        <time>2014-08-31T11:31:36Z</time>
      </trkpt>
      <trkpt lat="46.571785882115364" lon="8.608773211017251">
        <ele>2664.4299999999998</ele>
        <time>2014-08-31T11:31:53Z</time>
      </trkpt>
      <trkpt lat="46.57177347689867" lon="8.60871990211308">
        <ele>2662.9899999999998</ele>
        <time>2014-08-31T11:32:03Z</time>
      </trkpt>
      <trkpt lat="46.57176811248064" lon="8.608585204929113">
        <ele>2661.5500000000002</ele>
        <time>2014-08-31T11:32:17Z</time>
      </trkpt>
      <trkpt lat="46.571765011176467" lon="8.608543630689383">
        <ele>2661.0700000000002</ele>
        <time>2014-08-31T11:32:20Z</time>
      </trkpt>
      <trkpt lat="46.571762161329389" lon="8.608520496636629">
        <ele>2661.0700000000002</ele>
        <time>2014-08-31T11:32:22Z</time>
      </trkpt>
      <trkpt lat="46.57172511331737" lon="8.608398456126452">
        <ele>2659.1399999999999</ele>
        <time>2014-08-31T11:32:35Z</time>
      </trkpt>
      <trkpt lat="46.571665517985821" lon="8.60832360573113">
        <ele>2657.2199999999998</ele>
        <time>2014-08-31T11:32:47Z</time>
      </trkpt>
      <trkpt lat="46.57161614857614" lon="8.608258562162519">
        <ele>2655.3000000000002</ele>
        <time>2014-08-31T11:33:02Z</time>
      </trkpt>
      <trkpt lat="46.571596534922719" lon="8.608211036771536">
        <ele>2655.7800000000002</ele>
        <time>2014-08-31T11:33:08Z</time>
      </trkpt>
      <trkpt lat="46.571558732539415" lon="8.608153034001589">
        <ele>2653.3800000000001</ele>
        <time>2014-08-31T11:33:15Z</time>
      </trkpt>
      <trkpt lat="46.571545405313373" lon="8.607994951307774">
        <ele>2652.9000000000001</ele>
        <time>2014-08-31T11:33:28Z</time>
      </trkpt>
      <trkpt lat="46.57155018299818" lon="8.607913479208946">
        <ele>2652.9000000000001</ele>
        <time>2014-08-31T11:33:39Z</time>
      </trkpt>
      <trkpt lat="46.571554876863956" lon="8.607920100912452">
        <ele>2652.4200000000001</ele>
        <time>2014-08-31T11:33:46Z</time>
      </trkpt>
      <trkpt lat="46.571480110287666" lon="8.607788924127817">
        <ele>2650.0100000000002</ele>
        <time>2014-08-31T11:33:59Z</time>
      </trkpt>
      <trkpt lat="46.571475332602859" lon="8.607777273282409">
        <ele>2649.5300000000002</ele>
        <time>2014-08-31T11:34:00Z</time>
      </trkpt>
      <trkpt lat="46.571455467492342" lon="8.607701333239675">
        <ele>2650.4899999999998</ele>
        <time>2014-08-31T11:34:07Z</time>
      </trkpt>
      <trkpt lat="46.571448007598519" lon="8.607683060690761">
        <ele>2649.0500000000002</ele>
        <time>2014-08-31T11:34:09Z</time>
      </trkpt>
      <trkpt lat="46.571416324004531" lon="8.607596810907126">
        <ele>2649.5300000000002</ele>
        <time>2014-08-31T11:34:17Z</time>
      </trkpt>
      <trkpt lat="46.571379275992513" lon="8.607506537809968">
        <ele>2648.5700000000002</ele>
        <time>2014-08-31T11:34:27Z</time>
      </trkpt>
      <trkpt lat="46.57130585052073" lon="8.60738885588944">
        <ele>2647.1300000000001</ele>
        <time>2014-08-31T11:34:42Z</time>
      </trkpt>
      <trkpt lat="46.571287410333753" lon="8.607308054342866">
        <ele>2647.1300000000001</ele>
        <time>2014-08-31T11:34:51Z</time>
      </trkpt>
      <trkpt lat="46.571257235482335" lon="8.607126586139202">
        <ele>2646.6500000000001</ele>
        <time>2014-08-31T11:35:07Z</time>
      </trkpt>
      <trkpt lat="46.571240471675992" lon="8.607098674401641">
        <ele>2646.6500000000001</ele>
        <time>2014-08-31T11:35:11Z</time>
      </trkpt>
      <trkpt lat="46.57120912335813" lon="8.607062129303813">
        <ele>2646.1700000000001</ele>
        <time>2014-08-31T11:35:15Z</time>
      </trkpt>
      <trkpt lat="46.571151204407215" lon="8.60689977183938">
        <ele>2644.7199999999998</ele>
        <time>2014-08-31T11:35:30Z</time>
      </trkpt>
      <trkpt lat="46.571097560226917" lon="8.606761218979955">
        <ele>2644.7199999999998</ele>
        <time>2014-08-31T11:35:43Z</time>
      </trkpt>
      <trkpt lat="46.571057578548789" lon="8.606659127399325">
        <ele>2644.2399999999998</ele>
        <time>2014-08-31T11:35:53Z</time>
      </trkpt>
      <trkpt lat="46.571028409525752" lon="8.606633394956589">
        <ele>2643.7600000000002</ele>
        <time>2014-08-31T11:35:56Z</time>
      </trkpt>
      <trkpt lat="46.571002928540111" lon="8.606364419683814">
        <ele>2642.8000000000002</ele>
        <time>2014-08-31T11:36:14Z</time>
      </trkpt>
      <trkpt lat="46.571015501394868" lon="8.606277331709862">
        <ele>2644.2399999999998</ele>
        <time>2014-08-31T11:36:21Z</time>
      </trkpt>
      <trkpt lat="46.571023548021913" lon="8.606094354763627">
        <ele>2645.21</ele>
        <time>2014-08-31T11:36:36Z</time>
      </trkpt>
      <trkpt lat="46.57099412754178" lon="8.605982875451446">
        <ele>2644.7199999999998</ele>
        <time>2014-08-31T11:36:44Z</time>
      </trkpt>
      <trkpt lat="46.570955151692033" lon="8.605867205187678">
        <ele>2643.2800000000002</ele>
        <time>2014-08-31T11:36:56Z</time>
      </trkpt>
      <trkpt lat="46.570914750918746" lon="8.605763269588351">
        <ele>2642.8000000000002</ele>
        <time>2014-08-31T11:37:06Z</time>
      </trkpt>
      <trkpt lat="46.570897484198213" lon="8.605748098343611">
        <ele>2642.3200000000002</ele>
        <time>2014-08-31T11:37:08Z</time>
      </trkpt>
      <trkpt lat="46.570813413709402" lon="8.60562832094729">
        <ele>2639.9200000000001</ele>
        <time>2014-08-31T11:37:21Z</time>
      </trkpt>
      <trkpt lat="46.570760104805231" lon="8.605483481660485">
        <ele>2638.48</ele>
        <time>2014-08-31T11:37:36Z</time>
      </trkpt>
      <trkpt lat="46.570712495595217" lon="8.60541483387351">
        <ele>2637.0300000000002</ele>
        <time>2014-08-31T11:37:47Z</time>
      </trkpt>
      <trkpt lat="46.570682153105736" lon="8.605399327352643">
        <ele>2636.0700000000002</ele>
        <time>2014-08-31T11:37:50Z</time>
      </trkpt>
      <trkpt lat="46.570625407621264" lon="8.605348700657487">
        <ele>2633.6700000000001</ele>
        <time>2014-08-31T11:38:02Z</time>
      </trkpt>
      <trkpt lat="46.570583917200565" lon="8.605292122811079">
        <ele>2631.75</ele>
        <time>2014-08-31T11:38:11Z</time>
      </trkpt>
      <trkpt lat="46.570570422336459" lon="8.605277454480529">
        <ele>2632.23</ele>
        <time>2014-08-31T11:38:14Z</time>
      </trkpt>
      <trkpt lat="46.570524238049984" lon="8.605188019573689">
        <ele>2630.3000000000002</ele>
        <time>2014-08-31T11:38:25Z</time>
      </trkpt>
      <trkpt lat="46.57045760191977" lon="8.605109732598066">
        <ele>2626.9400000000001</ele>
        <time>2014-08-31T11:38:37Z</time>
      </trkpt>
      <trkpt lat="46.570440335199237" lon="8.605074444785714">
        <ele>2626.46</ele>
        <time>2014-08-31T11:38:42Z</time>
      </trkpt>
      <trkpt lat="46.570427259430289" lon="8.605046784505248">
        <ele>2625.5</ele>
        <time>2014-08-31T11:38:44Z</time>
      </trkpt>
      <trkpt lat="46.57040337100625" lon="8.604975454509258">
        <ele>2625.02</ele>
        <time>2014-08-31T11:38:50Z</time>
      </trkpt>
      <trkpt lat="46.570363221690059" lon="8.604908734560013">
        <ele>2624.54</ele>
        <time>2014-08-31T11:38:56Z</time>
      </trkpt>
      <trkpt lat="46.570330699905753" lon="8.604863472282887">
        <ele>2623.5799999999999</ele>
        <time>2014-08-31T11:39:01Z</time>
      </trkpt>
      <trkpt lat="46.570321479812264" lon="8.604823909699917">
        <ele>2623.0900000000001</ele>
        <time>2014-08-31T11:39:03Z</time>
      </trkpt>
      <trkpt lat="46.570300944149494" lon="8.604786694049835">
        <ele>2623.0900000000001</ele>
        <time>2014-08-31T11:39:06Z</time>
      </trkpt>
      <trkpt lat="46.570244366303086" lon="8.604600615799427">
        <ele>2621.1700000000001</ele>
        <time>2014-08-31T11:39:20Z</time>
      </trkpt>
      <trkpt lat="46.570200026035309" lon="8.604420656338334">
        <ele>2617.8099999999999</ele>
        <time>2014-08-31T11:39:36Z</time>
      </trkpt>
      <trkpt lat="46.570187620818615" lon="8.604369023814797">
        <ele>2616.8499999999999</ele>
        <time>2014-08-31T11:39:40Z</time>
      </trkpt>
      <trkpt lat="46.570129785686731" lon="8.604240696877241">
        <ele>2614.9200000000001</ele>
        <time>2014-08-31T11:39:50Z</time>
      </trkpt>
      <trkpt lat="46.570118721574545" lon="8.604184538125992">
        <ele>2614.4400000000001</ele>
        <time>2014-08-31T11:39:55Z</time>
      </trkpt>
      <trkpt lat="46.570106986910105" lon="8.60416341573">
        <ele>2613.96</ele>
        <time>2014-08-31T11:39:57Z</time>
      </trkpt>
      <trkpt lat="46.570092821493745" lon="8.604133995249867">
        <ele>2613.48</ele>
        <time>2014-08-31T11:40:00Z</time>
      </trkpt>
      <trkpt lat="46.570069100707769" lon="8.604111615568399">
        <ele>2612.04</ele>
        <time>2014-08-31T11:40:04Z</time>
      </trkpt>
      <trkpt lat="46.570004224777222" lon="8.604025114327669">
        <ele>2609.6399999999999</ele>
        <time>2014-08-31T11:40:15Z</time>
      </trkpt>
      <trkpt lat="46.569988047704101" lon="8.604043470695615">
        <ele>2609.6399999999999</ele>
        <time>2014-08-31T11:40:17Z</time>
      </trkpt>
      <trkpt lat="46.569940773770213" lon="8.604050846770406">
        <ele>2607.23</ele>
        <time>2014-08-31T11:40:24Z</time>
      </trkpt>
      <trkpt lat="46.569867851212621" lon="8.603942133486271">
        <ele>2603.8699999999999</ele>
        <time>2014-08-31T11:40:37Z</time>
      </trkpt>
      <trkpt lat="46.569782607257366" lon="8.603863175958395">
        <ele>2601.46</ele>
        <time>2014-08-31T11:40:49Z</time>
      </trkpt>
      <trkpt lat="46.569770872592926" lon="8.603846579790115">
        <ele>2600.98</ele>
        <time>2014-08-31T11:40:52Z</time>
      </trkpt>
      <trkpt lat="46.56972317956388" lon="8.603816572576761">
        <ele>2598.5799999999999</ele>
        <time>2014-08-31T11:40:59Z</time>
      </trkpt>
      <trkpt lat="46.56967967748642" lon="8.603670978918672">
        <ele>2594.7399999999998</ele>
        <time>2014-08-31T11:41:11Z</time>
      </trkpt>
      <trkpt lat="46.569677414372563" lon="8.603658322244883">
        <ele>2595.6999999999998</ele>
        <time>2014-08-31T11:41:12Z</time>
      </trkpt>
      <trkpt lat="46.569684455171227" lon="8.603619849309325">
        <ele>2594.25</ele>
        <time>2014-08-31T11:41:15Z</time>
      </trkpt>
      <trkpt lat="46.569685628637671" lon="8.603612724691629">
        <ele>2594.25</ele>
        <time>2014-08-31T11:41:16Z</time>
      </trkpt>
      <trkpt lat="46.56967531889677" lon="8.603594116866589">
        <ele>2593.77</ele>
        <time>2014-08-31T11:41:18Z</time>
      </trkpt>
      <trkpt lat="46.569616729393601" lon="8.60349060036242">
        <ele>2591.8499999999999</ele>
        <time>2014-08-31T11:41:28Z</time>
      </trkpt>
      <trkpt lat="46.569546656683087" lon="8.603458246216178">
        <ele>2588.4899999999998</ele>
        <time>2014-08-31T11:41:42Z</time>
      </trkpt>
      <trkpt lat="46.569539783522487" lon="8.6034622695297">
        <ele>2588.4899999999998</ele>
        <time>2014-08-31T11:41:43Z</time>
      </trkpt>
      <trkpt lat="46.569508267566562" lon="8.603468388319016">
        <ele>2586.5599999999999</ele>
        <time>2014-08-31T11:41:47Z</time>
      </trkpt>
      <trkpt lat="46.56944272108376" lon="8.603485571220517">
        <ele>2583.1999999999998</ele>
        <time>2014-08-31T11:41:58Z</time>
      </trkpt>
      <trkpt lat="46.569440709426999" lon="8.603482218459249">
        <ele>2583.1999999999998</ele>
        <time>2014-08-31T11:41:59Z</time>
      </trkpt>
      <trkpt lat="46.569384718313813" lon="8.60340116545558">
        <ele>2580.8000000000002</ele>
        <time>2014-08-31T11:42:11Z</time>
      </trkpt>
      <trkpt lat="46.569357393309474" lon="8.603302091360092">
        <ele>2578.8699999999999</ele>
        <time>2014-08-31T11:42:19Z</time>
      </trkpt>
      <trkpt lat="46.569349765777588" lon="8.603224391117692">
        <ele>2577.4299999999998</ele>
        <time>2014-08-31T11:42:25Z</time>
      </trkpt>
      <trkpt lat="46.569278938695788" lon="8.603098662570119">
        <ele>2574.5500000000002</ele>
        <time>2014-08-31T11:42:39Z</time>
      </trkpt>
      <trkpt lat="46.569235101342201" lon="8.603015849366784">
        <ele>2572.1399999999999</ele>
        <time>2014-08-31T11:42:50Z</time>
      </trkpt>
      <trkpt lat="46.569193275645375" lon="8.602899592369795">
        <ele>2568.7800000000002</ele>
        <time>2014-08-31T11:43:03Z</time>
      </trkpt>
      <trkpt lat="46.569147426635027" lon="8.602804793044925">
        <ele>2567.3400000000001</ele>
        <time>2014-08-31T11:43:13Z</time>
      </trkpt>
      <trkpt lat="46.569093698635697" lon="8.602739414200187">
        <ele>2562.5300000000002</ele>
        <time>2014-08-31T11:43:27Z</time>
      </trkpt>
      <trkpt lat="46.569072157144547" lon="8.602702785283327">
        <ele>2561.5700000000002</ele>
        <time>2014-08-31T11:43:31Z</time>
      </trkpt>
      <trkpt lat="46.569030247628689" lon="8.602656852453947">
        <ele>2559.6500000000001</ele>
        <time>2014-08-31T11:43:44Z</time>
      </trkpt>
      <trkpt lat="46.569034941494465" lon="8.602667497470975">
        <ele>2559.1700000000001</ele>
        <time>2014-08-31T11:44:11Z</time>
      </trkpt>
      <trkpt lat="46.569029493257403" lon="8.602652074769139">
        <ele>2560.1300000000001</ele>
        <time>2014-08-31T11:44:32Z</time>
      </trkpt>
      <trkpt lat="46.569048017263412" lon="8.602666491642594">
        <ele>2559.6500000000001</ele>
        <time>2014-08-31T11:44:55Z</time>
      </trkpt>
      <trkpt lat="46.569050867110491" lon="8.60266481526196">
        <ele>2559.1700000000001</ele>
        <time>2014-08-31T11:45:33Z</time>
      </trkpt>
      <trkpt lat="46.569055896252394" lon="8.602650063112378">
        <ele>2559.1700000000001</ele>
        <time>2014-08-31T11:45:52Z</time>
      </trkpt>
      <trkpt lat="46.569032175466418" lon="8.602624582126737">
        <ele>2558.6900000000001</ele>
        <time>2014-08-31T11:46:21Z</time>
      </trkpt>
      <trkpt lat="46.56901859678328" lon="8.602620810270309">
        <ele>2558.6900000000001</ele>
        <time>2014-08-31T11:46:51Z</time>
      </trkpt>
      <trkpt lat="46.569033600389957" lon="8.602635227143765">
        <ele>2558.21</ele>
        <time>2014-08-31T11:47:20Z</time>
      </trkpt>
      <trkpt lat="46.569029493257403" lon="8.602641429752111">
        <ele>2558.21</ele>
        <time>2014-08-31T11:47:55Z</time>
      </trkpt>
      <trkpt lat="46.569031085819006" lon="8.602667665109038">
        <ele>2558.21</ele>
        <time>2014-08-31T11:48:27Z</time>
      </trkpt>
      <trkpt lat="46.569038797169924" lon="8.602658277377486">
        <ele>2558.21</ele>
        <time>2014-08-31T11:48:55Z</time>
      </trkpt>
      <trkpt lat="46.569035109132528" lon="8.602640926837921">
        <ele>2558.21</ele>
        <time>2014-08-31T11:49:27Z</time>
      </trkpt>
      <trkpt lat="46.569046173244715" lon="8.602648638188839">
        <ele>2557.73</ele>
        <time>2014-08-31T11:49:59Z</time>
      </trkpt>
      <trkpt lat="46.569046005606651" lon="8.602643944323063">
        <ele>2557.73</ele>
        <time>2014-08-31T11:50:23Z</time>
      </trkpt>
      <trkpt lat="46.569037372246385" lon="8.602625001221895">
        <ele>2558.21</ele>
        <time>2014-08-31T11:51:01Z</time>
      </trkpt>
      <trkpt lat="46.569037120789289" lon="8.602638999000192">
        <ele>2558.6900000000001</ele>
        <time>2014-08-31T11:51:38Z</time>
      </trkpt>
      <trkpt lat="46.569034941494465" lon="8.602635143324733">
        <ele>2558.21</ele>
        <time>2014-08-31T11:52:18Z</time>
      </trkpt>
      <trkpt lat="46.569041814655066" lon="8.602632712572813">
        <ele>2558.21</ele>
        <time>2014-08-31T11:52:55Z</time>
      </trkpt>
      <trkpt lat="46.569066122174263" lon="8.602635059505701">
        <ele>2557.73</ele>
        <time>2014-08-31T11:53:31Z</time>
      </trkpt>
      <trkpt lat="46.569023625925183" lon="8.602624163031578">
        <ele>2557.73</ele>
        <time>2014-08-31T11:54:06Z</time>
      </trkpt>
      <trkpt lat="46.569041395559907" lon="8.602644531056285">
        <ele>2557.73</ele>
        <time>2014-08-31T11:54:40Z</time>
      </trkpt>
      <trkpt lat="46.569070061668754" lon="8.602645453065634">
        <ele>2557.73</ele>
        <time>2014-08-31T11:55:10Z</time>
      </trkpt>
      <trkpt lat="46.56905229203403" lon="8.602664396166802">
        <ele>2557.73</ele>
        <time>2014-08-31T11:55:35Z</time>
      </trkpt>
      <trkpt lat="46.569038294255733" lon="8.602672861889005">
        <ele>2559.1700000000001</ele>
        <time>2014-08-31T11:55:44Z</time>
      </trkpt>
      <trkpt lat="46.569046843796968" lon="8.602686608210206">
        <ele>2559.1700000000001</ele>
        <time>2014-08-31T11:56:04Z</time>
      </trkpt>
      <trkpt lat="46.569041982293129" lon="8.60264134593308">
        <ele>2558.6900000000001</ele>
        <time>2014-08-31T11:56:23Z</time>
      </trkpt>
      <trkpt lat="46.56904885545373" lon="8.602653164416552">
        <ele>2558.6900000000001</ele>
        <time>2014-08-31T11:56:46Z</time>
      </trkpt>
      <trkpt lat="46.56906888820231" lon="8.602597424760461">
        <ele>2557.2399999999998</ele>
        <time>2014-08-31T11:57:02Z</time>
      </trkpt>
      <trkpt lat="46.569062769412994" lon="8.602560209110379">
        <ele>2557.2399999999998</ele>
        <time>2014-08-31T11:57:09Z</time>
      </trkpt>
      <trkpt lat="46.569091686978936" lon="8.602501284331083">
        <ele>2554.8400000000001</ele>
        <time>2014-08-31T11:57:23Z</time>
      </trkpt>
      <trkpt lat="46.569111552089453" lon="8.602510588243604">
        <ele>2553.8800000000001</ele>
        <time>2014-08-31T11:57:34Z</time>
      </trkpt>
      <trkpt lat="46.569142313674092" lon="8.602431965991855">
        <ele>2552.9200000000001</ele>
        <time>2014-08-31T11:57:42Z</time>
      </trkpt>
      <trkpt lat="46.569226887077093" lon="8.602308752015233">
        <ele>2551</ele>
        <time>2014-08-31T11:57:56Z</time>
      </trkpt>
      <trkpt lat="46.569256978109479" lon="8.60226315446198">
        <ele>2549.5500000000002</ele>
        <time>2014-08-31T11:58:10Z</time>
      </trkpt>
      <trkpt lat="46.569248093292117" lon="8.602218562737107">
        <ele>2547.1500000000001</ele>
        <time>2014-08-31T11:58:21Z</time>
      </trkpt>
      <trkpt lat="46.569301737472415" lon="8.602164834737778">
        <ele>2544.75</ele>
        <time>2014-08-31T11:58:31Z</time>
      </trkpt>
      <trkpt lat="46.569329230114818" lon="8.602073723450303">
        <ele>2541.8600000000001</ele>
        <time>2014-08-31T11:58:42Z</time>
      </trkpt>
      <trkpt lat="46.569334007799625" lon="8.602053439244628">
        <ele>2540.9000000000001</ele>
        <time>2014-08-31T11:58:46Z</time>
      </trkpt>
      <trkpt lat="46.569394441321492" lon="8.601945815607905">
        <ele>2538.02</ele>
        <time>2014-08-31T11:58:59Z</time>
      </trkpt>
      <trkpt lat="46.569397626444697" lon="8.60192745923996">
        <ele>2537.54</ele>
        <time>2014-08-31T11:59:10Z</time>
      </trkpt>
      <trkpt lat="46.569381449371576" lon="8.601852944120765">
        <ele>2537.0599999999999</ele>
        <time>2014-08-31T11:59:26Z</time>
      </trkpt>
      <trkpt lat="46.569372313097119" lon="8.601830648258328">
        <ele>2535.1300000000001</ele>
        <time>2014-08-31T11:59:40Z</time>
      </trkpt>
      <trkpt lat="46.569354543462396" lon="8.601852022111416">
        <ele>2533.6900000000001</ele>
        <time>2014-08-31T11:59:52Z</time>
      </trkpt>
      <trkpt lat="46.569218588992953" lon="8.601279202848673">
        <ele>2533.21</ele>
        <time>2014-08-31T12:00:11Z</time>
      </trkpt>
      <trkpt lat="46.569212721660733" lon="8.601262522861362">
        <ele>2531.77</ele>
        <time>2014-08-31T12:00:26Z</time>
      </trkpt>
      <trkpt lat="46.569209787994623" lon="8.601172417402268">
        <ele>2529.3699999999999</ele>
        <time>2014-08-31T12:00:39Z</time>
      </trkpt>
      <trkpt lat="46.569234766066074" lon="8.601302253082395">
        <ele>2528.4000000000001</ele>
        <time>2014-08-31T12:00:53Z</time>
      </trkpt>
      <trkpt lat="46.569263767451048" lon="8.601316837593913">
        <ele>2528.4000000000001</ele>
        <time>2014-08-31T12:01:07Z</time>
      </trkpt>
      <trkpt lat="46.569298719987273" lon="8.601314825937152">
        <ele>2528.4000000000001</ele>
        <time>2014-08-31T12:01:22Z</time>
      </trkpt>
      <trkpt lat="46.569255217909813" lon="8.60119747929275">
        <ele>2525.52</ele>
        <time>2014-08-31T12:01:36Z</time>
      </trkpt>
      <trkpt lat="46.569270305335522" lon="8.601164789870381">
        <ele>2523.5999999999999</ele>
        <time>2014-08-31T12:01:51Z</time>
      </trkpt>
      <trkpt lat="46.569287236779928" lon="8.601162107661367">
        <ele>2522.1599999999999</ele>
        <time>2014-08-31T12:01:57Z</time>
      </trkpt>
      <trkpt lat="46.569317160174251" lon="8.601113660261035">
        <ele>2519.75</ele>
        <time>2014-08-31T12:02:08Z</time>
      </trkpt>
      <trkpt lat="46.569328056648374" lon="8.601156156510115">
        <ele>2519.75</ele>
        <time>2014-08-31T12:02:30Z</time>
      </trkpt>
      <trkpt lat="46.569298719987273" lon="8.601159006357193">
        <ele>2520.23</ele>
        <time>2014-08-31T12:02:50Z</time>
      </trkpt>
      <trkpt lat="46.569318501278758" lon="8.601158503443003">
        <ele>2520.23</ele>
        <time>2014-08-31T12:03:12Z</time>
      </trkpt>
      <trkpt lat="46.569313807412982" lon="8.60116864554584">
        <ele>2521.6799999999998</ele>
        <time>2014-08-31T12:03:23Z</time>
      </trkpt>
      <trkpt lat="46.569356974214315" lon="8.601105865091085">
        <ele>2519.75</ele>
        <time>2014-08-31T12:03:49Z</time>
      </trkpt>
      <trkpt lat="46.569399805739522" lon="8.601035876199603">
        <ele>2517.3499999999999</ele>
        <time>2014-08-31T12:04:00Z</time>
      </trkpt>
      <trkpt lat="46.569410534575582" lon="8.60100444406271">
        <ele>2516.8699999999999</ele>
        <time>2014-08-31T12:04:03Z</time>
      </trkpt>
      <trkpt lat="46.569430818781257" lon="8.600959265604615">
        <ele>2515.9099999999999</ele>
        <time>2014-08-31T12:04:13Z</time>
      </trkpt>
      <trkpt lat="46.569403745234013" lon="8.600975861772895">
        <ele>2515.9099999999999</ele>
        <time>2014-08-31T12:04:28Z</time>
      </trkpt>
      <trkpt lat="46.569357560947537" lon="8.601043084636331">
        <ele>2515.9099999999999</ele>
        <time>2014-08-31T12:04:51Z</time>
      </trkpt>
      <trkpt lat="46.569380108267069" lon="8.600983992218971">
        <ele>2515.4299999999998</ele>
        <time>2014-08-31T12:05:08Z</time>
      </trkpt>
      <trkpt lat="46.569342808797956" lon="8.600853066891432">
        <ele>2513.5</ele>
        <time>2014-08-31T12:05:24Z</time>
      </trkpt>
      <trkpt lat="46.569358902052045" lon="8.600720129907131">
        <ele>2510.1399999999999</ele>
        <time>2014-08-31T12:05:36Z</time>
      </trkpt>
      <trkpt lat="46.56934205442667" lon="8.600635640323162">
        <ele>2507.2600000000002</ele>
        <time>2014-08-31T12:05:48Z</time>
      </trkpt>
      <trkpt lat="46.569349262863398" lon="8.600478312000632">
        <ele>2504.3699999999999</ele>
        <time>2014-08-31T12:06:02Z</time>
      </trkpt>
      <trkpt lat="46.569311544299126" lon="8.600459368899465">
        <ele>2502.9299999999998</ele>
        <time>2014-08-31T12:06:07Z</time>
      </trkpt>
      <trkpt lat="46.569273574277759" lon="8.600413016974926">
        <ele>2501.4899999999998</ele>
        <time>2014-08-31T12:06:19Z</time>
      </trkpt>
      <trkpt lat="46.569330068305135" lon="8.600464146584272">
        <ele>2501.0100000000002</ele>
        <time>2014-08-31T12:06:41Z</time>
      </trkpt>
      <trkpt lat="46.569271227344871" lon="8.600398264825344">
        <ele>2499.5700000000002</ele>
        <time>2014-08-31T12:06:52Z</time>
      </trkpt>
      <trkpt lat="46.569227054715157" lon="8.600277230143547">
        <ele>2496.1999999999998</ele>
        <time>2014-08-31T12:07:03Z</time>
      </trkpt>
      <trkpt lat="46.569191012531519" lon="8.600173629820347">
        <ele>2493.8000000000002</ele>
        <time>2014-08-31T12:07:14Z</time>
      </trkpt>
      <trkpt lat="46.569104008376598" lon="8.600129205733538">
        <ele>2490.4299999999998</ele>
        <time>2014-08-31T12:07:25Z</time>
      </trkpt>
      <trkpt lat="46.569098141044378" lon="8.600122500211">
        <ele>2490.4299999999998</ele>
        <time>2014-08-31T12:07:26Z</time>
      </trkpt>
      <trkpt lat="46.56911825761199" lon="8.600006410852075">
        <ele>2488.9899999999998</ele>
        <time>2014-08-31T12:07:40Z</time>
      </trkpt>
      <trkpt lat="46.569097554311156" lon="8.599979672580957">
        <ele>2488.0300000000002</ele>
        <time>2014-08-31T12:07:45Z</time>
      </trkpt>
      <trkpt lat="46.56908162869513" lon="8.599834749475122">
        <ele>2485.1500000000001</ele>
        <time>2014-08-31T12:07:57Z</time>
      </trkpt>
      <trkpt lat="46.569114653393626" lon="8.599741794168949">
        <ele>2484.6599999999999</ele>
        <time>2014-08-31T12:08:06Z</time>
      </trkpt>
      <trkpt lat="46.569125549867749" lon="8.599744560196996">
        <ele>2484.6599999999999</ele>
        <time>2014-08-31T12:08:08Z</time>
      </trkpt>
      <trkpt lat="46.569155640900135" lon="8.599728886038065">
        <ele>2485.1500000000001</ele>
        <time>2014-08-31T12:08:11Z</time>
      </trkpt>
      <trkpt lat="46.569134518504143" lon="8.599747577682138">
        <ele>2485.1500000000001</ele>
        <time>2014-08-31T12:08:23Z</time>
      </trkpt>
      <trkpt lat="46.56913342885673" lon="8.599661327898502">
        <ele>2483.6999999999998</ele>
        <time>2014-08-31T12:08:35Z</time>
      </trkpt>
      <trkpt lat="46.569132255390286" lon="8.59965923242271">
        <ele>2483.6999999999998</ele>
        <time>2014-08-31T12:08:37Z</time>
      </trkpt>
      <trkpt lat="46.569145079702139" lon="8.599633332341909">
        <ele>2483.6999999999998</ele>
        <time>2014-08-31T12:08:40Z</time>
      </trkpt>
      <trkpt lat="46.569149186834693" lon="8.599540879949927">
        <ele>2483.6999999999998</ele>
        <time>2014-08-31T12:08:51Z</time>
      </trkpt>
      <trkpt lat="46.569604827091098" lon="8.600444197654724">
        <ele>2483.2199999999998</ele>
        <time>2014-08-31T12:09:02Z</time>
      </trkpt>
      <trkpt lat="46.569631146267056" lon="8.600457524880767">
        <ele>2482.7399999999998</ele>
        <time>2014-08-31T12:09:05Z</time>
      </trkpt>
      <trkpt lat="46.569634666666389" lon="8.600439000874758">
        <ele>2482.7399999999998</ele>
        <time>2014-08-31T12:09:07Z</time>
      </trkpt>
      <trkpt lat="46.569656627252698" lon="8.600369514897466">
        <ele>2482.7399999999998</ele>
        <time>2014-08-31T12:09:16Z</time>
      </trkpt>
      <trkpt lat="46.569663165137172" lon="8.600269015878439">
        <ele>2480.8200000000002</ele>
        <time>2014-08-31T12:09:28Z</time>
      </trkpt>
      <trkpt lat="46.569625865668058" lon="8.600194333121181">
        <ele>2479.8600000000001</ele>
        <time>2014-08-31T12:09:35Z</time>
      </trkpt>
      <trkpt lat="46.56959124840796" lon="8.599968189373612">
        <ele>2480.8200000000002</ele>
        <time>2014-08-31T12:09:52Z</time>
      </trkpt>
      <trkpt lat="46.569592002779245" lon="8.59996123239398">
        <ele>2480.8200000000002</ele>
        <time>2014-08-31T12:09:53Z</time>
      </trkpt>
      <trkpt lat="46.569592086598277" lon="8.599942289292812">
        <ele>2480.3400000000001</ele>
        <time>2014-08-31T12:10:07Z</time>
      </trkpt>
      <trkpt lat="46.569591416046023" lon="8.599946228787303">
        <ele>2479.3800000000001</ele>
        <time>2014-08-31T12:10:24Z</time>
      </trkpt>
      <trkpt lat="46.569569120183587" lon="8.599910773336887">
        <ele>2479.3800000000001</ele>
        <time>2014-08-31T12:10:47Z</time>
      </trkpt>
      <trkpt lat="46.569581609219313" lon="8.599938852712512">
        <ele>2479.3800000000001</ele>
        <time>2014-08-31T12:11:15Z</time>
      </trkpt>
      <trkpt lat="46.569565432146192" lon="8.59990943223238">
        <ele>2479.3800000000001</ele>
        <time>2014-08-31T12:11:40Z</time>
      </trkpt>
      <trkpt lat="46.569581022486091" lon="8.599950503557921">
        <ele>2478.9000000000001</ele>
        <time>2014-08-31T12:12:03Z</time>
      </trkpt>
      <trkpt lat="46.569589152932167" lon="8.59994706697762">
        <ele>2479.3800000000001</ele>
        <time>2014-08-31T12:12:16Z</time>
      </trkpt>
      <trkpt lat="46.569580184295774" lon="8.599932985380292">
        <ele>2479.8600000000001</ele>
        <time>2014-08-31T12:12:55Z</time>
      </trkpt>
      <trkpt lat="46.569599295035005" lon="8.599947234615684">
        <ele>2479.8600000000001</ele>
        <time>2014-08-31T12:13:24Z</time>
      </trkpt>
      <trkpt lat="46.569590242579579" lon="8.599935248494148">
        <ele>2479.8600000000001</ele>
        <time>2014-08-31T12:13:56Z</time>
      </trkpt>
      <trkpt lat="46.56959074549377" lon="8.599930470809341">
        <ele>2478.4200000000001</ele>
        <time>2014-08-31T12:14:26Z</time>
      </trkpt>
      <trkpt lat="46.56958932057023" lon="8.599925190210342">
        <ele>2478.4200000000001</ele>
        <time>2014-08-31T12:14:27Z</time>
      </trkpt>
      <trkpt lat="46.569539615884423" lon="8.599857464432716">
        <ele>2476.4899999999998</ele>
        <time>2014-08-31T12:14:39Z</time>
      </trkpt>
      <trkpt lat="46.569514134898782" lon="8.59981270506978">
        <ele>2475.5300000000002</ele>
        <time>2014-08-31T12:14:43Z</time>
      </trkpt>
      <trkpt lat="46.569445235654712" lon="8.599684881046414">
        <ele>2473.6100000000001</ele>
        <time>2014-08-31T12:14:54Z</time>
      </trkpt>
      <trkpt lat="46.569424113258719" lon="8.599646491929889">
        <ele>2472.1700000000001</ele>
        <time>2014-08-31T12:14:59Z</time>
      </trkpt>
      <trkpt lat="46.569319674745202" lon="8.599524032324553">
        <ele>2469.7600000000002</ele>
        <time>2014-08-31T12:15:10Z</time>
      </trkpt>
      <trkpt lat="46.569284303113818" lon="8.599452618509531">
        <ele>2469.7600000000002</ele>
        <time>2014-08-31T12:15:15Z</time>
      </trkpt>
      <trkpt lat="46.569229485467076" lon="8.599367877468467">
        <ele>2467.8400000000001</ele>
        <time>2014-08-31T12:15:22Z</time>
      </trkpt>
      <trkpt lat="46.569173913449049" lon="8.599249189719558">
        <ele>2467.3600000000001</ele>
        <time>2014-08-31T12:15:30Z</time>
      </trkpt>
      <trkpt lat="46.569087998941541" lon="8.599181799218059">
        <ele>2465.4400000000001</ele>
        <time>2014-08-31T12:15:39Z</time>
      </trkpt>
      <trkpt lat="46.568928742781281" lon="8.599013658240438">
        <ele>2461.5900000000001</ele>
        <time>2014-08-31T12:15:55Z</time>
      </trkpt>
      <trkpt lat="46.568908207118511" lon="8.598968982696533">
        <ele>2460.1500000000001</ele>
        <time>2014-08-31T12:16:02Z</time>
      </trkpt>
      <trkpt lat="46.568884653970599" lon="8.598929923027754">
        <ele>2459.1900000000001</ele>
        <time>2014-08-31T12:16:05Z</time>
      </trkpt>
      <trkpt lat="46.568875014781952" lon="8.598880637437105">
        <ele>2458.71</ele>
        <time>2014-08-31T12:16:12Z</time>
      </trkpt>
      <trkpt lat="46.568832853808999" lon="8.598861442878842">
        <ele>2458.71</ele>
        <time>2014-08-31T12:16:16Z</time>
      </trkpt>
      <trkpt lat="46.568698156625032" lon="8.598661534488201">
        <ele>2456.79</ele>
        <time>2014-08-31T12:16:30Z</time>
      </trkpt>
      <trkpt lat="46.568613164126873" lon="8.598580313846469">
        <ele>2454.8600000000001</ele>
        <time>2014-08-31T12:16:39Z</time>
      </trkpt>
      <trkpt lat="46.568546947091818" lon="8.59845626167953">
        <ele>2453.9000000000001</ele>
        <time>2014-08-31T12:16:48Z</time>
      </trkpt>
      <trkpt lat="46.568508557975292" lon="8.598382752388716">
        <ele>2453.9000000000001</ele>
        <time>2014-08-31T12:16:54Z</time>
      </trkpt>
      <trkpt lat="46.568482741713524" lon="8.598359618335962">
        <ele>2452.46</ele>
        <time>2014-08-31T12:16:57Z</time>
      </trkpt>
      <trkpt lat="46.568389786407351" lon="8.598237494006753">
        <ele>2449.5799999999999</ele>
        <time>2014-08-31T12:17:09Z</time>
      </trkpt>
      <trkpt lat="46.568352906033397" lon="8.598210085183382">
        <ele>2447.6500000000001</ele>
        <time>2014-08-31T12:17:14Z</time>
      </trkpt>
      <trkpt lat="46.568319629877806" lon="8.598168008029461">
        <ele>2446.6900000000001</ele>
        <time>2014-08-31T12:17:18Z</time>
      </trkpt>
      <trkpt lat="46.568262968212366" lon="8.598121404647827">
        <ele>2443.8099999999999</ele>
        <time>2014-08-31T12:17:27Z</time>
      </trkpt>
      <trkpt lat="46.568239163607359" lon="8.598114531487227">
        <ele>2443.8099999999999</ele>
        <time>2014-08-31T12:17:29Z</time>
      </trkpt>
      <trkpt lat="46.568202618509531" lon="8.598069353029132">
        <ele>2442.3699999999999</ele>
        <time>2014-08-31T12:17:33Z</time>
      </trkpt>
      <trkpt lat="46.56811511144042" lon="8.597909342497587">
        <ele>2438.04</ele>
        <time>2014-08-31T12:17:47Z</time>
      </trkpt>
      <trkpt lat="46.568092396482825" lon="8.597883526235819">
        <ele>2438.52</ele>
        <time>2014-08-31T12:17:51Z</time>
      </trkpt>
      <trkpt lat="46.568006398156285" lon="8.597730388864875">
        <ele>2435.1599999999999</ele>
        <time>2014-08-31T12:18:05Z</time>
      </trkpt>
      <trkpt lat="46.56796658411622" lon="8.597731227055192">
        <ele>2432.75</ele>
        <time>2014-08-31T12:18:15Z</time>
      </trkpt>
      <trkpt lat="46.567951748147607" lon="8.597726952284575">
        <ele>2431.79</ele>
        <time>2014-08-31T12:18:30Z</time>
      </trkpt>
      <trkpt lat="46.567878406494856" lon="8.597615472972393">
        <ele>2428.9099999999999</ele>
        <time>2014-08-31T12:18:45Z</time>
      </trkpt>
      <trkpt lat="46.567868515849113" lon="8.597613042220473">
        <ele>2427.9499999999998</ele>
        <time>2014-08-31T12:18:56Z</time>
      </trkpt>
      <trkpt lat="46.567816799506545" lon="8.597513465210795">
        <ele>2424.0999999999999</ele>
        <time>2014-08-31T12:19:07Z</time>
      </trkpt>
      <trkpt lat="46.567797437310219" lon="8.597447918727994">
        <ele>2423.6199999999999</ele>
        <time>2014-08-31T12:19:12Z</time>
      </trkpt>
      <trkpt lat="46.567760305479169" lon="8.597429813817143">
        <ele>2422.6599999999999</ele>
        <time>2014-08-31T12:19:16Z</time>
      </trkpt>
      <trkpt lat="46.567743793129921" lon="8.597405171021819">
        <ele>2421.6999999999998</ele>
        <time>2014-08-31T12:19:18Z</time>
      </trkpt>
      <trkpt lat="46.567706577479839" lon="8.597342222929001">
        <ele>2420.2600000000002</ele>
        <time>2014-08-31T12:19:26Z</time>
      </trkpt>
      <trkpt lat="46.567698698490858" lon="8.597397543489933">
        <ele>2418.8099999999999</ele>
        <time>2014-08-31T12:19:30Z</time>
      </trkpt>
      <trkpt lat="46.567665757611394" lon="8.597326967865229">
        <ele>2416.8899999999999</ele>
        <time>2014-08-31T12:19:35Z</time>
      </trkpt>
      <trkpt lat="46.567663075402379" lon="8.597293607890606">
        <ele>2416.4099999999999</ele>
        <time>2014-08-31T12:19:37Z</time>
      </trkpt>
      <trkpt lat="46.567646395415068" lon="8.597222361713648">
        <ele>2414.9699999999998</ele>
        <time>2014-08-31T12:19:42Z</time>
      </trkpt>
      <trkpt lat="46.567558720707893" lon="8.597053298726678">
        <ele>2411.5999999999999</ele>
        <time>2014-08-31T12:19:54Z</time>
      </trkpt>
      <trkpt lat="46.567547237500548" lon="8.59703678637743">
        <ele>2411.1199999999999</ele>
        <time>2014-08-31T12:19:55Z</time>
      </trkpt>
      <trkpt lat="46.567470962181687" lon="8.596914662048221">
        <ele>2407.7600000000002</ele>
        <time>2014-08-31T12:20:05Z</time>
      </trkpt>
      <trkpt lat="46.567434752359986" lon="8.596874596551061">
        <ele>2406.8000000000002</ele>
        <time>2014-08-31T12:20:09Z</time>
      </trkpt>
      <trkpt lat="46.567299719899893" lon="8.596753897145391">
        <ele>2403.4299999999998</ele>
        <time>2014-08-31T12:20:22Z</time>
      </trkpt>
      <trkpt lat="46.567288655787706" lon="8.596746353432536">
        <ele>2402.9499999999998</ele>
        <time>2014-08-31T12:20:23Z</time>
      </trkpt>
      <trkpt lat="46.567246159538627" lon="8.596665551885963">
        <ele>2401.5100000000002</ele>
        <time>2014-08-31T12:20:30Z</time>
      </trkpt>
      <trkpt lat="46.567169716581702" lon="8.596634706482291">
        <ele>2400.0700000000002</ele>
        <time>2014-08-31T12:20:39Z</time>
      </trkpt>
      <trkpt lat="46.567153371870518" lon="8.59668985940516">
        <ele>2397.6700000000001</ele>
        <time>2014-08-31T12:20:45Z</time>
      </trkpt>
      <trkpt lat="46.567130740731955" lon="8.596687847748399">
        <ele>2395.7399999999998</ele>
        <time>2014-08-31T12:20:49Z</time>
      </trkpt>
      <trkpt lat="46.567097213119268" lon="8.596668485552073">
        <ele>2393.8200000000002</ele>
        <time>2014-08-31T12:20:53Z</time>
      </trkpt>
      <trkpt lat="46.567041138187051" lon="8.59664442948997">
        <ele>2391.4200000000001</ele>
        <time>2014-08-31T12:21:00Z</time>
      </trkpt>
      <trkpt lat="46.567022614181042" lon="8.596625654026866">
        <ele>2390.9400000000001</ele>
        <time>2014-08-31T12:21:02Z</time>
      </trkpt>
      <trkpt lat="46.566993528977036" lon="8.59668985940516">
        <ele>2388.5300000000002</ele>
        <time>2014-08-31T12:21:13Z</time>
      </trkpt>
      <trkpt lat="46.566975424066186" lon="8.596682734787464">
        <ele>2387.5700000000002</ele>
        <time>2014-08-31T12:21:15Z</time>
      </trkpt>
      <trkpt lat="46.566958408802748" lon="8.596653481945396">
        <ele>2386.6100000000001</ele>
        <time>2014-08-31T12:21:17Z</time>
      </trkpt>
      <trkpt lat="46.566906189545989" lon="8.596626995131373">
        <ele>2385.1700000000001</ele>
        <time>2014-08-31T12:21:24Z</time>
      </trkpt>
      <trkpt lat="46.56688523478806" lon="8.596641914919019">
        <ele>2384.6900000000001</ele>
        <time>2014-08-31T12:21:26Z</time>
      </trkpt>
      <trkpt lat="46.566862184554338" lon="8.596622636541724">
        <ele>2383.25</ele>
        <time>2014-08-31T12:21:29Z</time>
      </trkpt>
      <trkpt lat="46.56681340187788" lon="8.596607549116015">
        <ele>2382.2800000000002</ele>
        <time>2014-08-31T12:21:34Z</time>
      </trkpt>
      <trkpt lat="46.566754980012774" lon="8.596571339294314">
        <ele>2379.8800000000001</ele>
        <time>2014-08-31T12:21:39Z</time>
      </trkpt>
      <trkpt lat="46.566708628088236" lon="8.596526999026537">
        <ele>2378.4400000000001</ele>
        <time>2014-08-31T12:21:43Z</time>
      </trkpt>
      <trkpt lat="46.566680464893579" lon="8.596492800861597">
        <ele>2377.96</ele>
        <time>2014-08-31T12:21:46Z</time>
      </trkpt>
      <trkpt lat="46.566579965874553" lon="8.596485676243901">
        <ele>2374.1100000000001</ele>
        <time>2014-08-31T12:21:57Z</time>
      </trkpt>
      <trkpt lat="46.566573763266206" lon="8.59648022800684">
        <ele>2374.1100000000001</ele>
        <time>2014-08-31T12:21:58Z</time>
      </trkpt>
      <trkpt lat="46.566527578979731" lon="8.596428595483303">
        <ele>2372.1900000000001</ele>
        <time>2014-08-31T12:22:03Z</time>
      </trkpt>
      <trkpt lat="46.56646940857172" lon="8.596390374004841">
        <ele>2370.75</ele>
        <time>2014-08-31T12:22:09Z</time>
      </trkpt>
      <trkpt lat="46.566391456872225" lon="8.596327258273959">
        <ele>2367.3800000000001</ele>
        <time>2014-08-31T12:22:21Z</time>
      </trkpt>
      <trkpt lat="46.566377878189087" lon="8.596311081200838">
        <ele>2366.9000000000001</ele>
        <time>2014-08-31T12:22:24Z</time>
      </trkpt>
      <trkpt lat="46.566315516829491" lon="8.596306052058935">
        <ele>2364.5</ele>
        <time>2014-08-31T12:22:33Z</time>
      </trkpt>
      <trkpt lat="46.566248713061213" lon="8.59625936485827">
        <ele>2361.1399999999999</ele>
        <time>2014-08-31T12:22:44Z</time>
      </trkpt>
      <trkpt lat="46.566228177398443" lon="8.596245534718037">
        <ele>2359.6900000000001</ele>
        <time>2014-08-31T12:22:48Z</time>
      </trkpt>
      <trkpt lat="46.566217113286257" lon="8.596240505576134">
        <ele>2359.21</ele>
        <time>2014-08-31T12:22:50Z</time>
      </trkpt>
      <trkpt lat="46.566119296476245" lon="8.596129696816206">
        <ele>2356.3299999999999</ele>
        <time>2014-08-31T12:23:03Z</time>
      </trkpt>
      <trkpt lat="46.56610244885087" lon="8.596096504479647">
        <ele>2355.8499999999999</ele>
        <time>2014-08-31T12:23:05Z</time>
      </trkpt>
      <trkpt lat="46.566037070006132" lon="8.595915706828237">
        <ele>2352.48</ele>
        <time>2014-08-31T12:23:19Z</time>
      </trkpt>
      <trkpt lat="46.56601988710463" lon="8.595897685736418">
        <ele>2352.48</ele>
        <time>2014-08-31T12:23:21Z</time>
      </trkpt>
      <trkpt lat="46.565999770537019" lon="8.595854351297021">
        <ele>2351.52</ele>
        <time>2014-08-31T12:23:35Z</time>
      </trkpt>
      <trkpt lat="46.565918298438191" lon="8.595746392384172">
        <ele>2349.1199999999999</ele>
        <time>2014-08-31T12:23:48Z</time>
      </trkpt>
      <trkpt lat="46.565882172435522" lon="8.595741027966142">
        <ele>2348.1599999999999</ele>
        <time>2014-08-31T12:23:54Z</time>
      </trkpt>
      <trkpt lat="46.565868929028511" lon="8.595741949975491">
        <ele>2346.7199999999998</ele>
        <time>2014-08-31T12:23:56Z</time>
      </trkpt>
      <trkpt lat="46.565766837447882" lon="8.595660226419568">
        <ele>2343.8299999999999</ele>
        <time>2014-08-31T12:24:08Z</time>
      </trkpt>
      <trkpt lat="46.565776979550719" lon="8.595648072659969">
        <ele>2343.8299999999999</ele>
        <time>2014-08-31T12:24:17Z</time>
      </trkpt>
      <trkpt lat="46.565748145803809" lon="8.595658130943775">
        <ele>2343.3499999999999</ele>
        <time>2014-08-31T12:24:49Z</time>
      </trkpt>
      <trkpt lat="46.565715288743377" lon="8.595628207549453">
        <ele>2342.8699999999999</ele>
        <time>2014-08-31T12:24:53Z</time>
      </trkpt>
      <trkpt lat="46.565661141648889" lon="8.595544556155801">
        <ele>2340.4699999999998</ele>
        <time>2014-08-31T12:25:01Z</time>
      </trkpt>
      <trkpt lat="46.565646640956402" lon="8.595496192574501">
        <ele>2339.9899999999998</ele>
        <time>2014-08-31T12:25:04Z</time>
      </trkpt>
      <trkpt lat="46.565524265170097" lon="8.59538865275681">
        <ele>2339.02</ele>
        <time>2014-08-31T12:25:19Z</time>
      </trkpt>
      <trkpt lat="46.565456371754408" lon="8.595327464863658">
        <ele>2336.1399999999999</ele>
        <time>2014-08-31T12:25:27Z</time>
      </trkpt>
      <trkpt lat="46.565391244366765" lon="8.595347832888365">
        <ele>2333.2600000000002</ele>
        <time>2014-08-31T12:25:39Z</time>
      </trkpt>
      <trkpt lat="46.565349167212844" lon="8.595350347459316">
        <ele>2331.8099999999999</ele>
        <time>2014-08-31T12:25:43Z</time>
      </trkpt>
      <trkpt lat="46.565309856086969" lon="8.595349090173841">
        <ele>2330.8499999999999</ele>
        <time>2014-08-31T12:25:47Z</time>
      </trkpt>
      <trkpt lat="46.565274400636554" lon="8.5953598190099">
        <ele>2329.4099999999999</ele>
        <time>2014-08-31T12:25:51Z</time>
      </trkpt>
      <trkpt lat="46.565303318202496" lon="8.595442213118076">
        <ele>2327.0100000000002</ele>
        <time>2014-08-31T12:25:57Z</time>
      </trkpt>
      <trkpt lat="46.565378168597817" lon="8.595589650794864">
        <ele>2323.6399999999999</ele>
        <time>2014-08-31T12:26:12Z</time>
      </trkpt>
      <trkpt lat="46.565406331792474" lon="8.59567154198885">
        <ele>2322.1999999999998</ele>
        <time>2014-08-31T12:26:18Z</time>
      </trkpt>
      <trkpt lat="46.565411109477282" lon="8.595796432346106">
        <ele>2318.3600000000001</ele>
        <time>2014-08-31T12:26:32Z</time>
      </trkpt>
      <trkpt lat="46.565315974876285" lon="8.59568570740521">
        <ele>2315.9499999999998</ele>
        <time>2014-08-31T12:26:45Z</time>
      </trkpt>
      <trkpt lat="46.565276831388474" lon="8.595682019367814">
        <ele>2313.0700000000002</ele>
        <time>2014-08-31T12:26:52Z</time>
      </trkpt>
      <trkpt lat="46.565256044268608" lon="8.595695430412889">
        <ele>2311.1500000000001</ele>
        <time>2014-08-31T12:27:00Z</time>
      </trkpt>
      <trkpt lat="46.565228886902332" lon="8.595714876428247">
        <ele>2309.6999999999998</ele>
        <time>2014-08-31T12:27:10Z</time>
      </trkpt>
      <trkpt lat="46.565306168049574" lon="8.595854351297021">
        <ele>2307.7800000000002</ele>
        <time>2014-08-31T12:27:19Z</time>
      </trkpt>
      <trkpt lat="46.565244980156422" lon="8.595894919708371">
        <ele>2307.3000000000002</ele>
        <time>2014-08-31T12:27:25Z</time>
      </trkpt>
      <trkpt lat="46.565089412033558" lon="8.595753097906709">
        <ele>2303.9400000000001</ele>
        <time>2014-08-31T12:27:40Z</time>
      </trkpt>
      <trkpt lat="46.564948679879308" lon="8.595643378794193">
        <ele>2301.0500000000002</ele>
        <time>2014-08-31T12:27:55Z</time>
      </trkpt>
      <trkpt lat="46.564810713753104" lon="8.595552686601877">
        <ele>2298.1700000000001</ele>
        <time>2014-08-31T12:28:10Z</time>
      </trkpt>
      <trkpt lat="46.564671909436584" lon="8.595473561435938">
        <ele>2295.77</ele>
        <time>2014-08-31T12:28:24Z</time>
      </trkpt>
      <trkpt lat="46.564516760408878" lon="8.595395525917411">
        <ele>2293.3600000000001</ele>
        <time>2014-08-31T12:28:39Z</time>
      </trkpt>
      <trkpt lat="46.56436974182725" lon="8.59529921784997">
        <ele>2290.96</ele>
        <time>2014-08-31T12:28:53Z</time>
      </trkpt>
      <trkpt lat="46.564219454303384" lon="8.595219757407904">
        <ele>2290</ele>
        <time>2014-08-31T12:29:07Z</time>
      </trkpt>
      <trkpt lat="46.564090037718415" lon="8.595186648890376">
        <ele>2288.0799999999999</ele>
        <time>2014-08-31T12:29:19Z</time>
      </trkpt>
      <trkpt lat="46.564087690785527" lon="8.595244400203228">
        <ele>2287.5900000000001</ele>
        <time>2014-08-31T12:29:23Z</time>
      </trkpt>
      <trkpt lat="46.564194979146123" lon="8.595397705212236">
        <ele>2284.23</ele>
        <time>2014-08-31T12:29:38Z</time>
      </trkpt>
      <trkpt lat="46.564267901703715" lon="8.595490660518408">
        <ele>2282.79</ele>
        <time>2014-08-31T12:29:46Z</time>
      </trkpt>
      <trkpt lat="46.564310733228922" lon="8.595539694651961">
        <ele>2281.8299999999999</ele>
        <time>2014-08-31T12:29:51Z</time>
      </trkpt>
      <trkpt lat="46.564348870888352" lon="8.595813447609544">
        <ele>2279.4200000000001</ele>
        <time>2014-08-31T12:30:08Z</time>
      </trkpt>
      <trkpt lat="46.564362030476332" lon="8.595935320481658">
        <ele>2277.98</ele>
        <time>2014-08-31T12:30:16Z</time>
      </trkpt>
      <trkpt lat="46.56437854282558" lon="8.595983013510704">
        <ele>2277.5</ele>
        <time>2014-08-31T12:30:20Z</time>
      </trkpt>
      <trkpt lat="46.564445095136762" lon="8.596074376255274">
        <ele>2275.0999999999999</ele>
        <time>2014-08-31T12:30:30Z</time>
      </trkpt>
      <trkpt lat="46.564529836177826" lon="8.596173701807857">
        <ele>2272.6900000000001</ele>
        <time>2014-08-31T12:30:43Z</time>
      </trkpt>
      <trkpt lat="46.564472671598196" lon="8.596175797283649">
        <ele>2272.21</ele>
        <time>2014-08-31T12:30:47Z</time>
      </trkpt>
      <trkpt lat="46.56433118507266" lon="8.596090050414205">
        <ele>2273.1700000000001</ele>
        <time>2014-08-31T12:31:01Z</time>
      </trkpt>
      <trkpt lat="46.564323222264647" lon="8.596083177253604">
        <ele>2273.1700000000001</ele>
        <time>2014-08-31T12:31:02Z</time>
      </trkpt>
      <trkpt lat="46.564202271401882" lon="8.595876395702362">
        <ele>2272.6900000000001</ele>
        <time>2014-08-31T12:31:18Z</time>
      </trkpt>
      <trkpt lat="46.564110741019249" lon="8.595684114843607">
        <ele>2272.21</ele>
        <time>2014-08-31T12:31:33Z</time>
      </trkpt>
      <trkpt lat="46.564001776278019" lon="8.595547573640943">
        <ele>2271.73</ele>
        <time>2014-08-31T12:31:48Z</time>
      </trkpt>
      <trkpt lat="46.563849644735456" lon="8.59537348151207">
        <ele>2271.25</ele>
        <time>2014-08-31T12:32:04Z</time>
      </trkpt>
      <trkpt lat="46.563707487657666" lon="8.595220092684031">
        <ele>2271.25</ele>
        <time>2014-08-31T12:32:20Z</time>
      </trkpt>
      <trkpt lat="46.563648814335465" lon="8.595177931711078">
        <ele>2271.73</ele>
        <time>2014-08-31T12:32:26Z</time>
      </trkpt>
      <trkpt lat="46.563444044440985" lon="8.595038875937462">
        <ele>2270.77</ele>
        <time>2014-08-31T12:32:46Z</time>
      </trkpt>
      <trkpt lat="46.563381431624293" lon="8.594996212050319">
        <ele>2270.77</ele>
        <time>2014-08-31T12:32:53Z</time>
      </trkpt>
      <trkpt lat="46.563192084431648" lon="8.594865035265684">
        <ele>2271.73</ele>
        <time>2014-08-31T12:33:10Z</time>
      </trkpt>
      <trkpt lat="46.563020925968885" lon="8.594759590923786">
        <ele>2271.25</ele>
        <time>2014-08-31T12:33:26Z</time>
      </trkpt>
      <trkpt lat="46.562857562676072" lon="8.594684069976211">
        <ele>2271.25</ele>
        <time>2014-08-31T12:33:42Z</time>
      </trkpt>
      <trkpt lat="46.562667125836015" lon="8.59463419765234">
        <ele>2271.73</ele>
        <time>2014-08-31T12:33:58Z</time>
      </trkpt>
      <trkpt lat="46.562455398961902" lon="8.594617266207933">
        <ele>2271.25</ele>
        <time>2014-08-31T12:34:16Z</time>
      </trkpt>
      <trkpt lat="46.562264710664749" lon="8.594567310065031">
        <ele>2270.77</ele>
        <time>2014-08-31T12:34:32Z</time>
      </trkpt>
      <trkpt lat="46.562079805880785" lon="8.594570159912109">
        <ele>2270.77</ele>
        <time>2014-08-31T12:34:47Z</time>
      </trkpt>
      <trkpt lat="46.561909904703498" lon="8.594521125778556">
        <ele>2270.77</ele>
        <time>2014-08-31T12:35:02Z</time>
      </trkpt>
      <trkpt lat="46.561821224167943" lon="8.594516851007938">
        <ele>2270.77</ele>
        <time>2014-08-31T12:35:09Z</time>
      </trkpt>
      <trkpt lat="46.561647802591324" lon="8.594492292031646">
        <ele>2271.25</ele>
        <time>2014-08-31T12:35:24Z</time>
      </trkpt>
      <trkpt lat="46.561514111235738" lon="8.594411322847009">
        <ele>2272.21</ele>
        <time>2014-08-31T12:35:38Z</time>
      </trkpt>
      <trkpt lat="46.561419060453773" lon="8.594391793012619">
        <ele>2270.77</ele>
        <time>2014-08-31T12:35:48Z</time>
      </trkpt>
      <trkpt lat="46.56134613789618" lon="8.594365976750851">
        <ele>2270.77</ele>
        <time>2014-08-31T12:36:03Z</time>
      </trkpt>
      <trkpt lat="46.561340186744928" lon="8.594351978972554">
        <ele>2270.77</ele>
        <time>2014-08-31T12:36:24Z</time>
      </trkpt>
      <trkpt lat="46.561306407675147" lon="8.594373855739832">
        <ele>2271.25</ele>
        <time>2014-08-31T12:36:39Z</time>
      </trkpt>
      <trkpt lat="46.561241531744599" lon="8.594345608726144">
        <ele>2271.25</ele>
        <time>2014-08-31T12:36:51Z</time>
      </trkpt>
      <trkpt lat="46.56107883900404" lon="8.59423790127039">
        <ele>2270.29</ele>
        <time>2014-08-31T12:37:08Z</time>
      </trkpt>
      <trkpt lat="46.560886390507221" lon="8.594092978164554">
        <ele>2269.8099999999999</ele>
        <time>2014-08-31T12:37:25Z</time>
      </trkpt>
      <trkpt lat="46.560676256194711" lon="8.593950569629669">
        <ele>2269.8099999999999</ele>
        <time>2014-08-31T12:37:43Z</time>
      </trkpt>
      <trkpt lat="46.560570728033781" lon="8.593878736719489">
        <ele>2269.8099999999999</ele>
        <time>2014-08-31T12:37:55Z</time>
      </trkpt>
      <trkpt lat="46.560572739690542" lon="8.593878149986267">
        <ele>2269.8099999999999</ele>
        <time>2014-08-31T12:38:00Z</time>
      </trkpt>
      <trkpt lat="46.560520268976688" lon="8.593841688707471">
        <ele>2270.29</ele>
        <time>2014-08-31T12:38:04Z</time>
      </trkpt>
      <trkpt lat="46.560380375012755" lon="8.593696346506476">
        <ele>2269.8099999999999</ele>
        <time>2014-08-31T12:38:19Z</time>
      </trkpt>
      <trkpt lat="46.560217849910259" lon="8.593528289347887">
        <ele>2269.8099999999999</ele>
        <time>2014-08-31T12:38:36Z</time>
      </trkpt>
      <trkpt lat="46.560066221281886" lon="8.593397112563252">
        <ele>2269.3299999999999</ele>
        <time>2014-08-31T12:38:52Z</time>
      </trkpt>
      <trkpt lat="46.559888776391745" lon="8.593273395672441">
        <ele>2269.8099999999999</ele>
        <time>2014-08-31T12:39:10Z</time>
      </trkpt>
      <trkpt lat="46.559717366471887" lon="8.593181781470776">
        <ele>2269.8099999999999</ele>
        <time>2014-08-31T12:39:26Z</time>
      </trkpt>
      <trkpt lat="46.559564899653196" lon="8.593025710433722">
        <ele>2269.3299999999999</ele>
        <time>2014-08-31T12:39:41Z</time>
      </trkpt>
      <trkpt lat="46.559384437277913" lon="8.592905513942242">
        <ele>2268.8499999999999</ele>
        <time>2014-08-31T12:39:58Z</time>
      </trkpt>
      <trkpt lat="46.559304473921657" lon="8.592869555577636">
        <ele>2267.8899999999999</ele>
        <time>2014-08-31T12:40:05Z</time>
      </trkpt>
      <trkpt lat="46.559226019307971" lon="8.592800572514534">
        <ele>2268.8499999999999</ele>
        <time>2014-08-31T12:40:43Z</time>
      </trkpt>
      <trkpt lat="46.559221912175417" lon="8.592795208096504">
        <ele>2267.4099999999999</ele>
        <time>2014-08-31T12:40:44Z</time>
      </trkpt>
      <trkpt lat="46.55921814031899" lon="8.59281113371253">
        <ele>2267.4099999999999</ele>
        <time>2014-08-31T12:41:01Z</time>
      </trkpt>
      <trkpt lat="46.559178242459893" lon="8.592782383784652">
        <ele>2267.4099999999999</ele>
        <time>2014-08-31T12:41:17Z</time>
      </trkpt>
      <trkpt lat="46.559190060943365" lon="8.592806523665786">
        <ele>2267.4099999999999</ele>
        <time>2014-08-31T12:41:30Z</time>
      </trkpt>
      <trkpt lat="46.559148570522666" lon="8.592787245288491">
        <ele>2267.4099999999999</ele>
        <time>2014-08-31T12:41:44Z</time>
      </trkpt>
      <trkpt lat="46.55914731323719" lon="8.59279596246779">
        <ele>2267.8899999999999</ele>
        <time>2014-08-31T12:41:48Z</time>
      </trkpt>
      <trkpt lat="46.559127364307642" lon="8.592917583882809">
        <ele>2267.4099999999999</ele>
        <time>2014-08-31T12:42:02Z</time>
      </trkpt>
      <trkpt lat="46.559087298810482" lon="8.59299729578197">
        <ele>2266.9299999999998</ele>
        <time>2014-08-31T12:42:17Z</time>
      </trkpt>
      <trkpt lat="46.559065422043204" lon="8.593087904155254">
        <ele>2266.9299999999998</ele>
        <time>2014-08-31T12:42:30Z</time>
      </trkpt>
      <trkpt lat="46.559059470891953" lon="8.593084970489144">
        <ele>2267.4099999999999</ele>
        <time>2014-08-31T12:42:49Z</time>
      </trkpt>
      <trkpt lat="46.55904421582818" lon="8.593035181984305">
        <ele>2266.9299999999998</ele>
        <time>2014-08-31T12:43:06Z</time>
      </trkpt>
      <trkpt lat="46.559097021818161" lon="8.592864023521543">
        <ele>2267.4099999999999</ele>
        <time>2014-08-31T12:43:21Z</time>
      </trkpt>
      <trkpt lat="46.55910138040781" lon="8.59279696829617">
        <ele>2266.9299999999998</ele>
        <time>2014-08-31T12:43:43Z</time>
      </trkpt>
      <trkpt lat="46.559124430641532" lon="8.592822616919875">
        <ele>2265.96</ele>
        <time>2014-08-31T12:43:55Z</time>
      </trkpt>
      <trkpt lat="46.559118563309312" lon="8.592800740152597">
        <ele>2266.9299999999998</ele>
        <time>2014-08-31T12:44:22Z</time>
      </trkpt>
      <trkpt lat="46.559116384014487" lon="8.592798225581646">
        <ele>2266.4499999999998</ele>
        <time>2014-08-31T12:44:30Z</time>
      </trkpt>
      <trkpt lat="46.559142870828509" lon="8.592777438461781">
        <ele>2267.4099999999999</ele>
        <time>2014-08-31T12:44:38Z</time>
      </trkpt>
      <trkpt lat="46.559169609099627" lon="8.592780288308859">
        <ele>2267.4099999999999</ele>
        <time>2014-08-31T12:44:56Z</time>
      </trkpt>
      <trkpt lat="46.559145972132683" lon="8.592782719060779">
        <ele>2267.4099999999999</ele>
        <time>2014-08-31T12:45:10Z</time>
      </trkpt>
      <trkpt lat="46.55915510840714" lon="8.592760339379311">
        <ele>2267.4099999999999</ele>
        <time>2014-08-31T12:45:28Z</time>
      </trkpt>
      <trkpt lat="46.559108253568411" lon="8.59275296330452">
        <ele>2267.4099999999999</ele>
        <time>2014-08-31T12:45:41Z</time>
      </trkpt>
      <trkpt lat="46.559088388457894" lon="8.592731170356274">
        <ele>2266.4499999999998</ele>
        <time>2014-08-31T12:45:44Z</time>
      </trkpt>
      <trkpt lat="46.559072881937027" lon="8.59272999688983">
        <ele>2266.4499999999998</ele>
        <time>2014-08-31T12:46:04Z</time>
      </trkpt>
      <trkpt lat="46.55902904458344" lon="8.592684483155608">
        <ele>2265.96</ele>
        <time>2014-08-31T12:46:20Z</time>
      </trkpt>
      <trkpt lat="46.559034492820501" lon="8.592680459842086">
        <ele>2265.96</ele>
        <time>2014-08-31T12:46:41Z</time>
      </trkpt>
      <trkpt lat="46.559048322960734" lon="8.592725805938244">
        <ele>2265.96</ele>
        <time>2014-08-31T12:47:12Z</time>
      </trkpt>
      <trkpt lat="46.559058716520667" lon="8.592732427641749">
        <ele>2265.96</ele>
        <time>2014-08-31T12:47:29Z</time>
      </trkpt>
      <trkpt lat="46.559051088988781" lon="8.592718681320548">
        <ele>2265.96</ele>
        <time>2014-08-31T12:47:37Z</time>
      </trkpt>
      <trkpt lat="46.559109427034855" lon="8.592741983011365">
        <ele>2265.96</ele>
        <time>2014-08-31T12:47:50Z</time>
      </trkpt>
      <trkpt lat="46.559130717068911" lon="8.592768972739577">
        <ele>2266.4499999999998</ele>
        <time>2014-08-31T12:48:04Z</time>
      </trkpt>
      <trkpt lat="46.559114791452885" lon="8.592771822586656">
        <ele>2266.4499999999998</ele>
        <time>2014-08-31T12:48:23Z</time>
      </trkpt>
      <trkpt lat="46.559067936614156" lon="8.592747431248426">
        <ele>2266.4499999999998</ele>
        <time>2014-08-31T12:48:49Z</time>
      </trkpt>
      <trkpt lat="46.55906131491065" lon="8.592767715454102">
        <ele>2266.4499999999998</ele>
        <time>2014-08-31T12:49:17Z</time>
      </trkpt>
      <trkpt lat="46.559088807553053" lon="8.592752292752266">
        <ele>2266.4499999999998</ele>
        <time>2014-08-31T12:49:35Z</time>
      </trkpt>
      <trkpt lat="46.559087717905641" lon="8.592756567522883">
        <ele>2266.4499999999998</ele>
        <time>2014-08-31T12:49:51Z</time>
      </trkpt>
      <trkpt lat="46.559103559702635" lon="8.592785568907857">
        <ele>2266.4499999999998</ele>
        <time>2014-08-31T12:50:15Z</time>
      </trkpt>
      <trkpt lat="46.559080258011818" lon="8.59278179705143">
        <ele>2266.4499999999998</ele>
        <time>2014-08-31T12:50:17Z</time>
      </trkpt>
      <trkpt lat="46.558981100097299" lon="8.592750951647759">
        <ele>2264.04</ele>
        <time>2014-08-31T12:50:33Z</time>
      </trkpt>
      <trkpt lat="46.558892084285617" lon="8.592725554481149">
        <ele>2261.1599999999999</ele>
        <time>2014-08-31T12:50:45Z</time>
      </trkpt>
      <trkpt lat="46.558855790644884" lon="8.592725722119212">
        <ele>2259.2399999999998</ele>
        <time>2014-08-31T12:50:50Z</time>
      </trkpt>
      <trkpt lat="46.558757890015841" lon="8.592739216983318">
        <ele>2257.79</ele>
        <time>2014-08-31T12:50:59Z</time>
      </trkpt>
      <trkpt lat="46.558635765686631" lon="8.592723123729229">
        <ele>2254.4299999999998</ele>
        <time>2014-08-31T12:51:11Z</time>
      </trkpt>
      <trkpt lat="46.558509953320026" lon="8.59268750064075">
        <ele>2252.0300000000002</ele>
        <time>2014-08-31T12:51:22Z</time>
      </trkpt>
      <trkpt lat="46.55836058780551" lon="8.592511061578989">
        <ele>2250.5799999999999</ele>
        <time>2014-08-31T12:51:38Z</time>
      </trkpt>
      <trkpt lat="46.558182975277305" lon="8.592296484857798">
        <ele>2248.6599999999999</ele>
        <time>2014-08-31T12:51:56Z</time>
      </trkpt>
      <trkpt lat="46.558029921725392" lon="8.592087188735604">
        <ele>2246.7399999999998</ele>
        <time>2014-08-31T12:52:13Z</time>
      </trkpt>
      <trkpt lat="46.55783629976213" lon="8.591886525973678">
        <ele>2244.8200000000002</ele>
        <time>2014-08-31T12:52:31Z</time>
      </trkpt>
      <trkpt lat="46.557718617841601" lon="8.591634063050151">
        <ele>2242.4099999999999</ele>
        <time>2014-08-31T12:52:47Z</time>
      </trkpt>
      <trkpt lat="46.5576047077775" lon="8.591424012556672">
        <ele>2240.0100000000002</ele>
        <time>2014-08-31T12:53:02Z</time>
      </trkpt>
      <trkpt lat="46.557434136047959" lon="8.591214213520289">
        <ele>2240.0100000000002</ele>
        <time>2014-08-31T12:53:21Z</time>
      </trkpt>
      <trkpt lat="46.557410499081016" lon="8.591195605695248">
        <ele>2238.0900000000001</ele>
        <time>2014-08-31T12:53:23Z</time>
      </trkpt>
      <trkpt lat="46.557264905422926" lon="8.590933922678232">
        <ele>2234.7199999999998</ele>
        <time>2014-08-31T12:53:40Z</time>
      </trkpt>
      <trkpt lat="46.557157449424267" lon="8.590650530532002">
        <ele>2231.8400000000001</ele>
        <time>2014-08-31T12:53:56Z</time>
      </trkpt>
      <trkpt lat="46.557026524096727" lon="8.590429583564401">
        <ele>2228.9499999999998</ele>
        <time>2014-08-31T12:54:11Z</time>
      </trkpt>
      <trkpt lat="46.556918313726783" lon="8.590180305764079">
        <ele>2225.5900000000001</ele>
        <time>2014-08-31T12:54:26Z</time>
      </trkpt>
      <trkpt lat="46.556794680655003" lon="8.58994628302753">
        <ele>2222.71</ele>
        <time>2014-08-31T12:54:42Z</time>
      </trkpt>
      <trkpt lat="46.556651433929801" lon="8.589693820104003">
        <ele>2219.3400000000001</ele>
        <time>2014-08-31T12:54:59Z</time>
      </trkpt>
      <trkpt lat="46.556556299328804" lon="8.589405231177807">
        <ele>2215.98</ele>
        <time>2014-08-31T12:55:15Z</time>
      </trkpt>
      <trkpt lat="46.556473653763533" lon="8.589197611436248">
        <ele>2214.0500000000002</ele>
        <time>2014-08-31T12:55:27Z</time>
      </trkpt>
      <trkpt lat="46.556355217471719" lon="8.588969623669982">
        <ele>2210.6900000000001</ele>
        <time>2014-08-31T12:55:41Z</time>
      </trkpt>
      <trkpt lat="46.556295454502106" lon="8.588694864884019">
        <ele>2207.8099999999999</ele>
        <time>2014-08-31T12:55:56Z</time>
      </trkpt>
      <trkpt lat="46.556206941604614" lon="8.588443156331778">
        <ele>2204.4400000000001</ele>
        <time>2014-08-31T12:56:11Z</time>
      </trkpt>
      <trkpt lat="46.556022288277745" lon="8.58826152049005">
        <ele>2201.5599999999999</ele>
        <time>2014-08-31T12:56:28Z</time>
      </trkpt>
      <trkpt lat="46.555940397083759" lon="8.587980475276709">
        <ele>2198.1900000000001</ele>
        <time>2014-08-31T12:56:43Z</time>
      </trkpt>
      <trkpt lat="46.55581827275455" lon="8.587733376771212">
        <ele>2195.3099999999999</ele>
        <time>2014-08-31T12:56:59Z</time>
      </trkpt>
      <trkpt lat="46.555764628574252" lon="8.587434059008956">
        <ele>2192.4200000000001</ele>
        <time>2014-08-31T12:57:14Z</time>
      </trkpt>
      <trkpt lat="46.555716348811984" lon="8.587161898612976">
        <ele>2189.0599999999999</ele>
        <time>2014-08-31T12:57:29Z</time>
      </trkpt>
      <trkpt lat="46.555645102635026" lon="8.586821174249053">
        <ele>2186.1799999999998</ele>
        <time>2014-08-31T12:57:46Z</time>
      </trkpt>
      <trkpt lat="46.555564971640706" lon="8.586576590314508">
        <ele>2182.8099999999999</ele>
        <time>2014-08-31T12:58:00Z</time>
      </trkpt>
      <trkpt lat="46.555430861189961" lon="8.586447006091476">
        <ele>2180.4099999999999</ele>
        <time>2014-08-31T12:58:12Z</time>
      </trkpt>
      <trkpt lat="46.555305467918515" lon="8.586202673614025">
        <ele>2177.52</ele>
        <time>2014-08-31T12:58:28Z</time>
      </trkpt>
      <trkpt lat="46.555137662217021" lon="8.586017265915871">
        <ele>2174.6399999999999</ele>
        <time>2014-08-31T12:58:43Z</time>
      </trkpt>
      <trkpt lat="46.555059626698494" lon="8.585920454934239">
        <ele>2173.1999999999998</ele>
        <time>2014-08-31T12:58:50Z</time>
      </trkpt>
      <trkpt lat="46.554877068847418" lon="8.585717277601361">
        <ele>2170.3099999999999</ele>
        <time>2014-08-31T12:59:07Z</time>
      </trkpt>
      <trkpt lat="46.554714711382985" lon="8.585514184087515">
        <ele>2166.9499999999998</ele>
        <time>2014-08-31T12:59:22Z</time>
      </trkpt>
      <trkpt lat="46.554581690579653" lon="8.585312012583017">
        <ele>2164.0599999999999</ele>
        <time>2014-08-31T12:59:35Z</time>
      </trkpt>
      <trkpt lat="46.554408688098192" lon="8.58513381332159">
        <ele>2162.1399999999999</ele>
        <time>2014-08-31T12:59:50Z</time>
      </trkpt>
      <trkpt lat="46.554237026721239" lon="8.584912028163672">
        <ele>2159.7399999999998</ele>
        <time>2014-08-31T13:00:06Z</time>
      </trkpt>
      <trkpt lat="46.554229566827416" lon="8.584899120032787">
        <ele>2159.7399999999998</ele>
        <time>2014-08-31T13:00:07Z</time>
      </trkpt>
      <trkpt lat="46.554059833288193" lon="8.58468228019774">
        <ele>2158.3000000000002</ele>
        <time>2014-08-31T13:00:24Z</time>
      </trkpt>
      <trkpt lat="46.553913988173008" lon="8.584396205842495">
        <ele>2156.3699999999999</ele>
        <time>2014-08-31T13:00:42Z</time>
      </trkpt>
      <trkpt lat="46.553786164149642" lon="8.584118094295263">
        <ele>2154.9299999999998</ele>
        <time>2014-08-31T13:00:59Z</time>
      </trkpt>
      <trkpt lat="46.553680635988712" lon="8.58381500467658">
        <ele>2155.4099999999999</ele>
        <time>2014-08-31T13:01:16Z</time>
      </trkpt>
      <trkpt lat="46.553612742573023" lon="8.583560027182102">
        <ele>2156.3699999999999</ele>
        <time>2014-08-31T13:01:31Z</time>
      </trkpt>
      <trkpt lat="46.553630847483873" lon="8.583457265049219">
        <ele>2154.4499999999998</ele>
        <time>2014-08-31T13:01:37Z</time>
      </trkpt>
      <trkpt lat="46.553739979863167" lon="8.583194660022855">
        <ele>2154.4499999999998</ele>
        <time>2014-08-31T13:01:53Z</time>
      </trkpt>
      <trkpt lat="46.5538539737463" lon="8.58304931782186">
        <ele>2153.0100000000002</ele>
        <time>2014-08-31T13:02:04Z</time>
      </trkpt>
      <trkpt lat="46.553995795547962" lon="8.582854187116027">
        <ele>2154.4499999999998</ele>
        <time>2014-08-31T13:02:20Z</time>
      </trkpt>
      <trkpt lat="46.554022114723921" lon="8.582795513793826">
        <ele>2153.9699999999998</ele>
        <time>2014-08-31T13:02:24Z</time>
      </trkpt>
      <trkpt lat="46.554060922935605" lon="8.582625025883317">
        <ele>2153.9699999999998</ele>
        <time>2014-08-31T13:02:34Z</time>
      </trkpt>
      <trkpt lat="46.554101910442114" lon="8.582342891022563">
        <ele>2153.9699999999998</ele>
        <time>2014-08-31T13:02:49Z</time>
      </trkpt>
      <trkpt lat="46.554142730310559" lon="8.582051200792193">
        <ele>2154.4499999999998</ele>
        <time>2014-08-31T13:03:06Z</time>
      </trkpt>
      <trkpt lat="46.554157482460141" lon="8.581740232184529">
        <ele>2154.4499999999998</ele>
        <time>2014-08-31T13:03:22Z</time>
      </trkpt>
      <trkpt lat="46.554143987596035" lon="8.581433119252324">
        <ele>2154.4499999999998</ele>
        <time>2014-08-31T13:03:39Z</time>
      </trkpt>
      <trkpt lat="46.554085733368993" lon="8.581131119281054">
        <ele>2154.4499999999998</ele>
        <time>2014-08-31T13:03:56Z</time>
      </trkpt>
      <trkpt lat="46.554073831066489" lon="8.580888798460364">
        <ele>2153.9699999999998</ele>
        <time>2014-08-31T13:04:09Z</time>
      </trkpt>
      <trkpt lat="46.55405480414629" lon="8.5806745570153">
        <ele>2153.9699999999998</ele>
        <time>2014-08-31T13:04:21Z</time>
      </trkpt>
      <trkpt lat="46.554026557132602" lon="8.580468278378248">
        <ele>2153.4899999999998</ele>
        <time>2014-08-31T13:04:32Z</time>
      </trkpt>
      <trkpt lat="46.553956735879183" lon="8.580073490738869">
        <ele>2153.4899999999998</ele>
        <time>2014-08-31T13:04:54Z</time>
      </trkpt>
      <trkpt lat="46.553872833028436" lon="8.579776184633374">
        <ele>2152.5300000000002</ele>
        <time>2014-08-31T13:05:10Z</time>
      </trkpt>
      <trkpt lat="46.553772669285536" lon="8.579418025910854">
        <ele>2152.0500000000002</ele>
        <time>2014-08-31T13:05:30Z</time>
      </trkpt>
      <trkpt lat="46.553711649030447" lon="8.579173525795341">
        <ele>2152.0500000000002</ele>
        <time>2014-08-31T13:05:45Z</time>
      </trkpt>
      <trkpt lat="46.553636798635125" lon="8.578884266316891">
        <ele>2151.5700000000002</ele>
        <time>2014-08-31T13:06:02Z</time>
      </trkpt>
      <trkpt lat="46.553531521931291" lon="8.57859693467617">
        <ele>2151.5700000000002</ele>
        <time>2014-08-31T13:06:19Z</time>
      </trkpt>
      <trkpt lat="46.553529929369688" lon="8.578396523371339">
        <ele>2150.6100000000001</ele>
        <time>2014-08-31T13:06:29Z</time>
      </trkpt>
      <trkpt lat="46.553533617407084" lon="8.578323433175683">
        <ele>2150.1300000000001</ele>
        <time>2014-08-31T13:06:33Z</time>
      </trkpt>
      <trkpt lat="46.553544597700238" lon="8.578048842027783">
        <ele>2150.1300000000001</ele>
        <time>2014-08-31T13:06:48Z</time>
      </trkpt>
      <trkpt lat="46.553566809743643" lon="8.577776262536645">
        <ele>2148.6799999999998</ele>
        <time>2014-08-31T13:07:02Z</time>
      </trkpt>
      <trkpt lat="46.553578544408083" lon="8.577734855934978">
        <ele>2148.1999999999998</ele>
        <time>2014-08-31T13:07:04Z</time>
      </trkpt>
      <trkpt lat="46.553573599085212" lon="8.577583646401763">
        <ele>2147.7199999999998</ele>
        <time>2014-08-31T13:07:12Z</time>
      </trkpt>
      <trkpt lat="46.553573682904243" lon="8.577525811269879">
        <ele>2147.7199999999998</ele>
        <time>2014-08-31T13:07:15Z</time>
      </trkpt>
      <trkpt lat="46.55355398543179" lon="8.57745498418808">
        <ele>2147.7199999999998</ele>
        <time>2014-08-31T13:07:19Z</time>
      </trkpt>
      <trkpt lat="46.553540155291557" lon="8.577423803508282">
        <ele>2147.2399999999998</ele>
        <time>2014-08-31T13:07:21Z</time>
      </trkpt>
      <trkpt lat="46.553561361506581" lon="8.577132197096944">
        <ele>2146.7600000000002</ele>
        <time>2014-08-31T13:07:37Z</time>
      </trkpt>
      <trkpt lat="46.553576365113258" lon="8.577095735818148">
        <ele>2145.8000000000002</ele>
        <time>2014-08-31T13:07:39Z</time>
      </trkpt>
      <trkpt lat="46.553591368719935" lon="8.577066566795111">
        <ele>2145.8000000000002</ele>
        <time>2014-08-31T13:07:46Z</time>
      </trkpt>
      <trkpt lat="46.553639145568013" lon="8.576897252351046">
        <ele>2144.8400000000001</ele>
        <time>2014-08-31T13:07:55Z</time>
      </trkpt>
      <trkpt lat="46.553669404238462" lon="8.576748473569751">
        <ele>2144.8400000000001</ele>
        <time>2014-08-31T13:08:03Z</time>
      </trkpt>
      <trkpt lat="46.553699327632785" lon="8.576618218794465">
        <ele>2142.9200000000001</ele>
        <time>2014-08-31T13:08:15Z</time>
      </trkpt>
      <trkpt lat="46.553724221885204" lon="8.576502045616508">
        <ele>2143.4000000000001</ele>
        <time>2014-08-31T13:08:29Z</time>
      </trkpt>
      <trkpt lat="46.553722880780697" lon="8.576389560475946">
        <ele>2143.4000000000001</ele>
        <time>2014-08-31T13:08:35Z</time>
      </trkpt>
      <trkpt lat="46.553743835538626" lon="8.576280009001494">
        <ele>2142.4400000000001</ele>
        <time>2014-08-31T13:08:41Z</time>
      </trkpt>
      <trkpt lat="46.553771579638124" lon="8.5760966129601">
        <ele>2141.9499999999998</ele>
        <time>2014-08-31T13:08:51Z</time>
      </trkpt>
      <trkpt lat="46.553800581023097" lon="8.576031820848584">
        <ele>2140.9899999999998</ele>
        <time>2014-08-31T13:08:55Z</time>
      </trkpt>
      <trkpt lat="46.553881382569671" lon="8.575793774798513">
        <ele>2140.0300000000002</ele>
        <time>2014-08-31T13:09:10Z</time>
      </trkpt>
      <trkpt lat="46.553950030356646" lon="8.575668800622225">
        <ele>2139.0700000000002</ele>
        <time>2014-08-31T13:09:18Z</time>
      </trkpt>
      <trkpt lat="46.554131582379341" lon="8.575386498123407">
        <ele>2137.6300000000001</ele>
        <time>2014-08-31T13:09:38Z</time>
      </trkpt>
      <trkpt lat="46.554163852706552" lon="8.575251800939441">
        <ele>2137.1500000000001</ele>
        <time>2014-08-31T13:09:46Z</time>
      </trkpt>
      <trkpt lat="46.55421263538301" lon="8.5750104021281">
        <ele>2135.71</ele>
        <time>2014-08-31T13:09:59Z</time>
      </trkpt>
      <trkpt lat="46.554234176874161" lon="8.574939658865333">
        <ele>2135.23</ele>
        <time>2014-08-31T13:10:03Z</time>
      </trkpt>
      <trkpt lat="46.55423317104578" lon="8.574886098504067">
        <ele>2135.23</ele>
        <time>2014-08-31T13:10:06Z</time>
      </trkpt>
      <trkpt lat="46.554363844916224" lon="8.574714520946145">
        <ele>2133.7800000000002</ele>
        <time>2014-08-31T13:10:20Z</time>
      </trkpt>
      <trkpt lat="46.554462416097522" lon="8.574613099917769">
        <ele>2132.8200000000002</ele>
        <time>2014-08-31T13:10:29Z</time>
      </trkpt>
      <trkpt lat="46.554501811042428" lon="8.574563311412931">
        <ele>2133.3000000000002</ele>
        <time>2014-08-31T13:10:33Z</time>
      </trkpt>
      <trkpt lat="46.554692666977644" lon="8.574370946735144">
        <ele>2131.8600000000001</ele>
        <time>2014-08-31T13:10:51Z</time>
      </trkpt>
      <trkpt lat="46.554757123813033" lon="8.574296934530139">
        <ele>2131.3800000000001</ele>
        <time>2014-08-31T13:10:58Z</time>
      </trkpt>
      <trkpt lat="46.554810600355268" lon="8.574255779385567">
        <ele>2130.9000000000001</ele>
        <time>2014-08-31T13:11:03Z</time>
      </trkpt>
      <trkpt lat="46.554984776303172" lon="8.574113789945841">
        <ele>2129.9400000000001</ele>
        <time>2014-08-31T13:11:19Z</time>
      </trkpt>
      <trkpt lat="46.555196335539222" lon="8.573937267065048">
        <ele>2127.5300000000002</ele>
        <time>2014-08-31T13:11:37Z</time>
      </trkpt>
      <trkpt lat="46.555371768772602" lon="8.573738783597946">
        <ele>2125.6100000000001</ele>
        <time>2014-08-31T13:11:54Z</time>
      </trkpt>
      <trkpt lat="46.555505879223347" lon="8.573525212705135">
        <ele>2124.6500000000001</ele>
        <time>2014-08-31T13:12:09Z</time>
      </trkpt>
      <trkpt lat="46.555642755702138" lon="8.573262523859739">
        <ele>2123.21</ele>
        <time>2014-08-31T13:12:26Z</time>
      </trkpt>
      <trkpt lat="46.555731352418661" lon="8.572989944368601">
        <ele>2122.25</ele>
        <time>2014-08-31T13:12:42Z</time>
      </trkpt>
      <trkpt lat="46.555780302733183" lon="8.572870753705502">
        <ele>2121.29</ele>
        <time>2014-08-31T13:12:49Z</time>
      </trkpt>
      <trkpt lat="46.555928327143192" lon="8.572569759562612">
        <ele>2119.8400000000001</ele>
        <time>2014-08-31T13:13:08Z</time>
      </trkpt>
      <trkpt lat="46.555970991030335" lon="8.572489125654101">
        <ele>2118.8800000000001</ele>
        <time>2014-08-31T13:13:13Z</time>
      </trkpt>
      <trkpt lat="46.556070568040013" lon="8.572237249463797">
        <ele>2117.9200000000001</ele>
        <time>2014-08-31T13:13:28Z</time>
      </trkpt>
      <trkpt lat="46.556146005168557" lon="8.571953270584345">
        <ele>2115.04</ele>
        <time>2014-08-31T13:13:44Z</time>
      </trkpt>
      <trkpt lat="46.556143239140511" lon="8.571934578940272">
        <ele>2116.96</ele>
        <time>2014-08-31T13:13:45Z</time>
      </trkpt>
      <trkpt lat="46.556140976026654" lon="8.571895435452461">
        <ele>2116</ele>
        <time>2014-08-31T13:13:47Z</time>
      </trkpt>
      <trkpt lat="46.556141311302781" lon="8.571672644466162">
        <ele>2115.52</ele>
        <time>2014-08-31T13:13:59Z</time>
      </trkpt>
      <trkpt lat="46.556142065674067" lon="8.57155722565949">
        <ele>2113.5999999999999</ele>
        <time>2014-08-31T13:14:04Z</time>
      </trkpt>
      <trkpt lat="46.556188836693764" lon="8.571270564571023">
        <ele>2113.5999999999999</ele>
        <time>2014-08-31T13:14:20Z</time>
      </trkpt>
      <trkpt lat="46.5562888327986" lon="8.570986082777381">
        <ele>2112.1500000000001</ele>
        <time>2014-08-31T13:14:37Z</time>
      </trkpt>
      <trkpt lat="46.556404503062367" lon="8.570719202980399">
        <ele>2110.23</ele>
        <time>2014-08-31T13:14:53Z</time>
      </trkpt>
      <trkpt lat="46.556420428678393" lon="8.570693805813789">
        <ele>2109.75</ele>
        <time>2014-08-31T13:14:55Z</time>
      </trkpt>
      <trkpt lat="46.556476000696421" lon="8.570397086441517">
        <ele>2108.79</ele>
        <time>2014-08-31T13:15:11Z</time>
      </trkpt>
      <trkpt lat="46.556486561894417" lon="8.570218216627836">
        <ele>2107.8299999999999</ele>
        <time>2014-08-31T13:15:20Z</time>
      </trkpt>
      <trkpt lat="46.556466361507773" lon="8.569905152544379">
        <ele>2106.3899999999999</ele>
        <time>2014-08-31T13:15:36Z</time>
      </trkpt>
      <trkpt lat="46.556427637115121" lon="8.569589154794812">
        <ele>2106.3899999999999</ele>
        <time>2014-08-31T13:15:53Z</time>
      </trkpt>
      <trkpt lat="46.556314397603273" lon="8.569325292482972">
        <ele>2103.98</ele>
        <time>2014-08-31T13:16:09Z</time>
      </trkpt>
      <trkpt lat="46.556240636855364" lon="8.569214064627886">
        <ele>2103.02</ele>
        <time>2014-08-31T13:16:18Z</time>
      </trkpt>
      <trkpt lat="46.556229237467051" lon="8.569196797907352">
        <ele>2102.0599999999999</ele>
        <time>2014-08-31T13:16:32Z</time>
      </trkpt>
    </trkseg>
  </trk>

</gpx>